[[{"header":{"parameterUnit":"m.s-1","parameterCategory":1,"la1":31.0,"la2":29.5877,"lo1":-88.7671,"lo2":-86.6584,"dy":0.0162,"dx":0.0185,"nx":115,"ny":88,"refTime":"2024-04-19T00:00:00:Z","depth":0,"parameterNumber":2,"parameterNumberName":"U-component_of_WINDS"},"data":[0.0,0.0,0.0,0.0,0.0,0.0,0.0,0.0,0.0,0.0,0.0,0.0,0.0,0.0,0.0,0.0,0.0,0.0,0.0,0.0,0.0,0.0,0.0,0.0,0.0,0.0,0.0,0.0,0.0,0.0,0.0,0.0,0.0,0.0,0.0,0.0,0.0,0.0,0.0,0.0,0.0,0.0,0.0,0.0,0.0,0.0,0.0,0.0,0.0,0.0,0.0,0.0,0.0,0.0,0.0,0.0,0.0,0.0,0.0,0.0,0.0,0.0,0.0,0.0,0.0,0.0,0.0,0.0,0.0,0.0,0.0,0.0,0.0,0.0,0.0,0.0,0.0,0.0,0.0,0.0,0.0,0.0,0.0,0.0,0.0,0.0,0.0,0.0,0.0,0.0,0.0,0.0,0.0,0.0,0.0,0.0,0.0,0.0,0.0,0.0,0.0,0.0,0.0,0.0,0.0,0.0,0.0,0.0,0.0,0.0,0.0,0.0,0.0,0.0,0.0,0.0,0.0,0.0,0.0,0.0,0.0,0.0,0.0,0.0,0.0,0.0,0.0,0.0,0.0,0.0,0.0,0.0,0.0,0.0,0.0,0.0,0.0,0.0,0.0,0.0,0.0,0.0,0.0,0.0,0.0,0.0,0.0,0.0,0.0,0.0,0.0,0.0,0.0,0.0,0.0,0.0,0.0,0.0,0.0,0.0,0.0,0.0,0.0,0.0,0.0,0.0,0.0,0.0,0.0,0.0,0.0,0.0,0.0,0.0,0.0,0.0,0.0,0.0,0.0,0.0,0.0,0.0,0.0,0.0,0.0,0.0,0.0,0.0,0.0,0.0,0.0,0.0,0.0,0.0,0.0,0.0,0.0,0.0,0.0,0.0,0.0,0.0,0.0,0.0,0.0,0.0,0.0,0.0,0.0,0.0,0.0,0.0,0.0,0.0,0.0,0.0,0.0,0.0,0.0,0.0,0.0,0.0,0.0,0.0,0.0,0.0,0.0,0.0,0.0,0.0,0.0,0.0,0.0,0.0,0.0,0.0,0.0,0.0,0.0,0.0,0.0,0.0,0.0,0.0,0.0,0.0,0.0,0.0,0.0,0.0,0.0,0.0,0.0,0.0,0.0,0.0,0.0,0.0,0.0,0.0,0.0,0.0,0.0,0.0,0.0,0.0,0.0,0.0,0.0,0.0,0.0,0.0,0.0,0.0,0.0,0.0,0.0,0.0,0.0,0.0,0.0,0.0,0.0,0.0,0.0,0.0,0.0,0.0,0.0,0.0,0.0,0.0,0.0,0.0,0.0,0.0,0.0,0.0,0.0,0.0,0.0,0.0,0.0,0.0,0.0,0.0,0.0,0.0,0.0,0.0,0.0,0.0,0.0,0.0,0.0,0.0,0.0,0.0,0.0,0.0,0.0,0.0,0.0,0.0,0.0,0.0,0.0,0.0,0.0,0.0,0.0,0.0,0.0,0.0,0.0,0.0,0.0,0.0,0.0,0.0,0.0,0.0,0.0,0.0,0.0,0.0,0.0,0.0,0.0,0.0,0.0,0.0,0.0,0.0,0.0,0.0,0.0,0.0,0.0,0.0,0.0,0.0,0.0,0.0,0.0,0.0,0.0,0.0,0.0,0.0,0.0,0.0,0.0,0.0,0.0,0.0,0.0,0.0,0.0,0.0,0.0,0.0,0.0,0.0,0.0,0.0,0.0,0.0,0.0,0.0,0.0,0.0,0.0,0.0,0.0,0.0,0.0,0.0,0.0,0.0,0.0,0.0,0.0,0.0,0.0,0.0,0.0,0.0,0.0,0.0,0.0,0.0,0.0,0.0,0.0,0.0,0.0,0.0,0.0,0.0,0.0,0.0,0.0,0.0,0.0,0.0,0.0,0.0,0.0,0.0,0.0,0.0,0.0,0.0,0.0,0.0,0.0,0.0,0.0,0.0,0.0,0.0,0.0,0.0,0.0,0.0,0.0,0.0,0.0,0.0,0.0,0.0,0.0,0.0,0.0,0.0,0.0,0.0,0.0,0.0,0.0,0.0,0.0,0.0,0.0,0.0,0.0,0.0,0.0,0.0,0.0,0.0,0.0,0.0,0.0,0.0,0.0,0.0,0.0,0.0,0.0,0.0,0.0,0.0,0.0,0.0,0.0,0.0,0.0,0.0,0.0,0.0,0.0,0.0,0.0,0.0,0.0,0.0,0.0,0.0,0.0,0.0,0.0,0.0,0.0,0.0,0.0,0.0,0.0,0.0,0.0,0.0,0.0,0.0,0.0,0.0,0.0,0.0,0.0,0.0,0.0,0.0,0.0,0.0,0.0,0.0,0.0,0.0,0.0,0.0,0.0,0.0,0.0,0.0,0.0,0.0,0.0,0.0,0.0,0.0,0.0,0.0,0.0,0.0,0.0,0.0,0.0,0.0,0.0,0.0,0.0,0.0,0.0,0.0,0.0,0.0,0.0,0.0,0.0,0.0,0.0,0.0,0.0,0.0,0.0,0.0,0.0,0.0,0.0,0.0,0.0,0.0,0.0,0.0,0.0,0.0,0.0,0.0,0.0,0.0,0.0,0.0,0.0,0.0,0.0,0.0,0.0,0.0,0.0,0.0,0.0,0.0,0.0,0.0,0.0,0.0,0.0,0.0,0.0,0.0,0.0,0.0,0.0,0.0,0.0,0.0,0.0,0.0,0.0,0.0,0.0,0.0,0.0,0.0,0.0,0.0,0.0,0.0,0.0,0.0,0.0,0.0,0.0,0.0,0.0,0.0,0.0,0.0,0.0,0.0,0.0,0.0,0.0,0.0,0.0,0.0,0.0,0.0,0.0,0.0,0.0,0.0,0.0,0.0,0.0,0.0,0.0,0.0,0.0,0.0,0.0,0.0,0.0,0.0,0.0,0.0,0.0,0.0,0.0,0.0,0.0,0.0,0.0,0.0,0.0,0.0,0.0,0.0,0.0,0.0,0.0,0.0,0.0,0.0,0.0,0.0,0.0,0.0,0.0,0.0,0.0,0.0,0.0,0.0,0.0,0.0,0.0,0.0,0.0,0.0,0.0,0.0,0.0,0.0,0.0,0.0,0.0,0.0,0.0,0.0,0.0,0.0,0.0,0.0,0.0,0.0,0.0,0.0,0.0,0.0,0.0,0.0,0.0,0.0,0.0,0.0,0.0,0.0,0.0,0.0,0.0,0.0,0.0,0.0,0.0,0.0,0.0,0.0,0.0,0.0,0.0,0.0,0.0,0.0,0.0,0.0,0.0,0.0,0.0,0.0,0.0,0.0,0.0,0.0,0.0,0.0,0.0,0.0,0.0,0.0,0.0,0.0,0.0,0.0,0.0,0.0,0.0,0.0,0.0,0.0,0.0,0.0,0.0,0.0,0.0,0.0,0.0,0.0,0.0,0.0,0.0,0.0,0.0,0.0,0.0,0.0,0.0,0.0,0.0,0.0,0.0,0.0,0.0,0.0,0.0,0.0,0.0,0.0,0.0,0.0,0.0,0.0,0.0,0.0,0.0,0.0,0.0,0.0,0.0,0.0,0.0,0.0,0.0,0.0,0.0,0.0,0.0,0.0,0.0,0.0,0.0,0.0,0.0,0.0,0.0,0.0,0.0,0.0,0.0,0.0,0.0,0.0,0.0,0.0,0.0,0.0,0.0,0.0,0.0,0.0,0.0,0.0,0.0,0.0,0.0,0.0,0.0,0.0,0.0,0.0,0.0,0.0,0.0,0.0,0.0,0.0,0.0,0.0,0.0,0.0,0.0,0.0,0.0,0.0,0.0,0.0,0.0,0.0,0.0,0.0,0.0,0.0,0.0,0.0,0.0,0.0,0.0,0.0,0.0,0.0,0.0,0.0,0.0,0.0,0.0,0.0,0.0,0.0,0.0,0.0,0.0,0.0,0.0,0.0,0.0,0.0,0.0,0.0,0.0,0.0,0.0,0.0,0.0,0.0,0.0,0.0,0.0,0.0,0.0,0.0,0.0,0.0,0.0,0.0,0.0,0.0,0.0,0.0,0.0,0.0,0.0,0.0,0.0,0.0,0.0,0.0,0.0,0.0,0.0,0.0,0.0,0.0,0.0,0.0,0.0,0.0,0.0,0.0,0.0,0.0,0.0,0.0,0.0,0.0,0.0,0.0,0.0,0.0,0.0,0.0,0.0,0.0,0.0,0.0,0.0,0.0,0.0,0.0,0.0,0.0,0.0,0.0,0.0,0.0,0.0,0.0,0.0,0.0,0.0,0.0,0.0,0.0,0.0,0.0,0.0,0.0,-0.7874,0.0,0.0,0.0,0.0,0.0,0.0,0.0,0.0,0.0,0.0,0.0,0.0,0.0,0.0,0.0,0.0,0.0,0.0,0.0,0.0,0.0,0.0,0.0,0.0,0.0,0.0,0.0,0.0,0.0,0.0,0.0,0.0,0.0,0.0,0.0,0.0,0.0,0.0,0.0,0.0,0.0,0.0,0.0,0.0,0.0,0.0,0.0,0.0,0.0,0.0,0.0,0.0,0.0,0.0,0.0,0.0,0.0,0.0,0.0,0.0,0.0,0.0,0.0,0.0,0.0,0.0,0.0,0.0,0.0,0.0,0.0,0.0,0.0,0.0,0.0,0.0,0.0,0.0,0.0,0.0,0.0,0.0,0.0,0.0,0.0,0.0,0.0,0.0,0.0,0.0,0.0,0.0,0.0,0.0,0.0,0.0,0.0,0.0,0.0,0.0,0.0,0.0,0.0,0.0,0.0,0.0,0.0,0.0,0.0,0.0,-0.9829,-1.0259,-0.9893,-0.9531,-0.9149,0.0,0.0,0.0,0.0,0.0,0.0,0.0,0.0,0.0,0.0,0.0,0.0,0.0,0.0,0.0,0.0,0.0,0.0,0.0,0.0,0.0,0.0,0.0,0.0,0.0,0.0,0.0,0.0,0.0,0.0,0.0,0.0,0.0,0.0,0.0,0.0,0.0,0.0,0.0,0.0,0.0,0.0,0.0,0.0,0.0,0.0,0.0,0.0,0.0,0.0,0.0,0.0,0.0,0.0,0.0,0.0,0.0,0.0,0.0,0.0,0.0,0.0,0.0,0.0,0.0,0.0,0.0,0.0,0.0,0.0,0.0,0.0,0.0,0.0,0.0,0.0,0.0,0.0,0.0,0.0,0.0,0.0,0.0,0.0,0.0,0.0,0.0,0.0,0.0,0.0,0.0,0.0,0.0,0.0,0.0,0.0,0.0,0.0,0.0,0.0,0.0,0.0,0.0,0.0,0.0,0.0,0.0,0.0,0.0,0.0,0.0,0.0,-1.0719,-1.0276,-0.9954,0.0,0.0,0.0,0.0,0.0,0.0,0.0,0.0,0.0,0.0,0.0,0.0,0.0,0.0,0.0,0.0,0.0,0.0,0.0,0.0,0.0,0.0,0.0,0.0,0.0,0.0,0.0,0.0,0.0,0.0,0.0,0.0,0.0,0.0,0.0,0.0,0.0,0.0,0.0,0.0,0.0,0.0,0.0,0.0,0.0,0.0,0.0,0.0,0.0,0.0,0.0,0.0,0.0,0.0,0.0,0.0,0.0,0.0,0.0,0.0,0.0,0.0,0.0,0.0,0.0,0.0,0.0,0.0,0.0,0.0,0.0,0.0,0.0,0.0,0.0,0.0,0.0,0.0,0.0,0.0,0.0,0.0,0.0,0.0,0.0,0.0,0.0,0.0,0.0,0.0,0.0,0.0,0.0,0.0,0.0,0.0,0.0,0.0,0.0,0.0,0.0,0.0,0.0,0.0,0.0,0.0,0.0,0.0,0.0,0.0,-1.0992,-1.1118,-1.111,0.0,-0.9581,0.0,0.0,0.0,0.0,0.0,0.0,0.0,0.0,0.0,0.0,0.0,0.0,0.0,0.0,0.0,0.0,0.0,0.0,0.0,0.0,0.0,0.0,0.0,0.0,0.0,0.0,0.0,0.0,0.0,0.0,0.0,0.0,0.0,0.0,0.0,0.0,0.0,0.0,0.0,0.0,0.0,0.0,0.0,0.0,0.0,0.0,0.0,0.0,0.0,0.0,0.0,0.0,0.0,0.0,0.0,0.0,0.0,0.0,0.0,0.0,0.0,0.0,0.0,0.0,0.0,0.0,0.0,0.0,0.0,0.0,0.0,0.0,0.0,0.0,0.0,0.0,0.0,0.0,0.0,0.0,0.0,0.0,0.0,0.0,0.0,0.0,0.0,0.0,0.0,0.0,0.0,0.0,0.0,0.0,0.0,0.0,0.0,0.0,0.0,0.0,0.0,0.0,0.0,0.0,0.0,0.0,0.0,0.0,0.0,0.0,-1.1328,-1.2273,-1.1346,-1.0358,0.0,0.0,0.0,0.0,0.0,0.0,0.0,0.0,0.0,0.0,0.0,0.0,0.0,0.0,0.0,0.0,0.0,0.0,0.0,0.0,0.0,0.0,0.0,0.0,0.0,0.0,0.0,0.0,0.0,0.0,0.0,0.0,0.0,0.0,0.0,0.0,0.0,0.0,0.0,0.0,0.0,0.0,0.0,0.0,0.0,0.0,0.0,0.0,0.0,0.0,0.0,0.0,0.0,0.0,0.0,0.0,0.0,0.0,0.0,0.0,0.0,0.0,0.0,0.0,0.0,0.0,0.0,0.0,0.0,0.0,0.0,0.0,0.0,0.0,0.0,0.0,0.0,0.0,0.0,0.0,0.0,0.0,0.0,0.0,0.0,0.0,0.0,0.0,0.0,0.0,0.0,0.0,0.0,0.0,0.0,0.0,0.0,0.0,0.0,0.0,0.0,0.0,0.0,0.0,0.0,0.0,0.0,0.0,0.0,0.0,-1.0541,-1.1319,-1.2498,-1.1236,-1.0081,-0.9263,0.0,0.0,0.0,0.0,0.0,0.0,0.0,0.0,0.0,0.0,0.0,0.0,0.0,0.0,0.0,0.0,0.0,0.0,0.0,0.0,0.0,0.0,0.0,0.0,0.0,0.0,0.0,0.0,0.0,0.0,0.0,0.0,0.0,0.0,0.0,0.0,0.0,0.0,0.0,0.0,0.0,0.0,0.0,0.0,0.0,0.0,0.0,0.0,0.0,0.0,0.0,0.0,0.0,0.0,0.0,0.0,0.0,0.0,0.0,0.0,0.0,0.0,0.0,0.0,0.0,0.0,0.0,0.0,0.0,0.0,0.0,0.0,0.0,0.0,0.0,0.0,0.0,0.0,0.0,0.0,0.0,0.0,0.0,0.0,0.0,0.0,0.0,0.0,0.0,0.0,0.0,0.0,0.0,0.0,0.0,0.0,0.0,0.0,0.0,0.0,0.0,0.0,0.0,0.0,0.0,0.0,0.0,0.0,-0.9296,-1.0097,-1.0847,-1.1514,-1.0628,-0.9949,0.0,0.0,0.0,0.0,0.0,0.0,0.0,0.0,0.0,0.0,0.0,0.0,0.0,0.0,0.0,0.0,0.0,0.0,0.0,0.0,0.0,0.0,0.0,0.0,0.0,0.0,0.0,0.0,0.0,0.0,0.0,0.0,0.0,0.0,0.0,0.0,0.0,0.0,0.0,0.0,0.0,0.0,0.0,0.0,0.0,0.0,0.0,0.0,0.0,0.0,0.0,0.0,0.0,0.0,0.0,0.0,0.0,0.0,0.0,0.0,0.0,0.0,0.0,0.0,0.0,0.0,0.0,0.0,0.0,0.0,0.0,0.0,0.0,0.0,0.0,0.0,0.0,0.0,0.0,0.0,0.0,0.0,0.0,0.0,0.0,0.0,0.0,0.0,0.0,0.0,0.0,0.0,0.0,0.0,0.0,0.0,0.0,0.0,0.0,0.0,0.0,0.0,0.0,0.0,0.0,0.0,0.0,0.0,0.0,-0.9002,-0.9808,-1.0323,-1.045,-0.9553,-0.8938,0.0,0.0,0.0,0.0,0.0,0.0,0.0,0.0,0.0,0.0,0.0,0.0,0.0,0.0,0.0,0.0,0.0,0.0,0.0,0.0,0.0,0.0,0.0,0.0,0.0,0.0,0.0,0.0,0.0,0.0,0.0,0.0,0.0,0.0,0.0,0.0,0.0,0.0,0.0,0.0,0.0,0.0,0.0,0.0,0.0,0.0,0.0,0.0,0.0,0.0,0.0,0.0,0.0,0.0,0.0,0.0,0.0,0.0,0.0,0.0,0.0,0.0,0.0,0.0,0.0,0.0,0.0,0.0,0.0,0.0,0.0,0.0,0.0,0.0,0.0,0.0,0.0,0.0,0.0,0.0,0.0,0.0,0.0,0.0,0.0,0.0,0.0,0.0,0.0,0.0,0.0,0.0,0.0,0.0,0.0,0.0,0.0,0.0,0.0,0.0,0.0,0.0,0.0,0.0,0.0,0.0,0.0,0.0,0.0,-0.8558,0.0,-0.9619,-0.9466,-0.8781,-0.8261,0.0,0.0,0.0,0.0,0.0,0.0,0.0,0.0,0.0,0.0,0.0,0.0,0.0,0.0,0.0,0.0,0.0,0.0,0.0,0.0,0.0,0.0,0.0,0.0,0.0,0.0,0.0,0.0,0.0,0.0,0.0,0.0,0.0,0.0,0.0,0.0,0.0,0.0,0.0,0.0,0.0,0.0,0.0,0.0,0.0,0.0,0.0,0.0,0.0,0.0,0.0,0.0,0.0,0.0,0.0,0.0,0.0,0.0,0.0,0.0,0.0,0.0,0.0,0.0,0.0,0.0,0.0,0.0,0.0,0.0,0.0,0.0,0.0,0.0,0.0,0.0,0.0,0.0,0.0,0.0,0.0,0.0,0.0,0.0,0.0,0.0,0.0,0.0,0.0,0.0,0.0,0.0,0.0,0.0,0.0,0.0,0.0,0.0,0.0,0.0,0.0,0.0,0.0,0.0,0.0,0.0,0.0,0.0,-0.748,-0.7827,-0.8465,-0.8745,-0.8595,-0.833,-0.8032,0.0,0.0,0.0,0.0,0.0,0.0,0.0,0.0,0.0,0.0,0.0,0.0,0.0,0.0,0.0,0.0,0.0,0.0,0.0,0.0,0.0,0.0,0.0,0.0,0.0,0.0,0.0,0.0,0.0,0.0,0.0,0.0,0.0,0.0,0.0,0.0,0.0,0.0,0.0,0.0,0.0,0.0,0.0,0.0,0.0,0.0,0.0,0.0,0.0,0.0,0.0,0.0,0.0,0.0,0.0,0.0,0.0,0.0,0.0,0.0,0.0,0.0,0.0,0.0,0.0,0.0,0.0,0.0,0.0,0.0,0.0,0.0,0.0,0.0,0.0,0.0,0.0,0.0,0.0,0.0,0.0,0.0,0.0,0.0,0.0,0.0,0.0,0.0,0.0,0.0,0.0,0.0,0.0,0.0,0.0,0.0,0.0,0.0,0.0,0.0,0.0,0.0,0.0,0.0,0.0,0.0,0.0,0.0,0.0,-0.7798,-0.8005,-0.8063,-0.7909,-0.7705,-0.7444,0.0,0.0,0.0,0.0,0.0,0.0,0.0,0.0,0.0,0.0,0.0,0.0,0.0,0.0,0.0,0.0,0.0,0.0,0.0,0.0,0.0,0.0,0.0,0.0,0.0,0.0,0.0,0.0,0.0,0.0,0.0,0.0,0.0,0.0,0.0,0.0,0.0,0.0,0.0,0.0,0.0,0.0,0.0,0.0,0.0,0.0,0.0,0.0,0.0,0.0,0.0,0.0,0.0,0.0,0.0,0.0,0.0,0.0,0.0,0.0,0.0,0.0,0.0,0.0,0.0,0.0,0.0,0.0,0.0,0.0,0.0,0.0,0.0,0.0,0.0,0.0,0.0,0.0,0.0,0.0,0.0,0.0,0.0,0.0,0.0,0.0,0.0,0.0,0.0,0.0,0.0,0.0,0.0,0.0,0.0,0.0,0.0,0.0,0.0,0.0,0.0,0.0,0.0,0.0,0.0,0.0,0.0,0.0,0.0,-0.7783,-0.7827,-0.7783,-0.7724,-0.7498,-0.7251,-0.6977,0.0,0.0,0.0,0.0,0.0,0.0,0.0,0.0,0.0,0.0,0.0,0.0,0.0,0.0,0.0,0.0,0.0,0.0,0.0,0.0,0.0,0.0,0.0,0.0,0.0,0.0,0.0,0.0,0.0,0.0,0.0,0.0,0.0,0.0,0.0,0.0,0.0,0.0,0.0,0.0,0.0,0.0,0.0,0.0,0.0,0.0,0.0,0.0,0.0,0.0,0.0,0.0,0.0,0.0,0.0,0.0,0.0,0.0,0.0,0.0,0.0,0.0,0.0,0.0,0.0,0.0,0.0,0.0,0.0,0.0,0.0,0.0,0.0,0.0,0.0,0.0,0.0,0.0,0.0,0.0,0.0,0.0,0.0,0.0,0.0,0.0,0.0,0.0,0.0,0.0,0.0,0.0,0.0,0.0,0.0,0.0,0.0,0.0,0.0,0.0,0.0,0.0,0.0,0.0,0.0,0.0,0.0,0.0,-0.7798,-0.7869,-0.7926,-0.7929,-0.7665,-0.7392,0.0,0.0,0.0,0.0,0.0,0.0,0.0,0.0,0.0,0.0,0.0,0.0,0.0,0.0,0.0,0.0,0.0,0.0,0.0,0.0,0.0,0.0,0.0,0.0,0.0,0.0,0.0,0.0,0.0,0.0,0.0,0.0,0.0,0.0,0.0,0.0,0.0,0.0,0.0,0.0,0.0,0.0,0.0,0.0,0.0,0.0,0.0,0.0,0.0,0.0,0.0,0.0,0.0,0.0,0.0,0.0,0.0,0.0,0.0,0.0,0.0,0.0,0.0,0.0,0.0,0.0,0.0,0.0,0.0,0.0,0.0,0.0,0.0,0.0,0.0,0.0,0.0,0.0,0.0,0.0,0.0,0.0,0.0,0.0,0.0,0.0,0.0,0.0,0.0,0.0,0.0,0.0,0.0,0.0,0.0,0.0,0.0,0.0,0.0,0.0,0.0,0.0,0.0,0.0,0.0,0.0,0.0,0.0,0.0,-0.7724,-0.7985,-0.8142,-0.8114,-0.7899,-0.7694,0.0,0.0,0.0,0.0,0.0,0.0,0.0,0.0,0.0,0.0,0.0,0.0,0.0,0.0,0.0,0.0,0.0,0.0,0.0,0.0,0.0,0.0,0.0,0.0,0.0,0.0,0.0,0.0,0.0,0.0,0.0,0.0,0.0,0.0,0.0,0.0,0.0,0.0,0.0,0.0,0.0,0.0,0.0,0.0,0.0,0.0,0.0,0.0,0.0,0.0,0.0,0.0,0.0,0.0,0.0,0.0,0.0,0.0,0.0,0.0,0.0,0.0,0.0,0.0,0.0,0.0,0.0,0.0,0.0,0.0,0.0,0.0,0.0,0.0,0.0,0.0,0.0,0.0,0.0,0.0,0.0,0.0,0.0,0.0,0.0,0.0,0.0,0.0,0.0,0.0,0.0,0.0,0.0,0.0,0.0,0.0,0.0,0.0,0.0,0.0,0.0,0.0,0.0,0.0,0.0,0.0,0.0,0.0,-0.756,-0.7694,-0.797,-0.8168,-0.8238,-0.8057,-0.787,0.0,0.0,0.0,0.0,0.0,0.0,0.0,0.0,0.0,0.0,0.0,0.0,0.0,0.0,0.0,0.0,0.0,0.0,0.0,0.0,0.0,0.0,0.0,0.0,0.0,0.0,0.0,0.0,0.0,0.0,0.0,0.0,0.0,0.0,0.0,0.0,0.0,0.0,0.0,0.0,0.0,0.0,0.0,0.0,0.0,0.0,0.0,0.0,0.0,0.0,0.0,0.0,0.0,0.0,0.0,0.0,0.0,0.0,0.0,0.0,0.0,0.0,0.0,0.0,0.0,0.0,0.0,0.0,0.0,0.0,0.0,0.0,0.0,0.0,0.0,0.0,0.0,0.0,0.0,0.0,0.0,0.0,0.0,0.0,0.0,0.0,0.0,0.0,0.0,0.0,0.0,0.0,0.0,0.0,0.0,0.0,0.0,0.0,0.0,0.0,0.0,0.0,0.0,0.0,0.0,0.0,0.0,0.0,-0.7498,-0.7694,-0.7898,-0.8094,-0.8261,-0.8111,-0.7985,0.0,0.0,0.0,0.0,0.0,0.0,0.0,0.0,0.0,0.0,0.0,0.0,0.0,0.0,0.0,0.0,0.0,0.0,0.0,0.0,0.0,0.0,0.0,0.0,0.0,0.0,0.0,0.0,0.0,0.0,0.0,0.0,0.0,0.0,0.0,0.0,0.0,0.0,0.0,0.0,0.0,0.0,0.0,0.0,0.0,0.0,0.0,0.0,0.0,0.0,0.0,0.0,0.0,0.0,0.0,0.0,0.0,0.0,0.0,0.0,0.0,0.0,0.0,0.0,0.0,0.0,0.0,0.0,0.0,0.0,0.0,0.0,0.0,0.0,0.0,0.0,0.0,0.0,0.0,0.0,0.0,0.0,0.0,0.0,0.0,0.0,0.0,0.0,0.0,0.0,0.0,0.0,0.0,0.0,0.0,0.0,0.0,0.0,0.0,0.0,0.0,0.0,0.0,0.0,0.0,0.0,0.0,0.0,-0.7469,-0.7635,-0.7912,-0.8108,-0.822,-0.818,-0.8109,0.0,0.0,0.0,0.0,0.0,0.0,0.0,0.0,0.0,0.0,0.0,0.0,0.0,0.0,0.0,0.0,0.0,0.0,0.0,0.0,0.0,0.0,0.0,0.0,0.0,0.0,0.0,0.0,0.0,0.0,0.0,0.0,0.0,0.0,0.0,0.0,0.0,0.0,0.0,0.0,0.0,0.0,0.0,0.0,0.0,0.0,0.0,0.0,-0.105,0.0,0.0,0.0,0.0,0.0,0.0,0.0,0.0,0.0,0.0,0.0,0.0,0.0,0.0,0.0,0.0,0.0,0.0,0.0,0.0,0.0,0.0,0.0,0.0,0.0,0.0,0.0,0.0,0.0,0.0,0.0,0.0,0.0,0.0,0.0,0.0,0.0,0.0,0.0,0.0,0.0,0.0,0.0,0.0,0.0,0.0,0.0,0.0,0.0,0.0,0.0,0.0,0.0,0.0,0.0,0.0,0.0,0.0,0.0,-0.7453,-0.7694,-0.7926,-0.8108,-0.8243,-0.8243,-0.8205,0.0,0.0,0.0,0.0,0.0,0.0,0.0,0.0,0.0,0.0,0.0,0.0,0.0,0.0,0.0,0.0,0.0,0.0,0.0,0.0,0.0,0.0,0.0,0.0,0.0,0.0,0.0,0.0,0.0,0.0,0.0,0.0,0.0,0.0,0.0,0.0,0.0,0.0,0.0,0.0,0.0,0.0,0.0,0.0,0.0,0.0,0.0,0.0,0.0,0.0,0.0,0.0,0.0,0.0,0.0,0.0,0.0,0.0,0.0,0.0,0.0,0.0,0.0,0.0,0.0,0.0,0.0,0.0,0.0,0.0,0.0,0.0,0.0,0.0,0.0,0.0,0.0,0.0,0.0,0.0,0.0,0.0,0.0,0.0,0.0,0.0,0.0,0.0,0.0,0.0,0.0,0.0,0.0,0.0,0.0,0.0,0.0,0.0,0.0,0.0,0.0,0.0,0.0,0.0,0.0,0.0,0.0,-0.7219,-0.7484,-0.7812,-0.7955,-0.8121,-0.8309,-0.8306,-0.8285,-0.8209,0.0,0.0,0.0,0.0,0.0,0.0,0.0,0.0,0.0,0.0,0.0,0.0,0.0,0.0,0.0,0.0,0.0,0.0,0.0,0.0,0.0,0.0,0.0,0.0,0.0,0.0,0.0,0.0,0.0,0.0,0.0,0.0,0.0,0.0,0.0,0.0,0.0,0.0,0.0103,-0.0787,0.0,0.0,0.0,0.0,0.0,0.0,0.0,0.0,-0.1869,0.0,0.0,0.0,0.0,0.0,0.0,0.0,0.0,0.0,0.0,0.0,0.0,0.0,0.0,0.0,0.0,0.0,0.0,0.0,0.0,0.0,0.0,0.0,0.0,0.0,0.0,0.0,0.0,0.0,0.0,0.0,0.0,0.0,0.0,0.0,0.0,0.0,0.0,0.0,0.0,0.0,0.0,0.0,0.0,0.0,0.0,0.0,0.0,0.0,0.0,0.0,0.0,0.0,0.0,0.0,0.0,-0.6977,-0.7314,-0.7635,-0.7957,-0.8111,-0.8247,-0.8382,-0.8377,-0.8348,-0.8267,0.0,0.0,0.0,0.0,0.0,0.0,0.0,0.0,0.0,0.0,0.0,0.0,0.0,0.0,0.0,0.0,0.0,0.0,0.0,0.0,0.0,0.0,0.0,0.0,0.0,0.0,0.0,0.0,0.0,0.0,0.0,0.0,0.0,0.0,0.0,0.0,0.0,0.0,0.0,-0.1281,-0.183,0.0,0.0,0.0,0.0,0.0,0.0,0.0,0.0,-0.2311,0.0,0.0,0.0,0.0,0.0,0.0,0.0,0.0,0.0,0.0,0.0,0.0,0.0,0.0,0.0,0.0,0.0,0.0,0.0,0.0,0.0,0.0,0.0,0.0,0.0,0.0,0.0,0.0,0.0,0.0,0.0,0.0,0.0,0.0,0.0,0.0,0.0,0.0,0.0,0.0,0.0,0.0,0.0,0.0,0.0,0.0,0.0,0.0,0.0,0.0,0.0,0.0,0.0,0.0,0.0,-0.6993,-0.7282,-0.7635,-0.7971,-0.814,-0.829,-0.8447,-0.8457,-0.8415,0.0,0.0,0.0,0.0,0.0,0.0,0.0,0.0,0.0,0.0,0.0,0.0,0.0,0.0,0.0,0.0,0.0,0.0,0.0,0.0,0.0,0.0,0.0,0.0,0.0,0.0,0.0,0.0,0.0,0.0,0.0,0.0,0.0,0.0,0.0,0.0,0.0,0.0,0.0,0.0,-0.1641,-0.2176,-0.2606,0.0,0.0,0.0,0.0,0.0,0.0,-0.307,-0.2805,0.0,0.0,0.0,0.0,0.0,0.0,0.0,0.0,0.0,0.0,0.0,0.0,0.0,0.0,0.0,0.0,0.0,0.0,0.0,0.0,0.0,0.0,0.0,0.0,0.0,0.0,0.0,0.0,0.0,0.0,0.0,0.0,0.0,0.0,0.0,0.0,0.0,0.0,0.0,0.0,0.0,0.0,0.0,0.0,0.0,0.0,0.0,0.0,0.0,0.0,0.0,0.0,0.0,0.0,0.0,-0.6772,-0.7056,-0.7373,-0.7759,-0.7926,-0.8162,-0.847,-0.8479,-0.8467,0.0,0.0,0.0,0.0,0.0,0.0,0.0,0.0,0.0,0.0,0.0,0.0,0.0,0.0,0.0,0.0,0.0,0.0,0.0,0.0,0.0,0.0,0.0,0.0,0.0,0.0,0.0,0.0,0.0,0.0,0.0,0.0,0.0,0.0,0.0,0.0,0.0,0.0,0.0,0.0,0.0,-0.2466,-0.281,-0.3025,0.0,0.0,0.0,0.0,-0.3738,-0.354,0.0,0.0,0.0,0.0,0.0,0.0,0.0,0.0,0.0,0.0,0.0,0.0,0.0,0.0,0.0,0.0,0.0,0.0,0.0,0.0,0.0,0.0,0.0,0.0,0.0,0.0,0.0,0.0,0.0,0.0,0.0,0.0,0.0,0.0,0.0,0.0,0.0,0.0,0.0,0.0,0.0,0.0,0.0,0.0,0.0,0.0,0.0,0.0,0.0,0.0,0.0,0.0,0.0,0.0,0.0,0.0,-0.6044,-0.6307,-0.6616,-0.701,-0.7212,-0.7662,-0.8393,-0.847,-0.8483,0.0,0.0,0.0,0.0,0.0,0.0,0.0,0.0,0.0,0.0,0.0,0.0,0.0,0.0,0.0,0.0,0.0,0.0,0.0,0.0,0.0,0.0,0.0,0.0,0.0,0.0,0.0,0.0,0.0,0.0,0.0,0.0,0.0,0.0,0.0,0.0,0.0,0.0,0.0,0.0,0.0,-0.2627,-0.3025,-0.3239,-0.3338,0.0,0.0,-0.3668,-0.4151,-0.4078,0.0,0.0,0.0,0.0,0.0,0.0,0.0,0.0,0.0,0.0,0.0,0.0,0.0,0.0,0.0,0.0,0.0,0.0,0.0,0.0,0.0,0.0,0.0,0.0,0.0,0.0,0.0,0.0,0.0,0.0,0.0,0.0,0.0,0.0,0.0,0.0,0.0,0.0,0.0,0.0,0.0,0.0,0.0,0.0,0.0,0.0,0.0,0.0,0.0,0.0,0.0,0.0,0.0,0.0,0.0,-0.5969,-0.5805,-0.5971,-0.6078,-0.6111,-0.6299,-0.6822,-0.7624,-0.7723,-0.7897,0.0,0.0,0.0,0.0,0.0,0.0,0.0,0.0,0.0,0.0,0.0,0.0,0.0,0.0,0.0,0.0,0.0,0.0,0.0,0.0,0.0,0.0,0.0,0.0,0.0,0.0,0.0,0.0,0.0,0.0,0.0,0.0,0.0,0.0,0.0,0.0,0.0,0.0,0.0,0.0,0.0,0.0,-0.3415,-0.3671,0.0,0.0,0.0,-0.3996,-0.4511,0.0,0.0,0.0,0.0,0.0,0.0,0.0,0.0,0.0,0.0,0.0,0.0,0.0,0.0,0.0,0.0,0.0,0.0,0.0,0.0,0.0,0.0,0.0,0.0,0.0,0.0,0.0,0.0,0.0,0.0,0.0,0.0,0.0,0.0,0.0,0.0,0.0,0.0,0.0,0.0,0.0,0.0,0.0,0.0,0.0,0.0,0.0,0.0,0.0,0.0,0.0,0.0,0.0,0.0,0.0,0.0,0.0,-0.5443,-0.5536,-0.5476,-0.5229,-0.5389,-0.5881,-0.6694,-0.6866,0.0,0.0,0.0,0.0,0.0,0.0,0.0,0.0,0.0,0.0,0.0,0.0,0.0,0.0,0.0,0.0,0.0,0.0,0.0,0.0,0.0,0.0,0.0,0.0,0.0,0.0,0.0,-0.1389,0.0,0.0,0.0,0.0,0.0,0.0,0.0,0.0,0.0,0.0,0.0,0.0,0.0,0.0,-0.3267,-0.3758,-0.4042,-0.4164,0.0,0.0,-0.4305,-0.4784,-0.4731,-0.4635,0.0,0.0,0.0,0.0,0.0,0.0,0.0,0.0,0.0,0.0,0.0,0.0,0.0,0.0,0.0,0.0,0.0,0.0,0.0,0.0,0.0,0.0,0.0,0.0,0.0,0.0,0.0,0.0,0.0,0.0,0.0,0.0,0.0,0.0,0.0,0.0,0.0,0.0,0.0,0.0,0.0,0.0,0.0,0.0,0.0,0.0,0.0,0.0,0.0,0.0,0.0,0.0,0.0,0.0,0.0,-0.4709,-0.4744,-0.4659,-0.4404,-0.4577,-0.5004,-0.5674,-0.6067,-0.6296,0.0,0.0,0.0,0.0,0.0,0.0,0.0,0.0,0.0,0.0,0.0,0.0,0.0,0.0,0.0,0.0,0.0,0.0,0.0,0.0,0.0,0.0,0.0,0.0,0.0,0.0,0.0,0.0,0.0,0.0,0.0,0.0,0.0,0.0,0.0,0.0,0.0,0.0,0.0,0.0,0.0,-0.3489,-0.386,-0.4285,-0.4471,0.0,0.0,-0.4601,-0.4926,-0.5019,-0.5,-0.4803,0.0,0.0,0.0,0.0,0.0,0.0,0.0,0.0,0.0,0.0,0.0,0.0,0.0,0.0,0.0,0.0,0.0,0.0,0.0,0.0,0.0,0.0,0.0,0.0,0.0,0.0,0.0,0.0,0.0,0.0,0.0,0.0,0.0,0.0,0.0,0.0,0.0,0.0,0.0,0.0,0.0,0.0,0.0,0.0,0.0,0.0,0.0,0.0,0.0,0.0,0.0,0.0,0.0,-0.6005,-0.5296,-0.4945,-0.4597,-0.4226,-0.3915,-0.3996,-0.4474,-0.4479,-0.4732,0.0,0.0,0.0,0.0,0.0,0.0,0.0,0.0,0.0,0.0,0.0,0.0,0.0,0.0,0.0,0.0,0.0,0.0,0.0,0.0,0.0,0.0,0.0,0.0,0.0,0.0,0.0,0.0,-0.1621,-0.1726,-0.1903,0.0,0.0,0.0,0.0,0.0,0.0,0.0,0.0,0.0,0.0,-0.3839,-0.4396,-0.4528,0.0,0.0,-0.4755,-0.4731,-0.5007,-0.5088,-0.5165,-0.528,-0.5262,0.0,0.0,0.0,0.0,0.0,0.0,0.0,0.0,0.0,0.0,0.0,0.0,0.0,0.0,0.0,0.0,0.0,0.0,0.0,0.0,0.0,0.0,0.0,0.0,0.0,0.0,0.0,0.0,0.0,0.0,0.0,0.0,0.0,0.0,0.0,0.0,0.0,0.0,0.0,0.0,0.0,0.0,0.0,0.0,0.0,0.0,0.0,0.0,0.0,0.0,0.0,0.0,-0.638,-0.5835,-0.5456,-0.4921,-0.4294,-0.377,-0.3449,-0.3346,-0.3116,-0.3205,0.0,0.0,0.0,0.0,0.0,0.0,0.0,0.0,0.0,0.0,0.0,0.0,0.0,0.0,0.0,0.0,0.0,0.0,0.0,0.0,0.0,0.0,0.0,0.0,0.0,0.0,0.0,0.0,-0.2043,-0.2117,-0.2351,0.0,0.0,0.0,0.0,0.0,0.0,0.0,0.0,0.0,0.0,-0.4563,-0.5023,-0.5029,-0.5095,-0.5403,-0.5361,-0.5383,-0.5625,-0.5587,-0.5594,-0.5838,0.0,0.0,0.0,0.0,0.0,0.0,0.0,0.0,0.0,0.0,0.0,0.0,0.0,0.0,0.0,0.0,0.0,0.0,0.0,0.0,0.0,0.0,0.0,0.0,0.0,0.0,0.0,0.0,0.0,0.0,-0.5964,0.0,0.0,0.0,0.0,0.0,0.0,0.0,0.0,0.0,0.0,0.0,0.0,0.0,0.0,0.0,0.0,0.0,0.0,0.0,0.0,0.0,0.0,-0.6736,-0.6228,-0.6228,-0.5696,-0.4566,-0.4284,-0.3595,-0.2424,-0.2137,-0.1884,-0.1597,0.0,0.0,0.0,0.0,0.0,0.0,0.0,0.0,0.0,0.0,0.0,0.0,0.0,0.0,0.0,0.0,0.0,0.0,0.0,0.0,0.0,0.0,0.0,0.0,0.0,0.0,-0.2953,-0.2853,-0.2774,0.0,0.0,0.0,0.0,0.0,0.0,0.0,0.0,0.0,0.0,-0.5589,-0.5724,-0.5692,-0.5799,-0.5764,-0.555,-0.6151,-0.6705,-0.6886,-0.6683,-0.6489,0.0,0.0,0.0,0.0,0.0,0.0,0.0,0.0,0.0,0.0,0.0,0.0,0.0,0.0,0.0,0.0,0.0,0.0,0.0,0.0,0.0,0.0,0.0,0.0,0.0,0.0,0.0,-0.6821,-0.6932,0.0,0.0,0.0,0.0,0.0,0.0,0.0,0.0,0.0,0.0,0.0,-0.9506,-1.0179,0.0,0.0,0.0,0.0,0.0,0.0,0.0,0.0,0.0,0.0,0.0,0.0,-0.7309,-0.7127,-0.6813,-0.641,-0.5954,-0.4917,-0.3861,-0.2908,-0.1764,-0.0965,-0.0577,0.0,0.0,0.0,0.0,0.0,0.0,0.0,0.0,0.0,0.0,0.0,0.0,0.0,0.0,0.0,0.0,0.0,0.0,0.0,0.0,0.0,0.0,0.0,0.0,0.0,-0.3947,0.0,0.0,0.0,0.0,0.0,0.0,0.0,0.0,0.0,0.0,0.0,-0.5021,-0.6592,-0.626,-0.5952,-0.612,-0.6092,-0.6053,0.0,0.0,0.0,0.0,0.0,0.0,0.0,0.0,0.0,0.0,0.0,0.0,0.0,0.0,-0.6369,-0.526,-0.5075,-0.4963,-0.4678,0.0,0.0,0.0,0.0,0.0,0.0,0.0,0.0,0.0,0.0,0.0,0.0,0.0,0.0,0.0,0.0,-0.8409,0.0,0.0,0.0,0.0,0.0,0.0,0.0,0.0,-0.9239,-0.9893,-1.0494,-1.1169,-1.1271,0.0,-1.0969,-1.0371,0.0,0.0,0.0,0.0,0.0,0.0,0.0,0.0,-0.7739,-0.7709,-0.7452,-0.7135,-0.6802,-0.553,-0.4368,-0.3331,-0.1284,0.001,0.0399,-0.0057,-0.0821,0.0,0.0,0.0,0.0,0.0,0.0,0.0,0.0,0.0,0.0,0.0,0.0,0.0,0.0,0.0,0.0,0.0,0.0,0.0,0.0,0.0,0.0,0.0,-0.4526,0.0,0.0,0.0,0.0,0.0,0.0,0.0,0.0,0.0,-0.4357,-0.5019,-0.6081,-0.7463,-0.7025,-0.6618,-0.6804,0.0,0.0,0.0,0.0,0.0,0.0,0.0,-0.7672,-0.7935,-0.8084,-0.8246,-0.8408,-0.8434,-0.835,-0.821,0.0,0.0,-0.654,-0.6327,-0.6297,-0.6029,-0.583,-0.5692,-0.581,-0.5848,-0.5969,0.0,0.0,0.0,0.0,0.0,0.0,0.0,0.0,-1.0543,-1.0623,0.0,-1.0573,0.0,0.0,0.0,0.0,0.0,-0.9111,0.0,0.0,-1.0143,-1.0626,-1.0887,-1.1506,-1.1811,-1.1805,-1.1918,-1.1647,-1.0989,-1.0318,0.0,0.0,0.0,0.0,0.0,0.0,-0.8026,-0.8011,-0.8125,-0.7856,-0.7166,-0.622,-0.505,-0.355,-0.0753,0.0955,0.1359,0.1203,0.0576,-0.0587,-0.1987,0.0,0.0,0.0,0.0,0.0,0.0,0.0,0.0,0.0,0.0,0.0,0.0,0.0,0.0,0.0,0.0,0.0,0.0,0.0,0.0,-0.413,0.0,0.0,0.0,0.0,0.0,0.0,0.0,0.0,0.0,0.0,-0.6353,-0.6624,-0.7088,-0.7838,0.0,0.0,0.0,0.0,-0.784,-0.7878,-0.808,-0.8308,-0.8578,-0.8662,-0.875,-0.8903,0.0,0.0,-0.9319,-0.9437,-0.9425,-0.9177,-0.9123,-0.8881,-0.8019,-0.7809,-0.7742,-0.7569,-0.723,-0.7106,-0.7339,-0.7303,-0.7347,-1.2131,0.0,0.0,0.0,0.0,-1.1613,-1.1753,-1.1896,-1.1557,-1.1449,-1.1532,-1.0976,0.0,0.0,0.0,0.0,0.0,0.0,-0.9807,-1.0303,-1.0683,-1.1152,-1.1739,-1.1978,-1.2091,-1.2091,-1.2123,-1.2072,-1.1911,-1.1859,-1.1283,-1.023,0.0,0.0,0.0,0.0,-0.8791,-0.8265,-0.8303,-0.8222,-0.7966,-0.719,-0.5562,-0.3095,-0.0817,0.0748,0.1503,0.1625,0.1416,0.0807,-0.0857,0.0,0.0,0.0,0.0,0.0,0.0,0.0,0.0,0.0,0.0,0.0,0.0,0.0,0.0,0.0,0.0,0.0,0.0,0.0,-0.5045,-0.5505,-0.5751,0.0,0.0,0.0,0.0,0.0,0.0,0.0,0.0,0.0,-0.7695,-0.7635,-0.7878,0.0,0.0,-0.8269,-0.8184,-0.828,-0.8382,-0.8417,-0.8557,0.0,0.0,-0.9155,-0.9316,-0.9449,-0.9686,-0.9906,-1.0021,-1.0072,-1.0097,-0.9957,-0.9919,-0.9752,-0.9439,-0.8919,-0.8612,-0.8563,-0.8481,-0.8415,-0.8464,-0.847,-0.848,-1.3381,-1.2795,-1.2863,-1.2711,-1.251,-1.2686,-1.272,-1.2652,-1.2376,-1.2319,-1.2388,-1.1893,-1.1597,-1.1496,-1.1152,0.0,0.0,0.0,-1.0812,-1.1242,-1.1404,-1.1714,-1.2164,-1.2221,-1.2236,-1.2241,-1.2262,-1.2287,-1.2327,-1.2518,-1.2148,-1.127,0.0,0.0,-1.0304,-1.0093,-0.9597,-0.8868,-0.8847,-0.8703,-0.838,-0.7568,-0.5888,-0.3252,-0.1693,-0.0185,0.1353,0.2218,0.2367,0.1777,0.0657,-0.0577,0.0,0.0,0.0,0.0,0.0,0.0,0.0,0.0,0.0,0.0,0.0,-0.2243,-0.2442,0.0,0.0,0.0,-0.3211,-0.4322,-0.622,-0.6553,0.0,0.0,0.0,0.0,0.0,0.0,0.0,-0.7866,-0.8745,-0.922,-0.8845,-0.8717,-0.8773,-0.9097,-0.8949,-0.88,-0.8717,0.0,-0.8937,-0.8996,-0.9131,-0.9277,-0.9449,-0.9621,-0.9841,-1.0034,-1.0198,-1.0373,-1.0556,-1.0629,-1.0678,-1.0653,-1.0581,-1.0483,-1.0373,-0.9919,-0.9504,-0.9396,-0.9357,-0.9345,-0.9292,-0.9319,-0.9319,-1.4316,-1.4006,-1.4146,-1.38,-1.3222,-1.349,-1.3361,-1.3008,-1.3193,-1.3252,-1.3289,-1.3166,-1.3026,-1.2852,-1.2431,0.0,-1.1933,-1.1933,-1.194,-1.2033,-1.2153,-1.2257,-1.2287,-1.2323,-1.2307,-1.2323,-1.2399,-1.2403,-1.2419,-1.2542,-1.2623,-1.2687,-1.2178,-1.1839,-1.1692,-1.1108,-1.0441,-0.9713,-0.9695,-0.9338,-0.8618,-0.7644,-0.6116,-0.4011,-0.3095,-0.1523,0.0844,0.2659,0.324,0.2383,0.2309,0.1377,-0.0642,0.0,0.0,0.0,0.0,0.0,0.0,0.0,0.0,0.0,0.0,0.0,0.0,0.0,0.0,0.0,-0.4385,0.0,-0.6744,-0.7382,0.0,0.0,0.0,-0.7996,-0.8044,-0.8984,-0.9347,-0.8597,0.0,0.0,-0.9798,-0.9733,-0.9692,-0.9603,-0.9446,-0.9328,-0.9286,-0.9381,-0.9528,-0.9647,-0.9712,-0.984,-0.9995,-1.016,-1.0348,-1.0534,-1.0694,-1.0801,-1.0991,-1.1085,-1.1155,-1.1224,-1.1132,-1.1029,-1.0968,-1.0753,-1.051,-1.0097,-0.9995,-0.9957,-0.9944,-0.9957,-0.9919,-1.5086,-1.4929,-1.5499,-1.5047,-1.3976,-1.427,-1.4465,-1.4558,-1.4718,-1.4519,-1.4041,-1.4022,-1.354,-1.2741,-1.2597,-1.2363,-1.2143,-1.22,-1.2185,-1.2164,-1.2298,-1.2359,-1.2399,-1.2423,-1.2459,-1.2459,-1.2459,-1.2495,-1.2479,-1.2542,-1.2659,-1.2776,-1.274,-1.2434,-1.1876,-1.1761,-1.13,-1.0531,-1.0516,-1.0189,-0.9478,-0.8127,-0.6951,-0.6,-0.4021,-0.223,-0.0609,0.1212,0.2311,0.2527,0.3059,0.2727,0.1424,-0.0475,0.0,0.0,0.0,0.0,0.0,0.0,0.0,0.0,0.0,-0.2756,-0.3523,0.0,-0.3367,0.0,-0.5983,-0.7228,-0.7977,-0.7949,0.0,0.0,-0.9445,-0.9915,-1.0225,-1.0532,-1.0631,-1.0456,-1.0593,-1.0508,-1.0059,-1.0376,-1.0583,-1.0352,-1.0059,-0.9854,-0.9867,-1.0008,-1.011,-1.016,-1.0172,-1.0299,-1.0396,-1.0594,-1.0739,-1.0801,-1.0991,-1.1201,-1.1353,-1.1452,-1.149,-1.1571,-1.1527,-1.1423,-1.1376,-1.127,-1.1169,-1.0991,-1.0715,-1.0485,-1.0386,-1.0436,-1.0447,-1.5926,-1.5827,-1.6291,-1.6046,-1.5397,-1.528,-1.5204,-1.515,-1.5313,-1.5158,-1.4791,-1.4712,-1.4284,-1.356,-1.3207,-1.2941,-1.2728,-1.2468,-1.2323,-1.2287,-1.2383,-1.2439,-1.2439,-1.2495,-1.2514,-1.2514,-1.2514,-1.2514,-1.2534,-1.2581,-1.2713,-1.2848,-1.2977,-1.2852,-1.2506,-1.2506,-1.2157,-1.1378,-1.1066,-1.0551,-0.9862,-0.901,-0.8031,-0.6945,-0.576,-0.4066,-0.1877,-0.0342,0.0826,0.1644,0.2876,0.3142,0.2154,-0.0237,-0.1889,0.0,0.0,0.0,0.0,0.0,0.0,0.0,0.0,0.0,0.0,0.0,-0.4904,-0.616,-0.7041,-0.7813,-0.844,-0.8725,-0.9233,-1.0103,-1.0683,-1.108,-1.1309,-1.1575,-1.1507,-1.0978,-1.1029,-1.0978,-1.0565,-1.0451,-1.0422,-1.0375,-0.9962,-0.9721,-0.9888,-1.0036,-1.005,-0.9859,-0.9841,-0.985,-1.0007,-1.0361,-1.0633,-1.0706,-1.1093,-1.1474,-1.1608,-1.1718,-1.1901,-1.2237,-1.2065,-1.191,-1.2119,-1.1867,-1.1608,-1.1564,-1.1392,-1.1141,-1.0897,-1.0897,-1.092,-1.6839,-1.6707,-1.6849,-1.693,-1.6912,-1.6362,-1.5883,-1.5536,-1.57,-1.567,-1.5504,-1.5237,-1.4978,-1.4693,-1.4052,-1.3664,-1.353,-1.2958,-1.267,-1.267,-1.2747,-1.2803,-1.2803,-1.2803,-1.2803,-1.2803,-1.2803,-1.2808,-1.2884,-1.2812,-1.2845,-1.3032,-1.3096,-1.3155,-1.3193,-1.321,-1.2908,-1.2239,-1.1536,-1.0848,-1.0222,-1.0112,-0.9237,-0.762,-0.7618,-0.6226,-0.3206,-0.2001,-0.0941,0.0088,0.1971,0.2671,0.1866,-0.0658,-0.2161,0.0,-0.2956,0.0,0.0,0.0,0.0,0.0,0.0,0.0,0.0,-0.568,-0.6726,-0.7651,-0.7679,-0.7939,-0.8692,-0.96,-1.0412,-1.1093,-1.1535,-1.1808,-1.1863,-1.2224,-1.2061,-1.1012,-1.1166,-1.1203,-1.0843,-1.0139,-0.9753,-0.9954,-0.9638,-0.9381,-0.9528,-0.9735,-0.9702,-0.9216,-0.9161,-0.932,-0.9447,-0.9958,-1.0391,-1.0512,-1.1132,-1.1688,-1.1811,-1.197,-1.2289,-1.295,-1.2605,-1.2399,-1.3044,-1.2497,-1.197,-1.1933,-1.1912,-1.1783,-1.1452,-1.1339,-1.1316,-1.7876,-1.7813,-1.7929,-1.7706,-1.7231,-1.7259,-1.7236,-1.7148,-1.7238,-1.6881,-1.6165,-1.543,-1.5,-1.4847,-1.4597,-1.4483,-1.4438,-1.4275,-1.4183,-1.4205,-1.4241,-1.4285,-1.4285,-1.4345,-1.4383,-1.4383,-1.4383,-1.4383,-1.4367,-1.388,-1.367,-1.3697,-1.3363,-1.319,-1.3193,0.0,0.0,0.0,-1.232,-1.1916,-1.1748,-1.1186,-1.0363,-0.9258,-0.8427,0.0,-0.5068,-0.3728,-0.2725,-0.2004,-0.0112,0.0,0.0,0.0,0.0,0.0,0.0,0.0,0.0,0.0,0.0,0.0,-0.669,-0.6187,-0.6212,-0.698,-0.7591,-0.7826,-0.7871,-0.8466,-0.9984,-1.0239,-1.0666,-1.1417,-1.1947,-1.2238,-1.2152,-1.2226,-1.215,-1.202,-1.1065,-1.0345,-1.0201,-0.9701,-0.9447,-0.9585,-0.9566,-0.9329,-0.8931,-0.9275,-0.9513,-0.9413,-0.9313,-0.9385,-0.9452,-1.0088,-1.0518,-1.0755,-1.1365,-1.1909,-1.2024,-1.2179,-1.2536,-1.3314,-1.2895,-1.267,-1.3308,-1.2806,-1.2329,-1.2257,-1.2257,-1.2102,-1.1703,-1.1674,-1.1652,-1.8907,0.0,-1.9003,-1.8849,0.0,-1.8717,-1.879,-1.8723,-1.799,-1.7394,-1.6815,-1.6377,-1.6091,-1.5911,-1.5477,-1.5254,-1.5224,-1.4865,-1.4676,-1.4699,-1.4745,-1.4751,-1.4751,-1.479,-1.4806,-1.4806,-1.4806,-1.4834,-1.4831,-1.4541,-1.4446,-1.4591,-1.438,-1.4293,-1.4336,-1.4071,-1.3717,-1.3312,-1.2974,-1.2636,-1.2266,-1.1893,-1.1261,-1.0324,0.0,0.0,0.0,0.0,0.0,0.0,0.0,0.0,0.0,0.0,0.0,-0.2226,-0.3041,-0.3607,-0.3708,-0.4719,-0.6064,-0.7694,-0.7613,-0.739,-0.7307,-0.7661,-0.8063,-0.8485,-0.9413,-1.0251,-1.0781,-1.115,-1.1591,-1.2216,-1.2444,-1.2516,-1.2497,-1.2449,-1.2144,-1.1502,-1.0792,-1.0232,-0.9899,-0.9354,-0.9101,-0.9181,-0.8952,-0.8735,-0.8483,-0.8817,-0.9087,-0.8764,-0.8672,-0.8821,-0.923,-0.9639,-1.0298,-1.0806,-1.1576,-1.2118,-1.2266,-1.2675,-1.3256,-1.3978,-1.3924,-1.3876,-1.4042,-1.3626,-1.3131,-1.3091,-1.3091,-1.3172,-1.3159,-1.286,-1.244,-1.995,-1.9977,-2.0013,-1.9999,-1.995,-1.9984,-1.9993,-1.9875,0.0,0.0,0.0,-1.756,-1.7387,-1.7178,-1.6467,-1.608,-1.5992,-1.5438,-1.5174,-1.5174,-1.5181,-1.5181,-1.5181,-1.5204,-1.5204,-1.5243,-1.522,-1.5273,-1.532,-1.5228,-1.5288,-1.5475,-1.5437,-1.5456,-1.5469,-1.4967,-1.4394,-1.3803,-1.3532,-1.3125,-1.2517,-1.2483,-1.2049,-1.1144,-1.0847,-1.0033,-0.8672,-0.8127,-0.7322,-0.6227,-0.5435,-0.5184,-0.5544,-0.5958,-0.5189,-0.3075,-0.4041,-0.4937,-0.5289,-0.6098,-0.6935,-0.768,-0.8027,-0.8169,-0.8057,-0.8043,-0.8437,-0.9406,-1.1172,-1.2024,-1.1539,-1.2019,-1.2541,-1.2862,-1.275,-1.2614,-1.2501,-1.2394,-1.1807,-1.0737,-1.0348,-1.0146,-0.9662,-0.9028,-0.8662,-0.8682,-0.8439,-0.8055,-0.81,-0.8409,-0.8497,-0.8124,-0.8035,-0.8169,-0.8864,-0.9507,-1.0002,-1.1011,-1.182,-1.2423,-1.278,-1.3299,-1.4078,-1.5022,-1.5076,-1.4962,-1.5038,-1.4518,-1.4084,-1.4141,-1.4157,-1.4279,-1.4643,-1.4266,-1.3659,-2.0972,-2.1015,-2.0998,-2.0653,-2.0044,-2.0018,-1.9925,-1.9814,-1.9596,-1.9427,-1.9227,-1.8557,-1.8201,-1.8081,-1.7295,-1.6921,-1.6896,-1.6699,-1.66,0.0,-1.6683,-1.6708,-1.6708,-1.6742,-1.6816,-1.6857,-1.6873,-1.6889,-1.6904,-1.6423,-1.6216,-1.6177,-1.5737,-1.5536,-1.5559,-1.5494,-1.5392,-1.5257,-1.4022,-1.3345,-1.3261,-1.3261,-1.2856,-1.2069,-1.1907,-1.1367,-1.0287,-1.0065,-0.9576,-0.8728,-0.7931,-0.7519,-0.7533,-0.6728,-0.5964,-0.5494,-0.5185,-0.5793,-0.7451,-0.7009,-0.6981,-0.7865,-0.818,-0.8247,-0.8193,-0.818,-0.8936,-1.0716,-1.1835,-1.2522,-1.2552,-1.2622,-1.2591,-1.2549,-1.2484,-1.2184,-1.1473,-1.1337,-1.0989,-1.0121,-0.9523,-0.9297,-0.9188,-0.8697,-0.8326,-0.8321,-0.83,-0.8245,-0.8232,-0.8173,-0.8105,-0.8013,-0.797,-0.8317,-0.9235,-1.0203,-1.1041,-1.1363,-1.2148,-1.2983,-1.3661,-1.4002,-1.462,-1.5907,-1.543,-1.519,-1.5885,-1.526,-1.4887,-1.5052,-1.5102,-1.5147,-1.5222,-1.5356,-1.5256,-2.1895,-2.1895,-2.1868,-2.1637,-2.1358,-2.1278,-2.1164,-2.0994,-2.0977,-2.0433,-1.9541,-1.9141,-1.8966,-1.8886,-1.8522,-1.8323,-1.8286,-1.8232,-1.8162,-1.8151,-1.8205,-1.8248,-1.8232,-1.8296,-1.8365,-1.8375,-1.8018,-1.7888,-1.7873,-1.7316,-1.7019,-1.7071,-1.6845,-1.6555,-1.6224,-1.6245,-1.6078,-1.5637,-1.4954,-1.4394,-1.4005,-1.3988,-1.3616,-1.2873,-1.279,-1.2356,-1.1495,-1.1415,-1.1007,-1.0209,-0.9567,-0.8966,-0.8369,-0.818,-0.7793,-0.7082,-0.6642,-0.6937,-0.8142,-0.7719,-0.7633,-0.8115,-0.8272,-0.8353,-0.8361,-0.8338,-0.9047,-1.0768,-1.2079,-1.2829,-1.2818,-1.2236,-1.1907,-1.2086,-1.1723,-1.127,-1.09,-1.0767,-1.0432,-0.9746,-0.9359,-0.9049,-0.8681,-0.8458,-0.833,-0.8338,-0.8406,-0.8419,-0.8447,-0.8777,-0.8932,-0.8766,-0.84,-0.8892,-1.0272,-1.2173,-1.3092,-1.2997,-1.3557,-1.4196,-1.4781,-1.5054,-1.5716,-1.6378,-1.6302,-1.633,-1.6646,-1.6492,-1.629,-1.5992,-1.6063,-1.6105,-1.6376,-1.6598,-1.6362,-2.2552,-2.2542,-2.246,-2.2405,-2.2377,-2.231,-2.2209,-2.2044,-2.2044,-2.1306,-2.0141,-1.9855,-1.9734,-1.9679,-1.9504,-1.9394,-1.9355,-1.9328,-1.9272,-1.9256,-1.93,-1.9344,-1.9372,-1.9411,-1.9449,-1.9427,-1.8937,-1.8766,-1.8734,-1.8309,-1.8021,-1.7979,-1.8025,-1.7676,-1.6974,-1.7012,-1.6765,-1.624,-1.6163,-1.5702,-1.4819,-1.4768,-1.4497,-1.3938,-1.3852,-1.3548,-1.3025,-1.2823,-1.2351,-1.161,-1.104,-1.0263,-0.9267,-0.9544,-0.9607,-0.9154,-0.8711,-0.8479,-0.8584,-0.8346,-0.8229,-0.8348,-0.8406,-0.847,-0.8522,-0.8497,-0.9113,-1.0647,-1.224,-1.3037,-1.2653,-1.1758,-1.1191,-1.1548,-1.1091,-1.0702,-1.0509,-1.0351,-0.997,-0.9348,-0.9145,-0.8863,-0.8424,-0.8364,-0.847,-0.853,-0.8558,-0.8591,-0.8818,-0.9476,-0.9776,-0.9882,-0.9534,-1.009,-1.1875,-1.3714,-1.4724,-1.4472,-1.4911,-1.5358,-1.5761,-1.6326,-1.677,-1.7016,-1.7453,-1.7504,-1.719,-1.7445,-1.7552,-1.716,-1.7033,-1.7139,-1.7406,-1.7356,-1.7134,-2.2755,-2.2659,-2.2593,-2.2405,-2.2327,-2.2327,-2.2254,-2.2197,-2.2168,-2.2056,-2.1607,-2.0927,-2.0572,-2.0489,-1.986,-1.9569,-1.9526,-1.9438,-1.9416,-1.9432,-1.9411,-1.9454,-1.9619,-1.9613,-1.9644,-1.9784,-1.971,-1.9686,-1.9755,-1.9698,-1.9403,-1.8877,-1.8792,-1.8466,-1.7866,-1.7781,-1.7791,-1.7778,-1.7778,-1.7058,-1.5675,-1.559,-1.552,-1.5409,-1.5375,-1.5414,-1.5216,-1.4687,-1.3973,-1.329,-1.2559,-1.1749,-1.095,-1.0402,-1.0974,-1.2778,-1.1898,-1.0845,-0.9699,-0.8889,-0.8549,-0.8485,-0.8636,-0.8686,-0.8734,-0.8684,-0.9305,-1.0884,-1.2452,-1.3025,-1.2334,-1.1567,-1.1062,-1.1052,-1.0893,-1.076,-1.0203,-0.9922,-0.9463,-0.8679,-0.8666,-0.8512,-0.8444,-0.8504,-0.8616,-0.8771,-0.8816,-0.9048,-0.9594,-0.9902,-1.0383,-1.1245,-1.2019,-1.2638,-1.3261,-1.4141,-1.5269,-1.5541,-1.5627,-1.6094,-1.6703,-1.6981,-1.715,-1.7738,-1.8031,-1.8048,-1.8048,-1.8194,-1.8176,-1.7966,-1.7851,-1.789,-1.7816,-1.7658,-1.7408,-2.3448,-2.3446,-2.371,-2.3471,-2.2936,-2.2496,-2.2254,-2.2197,-2.2197,-2.2123,-2.1965,-2.1578,-2.142,-2.1358,-2.1019,-2.0846,-2.0788,-2.0759,-2.0776,-2.0776,-2.0788,-2.0874,-2.0976,-2.0988,-2.1044,-2.1033,-2.072,-2.0528,-2.0488,-2.0187,-1.9875,-1.9644,-1.9195,-1.8852,-1.8575,-1.821,-1.8048,-1.8048,-1.8108,-1.7782,-1.7141,-1.6658,-1.6174,-1.5763,-1.5709,-1.5748,-1.5733,-1.5463,-1.5208,-1.4934,-1.4624,-1.3902,-1.2652,-1.2275,-1.2637,-1.3728,-1.2739,-1.1668,-1.0774,-1.0352,-1.0114,-1.0032,-1.0105,-1.0161,-1.0174,-0.9393,-0.9694,-1.1727,-1.2938,-1.3219,-1.2383,-1.0968,-1.0132,-1.0386,-1.0115,-0.9718,-0.9441,-0.9279,-0.9006,-0.871,-0.8648,-0.8583,-0.8563,-0.8672,-0.895,-0.9279,-0.9442,-0.9769,-1.0427,-1.0826,-1.1215,-1.1868,-1.3239,-1.4279,-1.4504,-1.5973,-1.6741,-1.6828,-1.7089,-1.7596,-1.7739,-1.7914,-1.8031,-1.8345,-1.8363,-1.8363,-1.8348,-1.8394,-1.8391,-1.8336,-1.8239,-1.81,-1.7988,-1.7917,-1.7704,-2.4081,-2.4278,-2.4567,-2.4305,-2.3663,-2.3139,-2.2772,-2.2546,-2.2529,-2.2348,-2.2073,-2.2032,-2.1974,-2.1974,-2.1857,-2.1768,-2.1738,-2.1738,-2.1738,-2.1768,-2.1811,-2.1899,-2.1974,-2.2044,-2.2101,-2.2046,-2.1646,-2.1421,-2.1353,-2.0923,-2.0628,-2.0458,-1.993,-1.9478,-1.9121,-1.8601,-1.8319,-1.813,-1.819,-1.8211,-1.8069,-1.7583,-1.7013,-1.6493,-1.6421,-1.6441,-1.6443,-1.6333,-1.6268,-1.6286,-1.6149,-1.5523,-1.4414,-1.4244,-1.4408,-1.462,-1.3533,-1.2569,-1.2135,-1.1651,-1.1356,-1.1252,-1.1282,-1.1339,-1.1192,-1.0301,-1.058,-1.2292,-1.332,-1.3491,-1.2502,-1.0546,-0.9585,-1.0088,-0.952,-0.9013,-0.8981,-0.8874,-0.884,-0.8823,-0.876,-0.8814,-0.8956,-0.9227,-0.9603,-1.0166,-1.0331,-1.0641,-1.129,-1.1717,-1.1959,-1.2414,-1.4342,-1.5659,-1.5836,-1.6853,-1.7895,-1.8162,-1.823,-1.846,-1.8657,-1.8601,-1.8545,-1.8544,-1.8544,-1.8526,-1.8487,-1.852,-1.8553,-1.8461,-1.8345,-1.8246,-1.818,-1.8113,-1.8005,-2.4448,-2.5016,-2.479,-2.4645,-2.4438,-2.4371,-2.3968,-2.3342,-2.3342,-2.2958,-2.2417,-2.2298,-2.2202,-2.2252,-2.2082,-2.1831,-2.1811,-2.1853,-2.1899,-2.1899,-2.1986,-2.2061,-2.2214,-2.2254,-2.2338,-2.2332,-2.233,-2.2324,-2.2368,-2.2334,-2.2036,-2.1379,-2.1225,-2.0548,-1.943,-1.9161,-1.8822,-1.8262,-1.8256,-1.8277,-1.8277,-1.8232,-1.8104,-1.791,-1.7975,-1.7931,-1.7962,-1.747,-1.7179,-1.7234,-1.6641,-1.615,-1.6011,-1.6011,-1.6165,-1.6297,-1.4895,-1.3938,-1.3693,-1.259,-1.1741,-1.1658,-1.1746,-1.1677,-1.1872,-1.1605,-1.1811,-1.2508,-1.3646,-1.3836,-1.2869,-1.1094,-0.9866,-1.0219,-0.9602,-0.9161,-0.9071,-0.8957,-0.8902,-0.8886,-0.8925,-0.9193,-0.9823,-1.0242,-1.0642,-1.1083,-1.1246,-1.1596,-1.233,-1.2376,-1.2751,-1.3872,-1.5529,-1.7182,-1.717,-1.7665,-1.8163,-1.8431,-1.8664,-1.8843,-1.8824,-1.8788,-1.8769,-1.8786,-1.8875,-1.8838,-1.8657,-1.8601,-1.8635,-1.8596,-1.8502,-1.8406,-1.8307,-1.8239,-1.8151,-2.5819,-2.6261,-2.572,-2.536,-2.5135,-2.4678,-2.4371,-2.4103,-2.4133,-2.3951,-2.3731,-2.3637,-2.3624,-2.3594,-2.3455,-2.2859,-2.2007,-2.194,-2.2015,-2.2094,-2.2163,-2.2237,-2.2338,-2.2394,-2.2432,-2.246,-2.2487,-2.2487,-2.2487,-2.2487,-2.2405,-2.2106,-2.1661,-2.0958,-2.0061,-1.9539,-1.8979,-1.836,-1.8263,-1.8325,-1.8363,-1.8365,-1.8365,-1.842,-1.8342,-1.8304,-1.8345,-1.8183,-1.8118,-1.8121,-1.7895,-1.7772,-1.7735,-1.7915,-1.8086,-1.8089,-1.6667,-1.5551,-1.5131,-1.4518,-1.3836,-1.3321,-1.3272,-1.3231,-1.331,-1.3297,-1.3387,-1.3696,-1.4047,-1.4174,-1.3784,-1.2847,-1.1801,-1.0606,-0.9711,-0.9185,-0.9099,-0.9018,-0.8964,-0.9061,-0.9428,-0.9978,-1.0225,-1.0921,-1.1648,-1.2054,-1.2543,-1.3206,-1.3896,-1.4211,-1.4711,-1.5875,-1.7399,-1.8588,-1.8631,-1.8547,-1.871,-1.8836,-1.8999,-1.9036,-1.902,-1.9039,-1.9022,-1.9595,-1.9613,-1.9755,-1.9752,-1.9464,-1.9337,-1.8762,-1.8688,-1.8524,-1.8428,-1.8345,-1.8277,-2.6813,-2.692,-2.6461,-2.6126,-2.5896,-2.5423,-2.5082,-2.4864,-2.4831,-2.4743,-2.4526,-2.4461,-2.443,-2.443,-2.443,-2.3894,-2.2904,-2.2853,-2.287,-2.2962,-2.305,-2.3017,-2.2807,-2.2873,-2.2764,-2.2576,-2.2569,-2.2552,-2.2569,-2.2552,-2.2579,-2.2581,-2.2099,-2.1523,-2.0822,-2.0108,-1.9408,-1.8826,-1.8487,-1.8388,-1.8463,-1.8485,-1.8684,-1.8955,-1.897,-1.8931,-1.8894,-1.9008,-1.919,-1.9408,-1.952,-1.9307,-1.8841,-1.947,-1.9697,-1.918,-1.8182,-1.7376,-1.6845,-1.6091,-1.5174,-1.4404,-1.4264,-1.4282,-1.4313,-1.4313,-1.4344,-1.4381,-1.4429,-1.4453,-1.4325,-1.4193,-1.3354,-1.1505,-1.0267,-0.9586,-0.9487,-0.922,-0.9052,-0.9128,-0.9771,-1.0347,-1.0805,-1.1658,-1.2505,-1.3176,-1.3909,-1.4561,-1.536,-1.5974,-1.6501,-1.7399,-1.8812,-1.9709,-1.9987,-2.0012,-1.9433,-1.9433,-1.9366,-1.935,-1.95,-1.9449,-1.9686,-2.0282,-2.066,-2.0858,-2.0783,-2.0457,-1.9897,-1.9194,-1.8801,-1.8657,-1.8544,-1.8428,-1.8365,-2.7215,-2.7007,-2.7007,-2.6807,-2.6623,-2.6555,-2.6218,-2.5676,-2.5625,-2.5319,-2.4893,-2.4659,-2.4777,-2.4659,-2.4839,-2.4666,-2.4584,-2.4554,-2.4404,-2.435,-2.4522,-2.424,-2.3642,-2.3693,-2.3429,-2.2846,-2.2745,-2.2737,-2.2789,-2.2737,-2.2685,-2.2685,-2.2634,-2.2194,-2.1655,-2.0859,-2.0216,-1.9612,-1.9026,-1.8718,-1.8633,-1.8853,-1.923,-1.9856,-2.0021,-2.0076,-1.998,-2.0003,-2.0328,-2.0976,-2.1182,-2.0571,-1.9561,-2.0662,-2.0986,-1.9916,-1.9368,-1.9175,-1.8851,-1.6995,-1.5478,-1.4787,-1.4501,-1.4434,-1.4464,-1.4441,-1.4429,-1.4464,-1.4476,-1.4476,-1.4399,-1.4313,-1.3851,-1.2918,-1.1393,-1.0561,-1.0214,-0.9626,-0.9112,-0.9264,-0.9972,-1.0766,-1.1736,-1.2565,-1.3401,-1.4523,-1.5196,-1.5729,-1.6676,-1.7348,-1.7627,-1.8261,-1.9641,-2.0859,-2.1229,-2.1435,-2.0631,-1.9994,-1.9858,-1.9845,-2.0273,-2.0388,-2.0716,-2.1243,-2.173,-2.1927,-2.1545,-2.118,-2.0674,-2.0042,-1.9484,-1.8982,-1.8906,-1.8847,-1.854,-2.725,-2.707,-2.707,-2.7006,-2.6892,-2.6909,-2.6756,-2.6551,-2.6551,-2.6415,-2.6228,-2.6194,-2.6194,-2.6226,-2.6226,-2.6241,-2.6258,-2.6256,-2.5743,-2.4893,-2.4863,-2.4773,-2.4579,-2.454,-2.4477,-2.4201,-2.3702,-2.347,-2.3367,-2.2926,-2.2712,-2.2712,-2.2712,-2.2341,-2.1759,-2.1479,-2.1086,-2.0504,-2.0294,-2.0271,-2.037,-2.0394,-2.058,-2.0891,-2.0984,-2.1219,-2.1747,-2.1273,-2.1129,-2.1438,-2.1496,-2.1279,-2.1171,-2.241,-2.3107,-2.252,-2.0547,-1.9438,-1.9203,-1.7711,-1.6337,-1.5673,-1.4998,-1.4593,-1.4556,-1.4511,-1.4476,-1.4488,-1.4488,-1.4476,-1.4453,-1.435,-1.3925,-1.3057,-1.246,-1.1754,-1.1194,-1.0836,-1.0521,-1.0313,-1.1127,-1.1777,-1.2033,-1.2945,-1.4591,-1.5514,-1.6406,-1.7361,-1.8334,-1.9103,-1.9991,-2.0659,-2.1584,-2.1835,-2.2021,-2.2226,-2.1931,-2.1279,-2.0976,-2.0784,-2.1106,-2.1349,-2.1698,-2.2154,-2.2643,-2.2692,-2.2309,-2.1872,-2.1381,-2.0855,-2.0295,-1.9897,-1.9572,-1.9337,-1.9135,-2.7233,-2.7103,-2.7103,-2.7055,-2.7024,-2.6992,-2.7007,-2.704,-2.7023,-2.7055,-2.7038,-2.7038,-2.7055,-2.7055,-2.7055,-2.7055,-2.7055,-2.7152,-2.6653,-2.5832,-2.576,-2.567,-2.536,-2.5062,-2.5005,-2.485,-2.4195,-2.3805,-2.3736,-2.3091,-2.2712,-2.2712,-2.2712,-2.2557,-2.2131,-2.1927,-2.161,-2.1331,-2.1143,-2.1141,-2.1245,-2.1305,-2.149,-2.1821,-2.1913,-2.2351,-2.3101,-2.2718,-2.2444,-2.2481,-2.25,-2.2501,-2.2666,-2.3658,-2.4303,-2.3842,-2.2177,-2.0482,-1.9634,-1.8339,-1.7139,-1.6365,-1.5525,-1.494,-1.4725,-1.4578,-1.4533,-1.4533,-1.4574,-1.4574,-1.4522,-1.4464,-1.4126,-1.3606,-1.3148,-1.2585,-1.1812,-1.1546,-1.1349,-1.1237,-1.1921,-1.2415,-1.2943,-1.3908,-1.5648,-1.6432,-1.7658,-1.8838,-1.9804,-2.0689,-2.1477,-2.21,-2.2458,-2.2585,-2.2649,-2.2869,-2.3146,-2.2719,-2.2253,-2.2099,-2.2162,-2.2187,-2.241,-2.2958,-2.3484,-2.3464,-2.3133,-2.2658,-2.2146,-2.1617,-2.1182,-2.0746,-2.042,-2.0182,-1.9945,-2.7215,-2.7103,-2.7103,-2.7087,-2.7057,-2.704,-2.7105,-2.7103,-2.7117,-2.7198,-2.723,-2.7244,-2.7198,-2.7135,-2.7215,-2.7166,-2.7166,-2.7233,-2.7261,-2.7141,-2.7089,-2.6778,-2.6178,-2.5643,-2.5449,-2.5212,-2.443,-2.3953,-2.3981,-2.3152,-2.2712,-2.2738,-2.2721,-2.2773,-2.2667,-2.2262,-2.2107,-2.2154,-2.1711,-2.1568,-2.1691,-2.175,-2.206,-2.2772,-2.2865,-2.3233,-2.3839,-2.3951,-2.4025,-2.4077,-2.3874,-2.3838,-2.4117,-2.4375,-2.4482,-2.4462,-2.3459,-2.1753,-2.0206,-1.907,-1.8092,-1.7045,-1.6228,-1.5599,-1.5014,-1.4757,-1.4622,-1.4622,-1.4654,-1.4664,-1.4622,-1.4611,-1.4519,-1.4428,-1.3757,-1.2897,-1.2049,-1.1972,-1.2044,-1.1998,-1.2479,-1.326,-1.3975,-1.5049,-1.6501,-1.7932,-1.91,-1.9931,-2.1022,-2.1859,-2.2276,-2.2792,-2.3371,-2.3484,-2.3601,-2.3733,-2.3959,-2.375,-2.3378,-2.3228,-2.3095,-2.3084,-2.3142,-2.3694,-2.3984,-2.3981,-2.3832,-2.3338,-2.3006,-2.2694,-2.22,-2.1673,-2.1291,-2.1053,-2.0709,-2.7233,-2.7135,-2.7184,-2.725,-2.7218,-2.7299,-2.7313,-2.7327,-2.7434,-2.7465,-2.7448,-2.7496,-2.7434,-2.731,-2.7327,-2.7345,-2.7345,-2.7345,-2.739,-2.7452,-2.7434,-2.7272,-2.7037,-2.6843,-2.6718,-2.6528,-2.5426,-2.483,-2.4708,-2.3545,-2.2894,-2.2842,-2.2842,-2.2893,-2.29,-2.28,-2.2893,-2.3064,-2.3106,-2.3037,-2.3125,-2.3246,-2.3526,-2.3747,-2.3785,-2.3952,-2.4247,-2.4357,-2.4393,-2.4321,-2.4247,-2.4229,-2.4303,-2.4411,-2.4568,-2.4572,-2.4335,-2.2961,-2.0558,-1.9676,-1.9282,-1.8819,-1.7213,-1.5984,-1.5759,-1.511,-1.4829,-1.4755,-1.4756,-1.4812,-1.4764,-1.481,-1.4993,-1.5295,-1.4671,-1.3974,-1.3721,-1.3618,-1.3561,-1.3547,-1.4265,-1.4676,-1.5098,-1.6311,-1.8334,-2.0258,-2.0935,-2.1179,-2.228,-2.2962,-2.3379,-2.399,-2.4477,-2.4501,-2.4577,-2.469,-2.4752,-2.4667,-2.4411,-2.4211,-2.4081,-2.3984,-2.4042,-2.4284,-2.4174,-2.4135,-2.4114,-2.3874,-2.3744,-2.3484,-2.3045,-2.2462,-2.2169,-2.1913,-2.155,-2.7184,-2.7201,-2.7313,-2.7345,-2.7345,-2.7438,-2.7513,-2.7526,-2.763,-2.7707,-2.7707,-2.7724,-2.7647,-2.7526,-2.7513,-2.7452,-2.7469,-2.7483,-2.7513,-2.7526,-2.7587,-2.7509,-2.7404,-2.7421,-2.7452,-2.7361,-2.6307,-2.5649,-2.5125,-2.4069,-2.3379,-2.2979,-2.2944,-2.2995,-2.3045,-2.3144,-2.3289,-2.3504,-2.3721,-2.3831,-2.3976,-2.4075,-2.4135,-2.4228,-2.4266,-2.4321,-2.4428,-2.4547,-2.4599,-2.4498,-2.4446,-2.441,-2.4428,-2.4513,-2.4663,-2.4798,-2.4879,-2.3941,-2.2401,-2.14,-2.058,-1.9851,-1.8321,-1.7368,-1.6527,-1.5819,-1.5565,-1.5649,-1.5206,-1.5404,-1.6083,-1.6073,-1.611,-1.637,-1.5985,-1.56,-1.5514,-1.5478,-1.5337,-1.5336,-1.5716,-1.649,-1.651,-1.8049,-1.99,-2.1711,-2.2291,-2.2778,-2.3467,-2.3966,-2.4359,-2.4765,-2.4994,-2.4937,-2.4867,-2.4949,-2.4961,-2.4934,-2.4879,-2.476,-2.4673,-2.4547,-2.4497,-2.4445,-2.4356,-2.4303,-2.4284,-2.4247,-2.4098,-2.384,-2.3527,-2.338,-2.3123,-2.283,-2.2428,-2.7201,-2.7282,-2.7362,-2.7407,-2.7438,-2.7574,-2.763,-2.7701,-2.7789,-2.7893,-2.794,-2.7946,-2.7795,-2.7719,-2.76,-2.7569,-2.7526,-2.7617,-2.7677,-2.7719,-2.7748,-2.7719,-2.7647,-2.7587,-2.7617,-2.7525,-2.6906,-2.6244,-2.5578,-2.4795,-2.3952,-2.3435,-2.3175,-2.307,-2.3144,-2.3241,-2.3453,-2.366,-2.3831,-2.3996,-2.4152,-2.4228,-2.4266,-2.4321,-2.4411,-2.4515,-2.4631,-2.4742,-2.4772,-2.4642,-2.4629,-2.4596,-2.4631,-2.4692,-2.4827,-2.4985,-2.5082,-2.4953,-2.4708,-2.3267,-2.2214,-2.1051,-2.0488,-1.9316,-1.7726,-1.7051,-1.6777,-1.6698,-1.5997,-1.687,-1.7907,-1.7937,-1.7671,-1.7776,-1.7823,-1.7832,-1.7678,-1.7393,-1.6985,-1.678,-1.7214,-1.818,-1.9157,-2.0083,-2.0907,-2.3029,-2.3449,-2.3621,-2.411,-2.4541,-2.482,-2.5019,-2.5153,-2.5184,-2.513,-2.5106,-2.5069,-2.5044,-2.4974,-2.4907,-2.4808,-2.4723,-2.4645,-2.458,-2.4512,-2.4479,-2.4466,-2.4394,-2.4321,-2.4211,-2.3934,-2.4044,-2.408,-2.3786,-2.3437,-2.7264,-2.7247,-2.7359,-2.7469,-2.7557,-2.7659,-2.773,-2.7789,-2.7968,-2.8025,-2.8014,-2.7986,-2.7864,-2.773,-2.7701,-2.7672,-2.7701,-2.7853,-2.7968,-2.8063,-2.8091,-2.8091,-2.8007,-2.7864,-2.7806,-2.7734,-2.7171,-2.6774,-2.6365,-2.5351,-2.4491,-2.4211,-2.356,-2.3289,-2.3289,-2.3383,-2.3526,-2.3689,-2.3896,-2.4077,-2.4284,-2.4394,-2.4428,-2.4461,-2.458,-2.4692,-2.4813,-2.4931,-2.498,-2.4942,-2.4804,-2.4753,-2.4779,-2.4953,-2.5088,-2.5137,-2.522,-2.5243,-2.505,-2.4319,-2.3851,-2.3755,-2.2162,-2.0706,-1.9643,-1.8616,-1.8014,-1.7869,-1.8452,-1.9085,-1.9742,-1.9123,-1.9096,-1.9545,-2.0118,-2.0721,-2.0908,-1.9135,-1.8288,-1.8884,-1.9282,-1.9544,-2.0002,-2.1347,-2.2543,-2.4158,-2.4475,-2.4389,-2.4686,-2.5081,-2.5166,-2.5243,-2.5241,-2.5261,-2.5239,-2.5187,-2.5164,-2.5141,-2.5094,-2.5038,-2.4961,-2.4884,-2.4813,-2.4753,-2.4692,-2.4663,-2.4601,-2.4568,-2.4497,-2.4409,-2.4338,-2.4339,-2.4339,-2.4321,-2.4247,-2.7296,-2.731,-2.7465,-2.7569,-2.7659,-2.7806,-2.7893,-2.7968,-2.8099,-2.8144,-2.8099,-2.8042,-2.794,-2.7911,-2.7824,-2.7824,-2.7922,-2.8109,-2.8219,-2.83,-2.8353,-2.8362,-2.8335,-2.8255,-2.8201,-2.8147,-2.7826,-2.7512,-2.6925,-2.6051,-2.5177,-2.4676,-2.3955,-2.3534,-2.3453,-2.3549,-2.3685,-2.3837,-2.4037,-2.4229,-2.4393,-2.4534,-2.4631,-2.4673,-2.4779,-2.4898,-2.4987,-2.5075,-2.5157,-2.5141,-2.5049,-2.4974,-2.4968,-2.5141,-2.5239,-2.5261,-2.5331,-2.5376,-2.5204,-2.5022,-2.4904,-2.5368,-2.3721,-2.2759,-2.1806,-2.0841,-2.032,-2.0146,-2.0337,-2.0508,-2.1385,-2.121,-2.1125,-2.1345,-2.1881,-2.2416,-2.2455,-2.1124,-2.022,-2.1101,-2.1292,-2.1282,-2.176,-2.2652,-2.357,-2.4888,-2.5001,-2.4925,-2.4992,-2.532,-2.5321,-2.5351,-2.5351,-2.5351,-2.5322,-2.5292,-2.5252,-2.5231,-2.5198,-2.5176,-2.5111,-2.5038,-2.4966,-2.4912,-2.4823,-2.4783,-2.4742,-2.4692,-2.4663,-2.4599,-2.4532,-2.4498,-2.4481,-2.4428,-2.4393,-2.731,-2.7438,-2.763,-2.773,-2.7777,-2.7996,-2.8126,-2.8126,-2.8182,-2.8209,-2.8182,-2.8071,-2.8025,-2.8071,-2.8003,-2.806,-2.8209,-2.8327,-2.8458,-2.8484,-2.8587,-2.8594,-2.8569,-2.8612,-2.8612,-2.8492,-2.8412,-2.811,-2.7628,-2.6853,-2.6064,-2.5195,-2.436,-2.392,-2.375,-2.3707,-2.3837,-2.4018,-2.4192,-2.4393,-2.4547,-2.4682,-2.4772,-2.4898,-2.4974,-2.5063,-2.5138,-2.5233,-2.538,-2.5493,-2.5408,-2.5274,-2.5224,-2.5254,-2.5322,-2.5341,-2.5453,-2.549,-2.5495,-2.5449,-2.5471,-2.5551,-2.4878,-2.4174,-2.3554,-2.2772,-2.2307,-2.2049,-2.1881,-2.1823,-2.315,-2.2993,-2.2982,-2.3109,-2.3217,-2.3402,-2.3402,-2.3295,-2.3132,-2.2867,-2.2829,-2.2786,-2.3182,-2.389,-2.4716,-2.535,-2.5408,-2.5437,-2.5476,-2.5488,-2.5445,-2.5421,-2.5423,-2.5397,-2.5379,-2.5361,-2.5322,-2.5303,-2.5312,-2.5262,-2.5241,-2.5187,-2.5106,-2.5032,-2.4966,-2.4912,-2.4856,-2.4846,-2.4806,-2.4764,-2.4717,-2.4631,-2.4599,-2.4547,-2.4497,-2.7421,-2.7496,-2.7659,-2.7806,-2.7986,-2.8126,-2.8191,-2.8273,-2.8273,-2.8273,-2.8273,-2.8136,-2.8099,-2.8099,-2.8172,-2.8291,-2.8458,-2.8612,-2.8687,-2.8737,-2.881,-2.8839,-2.8839,-2.8905,-2.8975,-2.8998,-2.8881,-2.8688,-2.8484,-2.7922,-2.6984,-2.6188,-2.5382,-2.4699,-2.4151,-2.3935,-2.4092,-2.4173,-2.432,-2.4512,-2.4692,-2.4798,-2.4898,-2.5076,-2.521,-2.5337,-2.537,-2.5436,-2.5738,-2.6374,-2.5859,-2.5588,-2.5693,-2.5749,-2.5781,-2.548,-2.5531,-2.5576,-2.5564,-2.5583,-2.5601,-2.5624,-2.5404,-2.4835,-2.4175,-2.3722,-2.3397,-2.2955,-2.3222,-2.3785,-2.507,-2.4483,-2.4105,-2.4211,-2.4569,-2.4985,-2.5051,-2.4962,-2.4661,-2.4155,-2.4119,-2.4179,-2.4484,-2.4717,-2.5138,-2.5493,-2.5512,-2.5549,-2.5568,-2.5544,-2.5485,-2.5483,-2.5461,-2.5437,-2.5412,-2.5415,-2.5397,-2.5378,-2.536,-2.5332,-2.5313,-2.5292,-2.5239,-2.5141,-2.5069,-2.5025,-2.4985,-2.4977,-2.4936,-2.4879,-2.4821,-2.4776,-2.4711,-2.4645,-2.4613,-2.7496,-2.763,-2.7777,-2.794,-2.8126,-2.8209,-2.8291,-2.8353,-2.8371,-2.8371,-2.8327,-2.8246,-2.8219,-2.8246,-2.8291,-2.8432,-2.8662,-2.881,-2.8858,-2.8905,-2.9021,-2.9067,-2.9071,-2.9134,-2.9243,-2.9289,-2.9225,-2.9119,-2.9067,-2.8331,-2.7756,-2.7235,-2.6438,-2.5607,-2.4962,-2.4834,-2.4635,-2.4541,-2.4549,-2.4695,-2.4889,-2.4966,-2.5106,-2.5256,-2.5745,-2.6072,-2.6315,-2.6672,-2.6999,-2.7336,-2.7129,-2.6935,-2.7109,-2.7496,-2.7412,-2.6068,-2.569,-2.5644,-2.5644,-2.5625,-2.5639,-2.5679,-2.5671,-2.5433,-2.5009,-2.4799,-2.4468,-2.4307,-2.429,-2.5047,-2.557,-2.5266,-2.5066,-2.5091,-2.5447,-2.5648,-2.5691,-2.5694,-2.5373,-2.5005,-2.4989,-2.5052,-2.5282,-2.5485,-2.5597,-2.5655,-2.5648,-2.564,-2.5632,-2.5605,-2.5549,-2.5544,-2.5525,-2.5498,-2.5476,-2.5461,-2.5464,-2.5456,-2.5429,-2.5404,-2.5378,-2.5351,-2.5313,-2.5233,-2.5187,-2.5137,-2.5107,-2.507,-2.5031,-2.4972,-2.4917,-2.4879,-2.4802,-2.4723,-2.4726,-2.76,-2.773,-2.794,-2.8099,-2.8209,-2.83,-2.8353,-2.8406,-2.8406,-2.8432,-2.8432,-2.838,-2.838,-2.8432,-2.851,-2.8637,-2.8876,-2.8994,-2.9062,-2.9093,-2.9243,-2.9304,-2.9307,-2.9351,-2.9453,-2.9493,-2.9531,-2.9474,-2.9319,-2.8835,-2.8406,-2.7921,-2.7344,-2.6693,-2.6024,-2.5875,-2.5463,-2.5307,-2.5177,-2.5295,-2.5469,-2.5646,-2.5754,-2.5774,-2.655,-2.7117,-2.7349,-2.7653,-2.8065,-2.8276,-2.8257,-2.8296,-2.887,-3.0024,-2.9435,-2.7191,-2.6489,-2.617,-2.5749,-2.5967,-2.5954,-2.5735,-2.571,-2.569,-2.5654,-2.55,-2.5566,-2.573,-2.6161,-2.6262,-2.6461,-2.6262,-2.6143,-2.597,-2.5953,-2.5897,-2.5761,-2.5703,-2.5703,-2.5565,-2.5696,-2.5748,-2.5785,-2.5685,-2.567,-2.5689,-2.5666,-2.5659,-2.5671,-2.5664,-2.5619,-2.56,-2.5579,-2.5576,-2.5538,-2.5518,-2.5531,-2.5517,-2.551,-2.5483,-2.5453,-2.541,-2.5367,-2.5322,-2.5293,-2.525,-2.5225,-2.5187,-2.512,-2.5063,-2.5044,-2.4991,-2.4884,-2.4842,-2.4827,-2.7701,-2.7713,-2.8053,-2.82,-2.8237,-2.8406,-2.8466,-2.8466,-2.851,-2.8518,-2.8587,-2.8536,-2.8536,-2.8612,-2.8767,-2.8881,-2.8998,-2.9175,-2.9265,-2.9291,-2.9394,-2.9511,-2.955,-2.9626,-2.9645,-2.9681,-2.9736,-2.9719,-2.9626,-2.9476,-2.9064,-2.8501,-2.8296,-2.7791,-2.7004,-2.6929,-2.6943,-2.693,-2.6945,-2.7094,-2.7275,-2.7363,-2.744,-2.7605,-2.7794,-2.8061,-2.8257,-2.8481,-2.8716,-2.9207,-2.8632,-2.9031,-3.0175,-3.0602,-3.0713,-3.0007,-2.9166,-2.7852,-2.6561,-2.6525,-2.6587,-2.6184,-2.5948,-2.5751,-2.5849,-2.5754,-2.5719,-2.5781,-2.6933,-2.789,-2.791,-2.7889,-2.7576,-2.7109,-2.6777,-2.6406,-2.6092,-2.6184,-2.6124,-2.622,-2.6384,-2.6132,-2.6016,-2.584,-2.5703,-2.5703,-2.5702,-2.5699,-2.5694,-2.5679,-2.5658,-2.564,-2.5624,-2.5605,-2.5585,-2.5554,-2.5587,-2.5595,-2.5589,-2.5564,-2.5518,-2.5478,-2.5449,-2.541,-2.5378,-2.5341,-2.5292,-2.5239,-2.5195,-2.5149,-2.5113,-2.5063,-2.498,-2.4953,-2.4926,-2.7864,-2.7893,-2.8099,-2.8237,-2.8345,-2.8466,-2.8587,-2.8619,-2.8694,-2.8743,-2.8785,-2.8804,-2.8828,-2.8905,-2.9021,-2.9093,-2.9203,-2.9349,-2.9433,-2.9494,-2.9608,-2.9719,-2.9755,-2.9808,-2.9805,-2.9874,-2.9891,-2.9926,-2.9893,-2.9823,-2.9561,-2.9315,-2.9166,-2.8827,-2.8072,-2.8013,-2.7759,-2.758,-2.7529,-2.7708,-2.7865,-2.7997,-2.8198,-2.8547,-2.8785,-2.9119,-2.948,-2.9695,-2.9804,-3.0157,-2.979,-2.9955,-3.0612,-3.0825,-3.0836,-3.0797,-3.037,-2.9589,-2.8826,-2.8104,-2.7558,-2.7324,-2.7109,-2.7089,-2.6679,-2.6132,-2.5761,-2.5723,-2.7304,-2.8573,-2.9217,-2.8808,-2.8261,-2.7811,-2.7537,-2.7358,-2.7001,-2.6813,-2.6844,-2.6955,-2.7053,-2.6849,-2.6568,-2.6242,-2.605,-2.5857,-2.5781,-2.5703,-2.5702,-2.5698,-2.5687,-2.5654,-2.5658,-2.5644,-2.5613,-2.56,-2.5634,-2.5649,-2.5668,-2.5639,-2.5579,-2.5537,-2.5764,-2.5665,-2.5522,-2.5473,-2.5428,-2.5312,-2.525,-2.5217,-2.5176,-2.513,-2.5082,-2.5044,-2.5038,-2.8025,-2.8071,-2.8182,-2.8345,-2.8476,-2.8587,-2.8687,-2.8743,-2.8905,-2.8934,-2.8998,-2.9044,-2.9112,-2.9178,-2.9243,-2.931,-2.9373,-2.9494,-2.9608,-2.9717,-2.9823,-2.9891,-2.9959,-2.9972,-3.0003,-3.0034,-3.0049,-3.0064,-3.0083,-3.0049,-2.9984,-2.9956,-2.9807,-2.9577,-2.9213,-2.9034,-2.8869,-2.8568,-2.8599,-2.8695,-2.8778,-2.8834,-2.9091,-2.941,-2.976,-3.0138,-3.0665,-3.0717,-3.072,-3.0701,-3.068,-3.0676,-3.0835,-3.0859,-3.0876,-3.0855,-3.0653,-3.0626,-3.0011,-2.937,-2.8842,-2.8705,-2.8412,-2.7947,-2.781,-2.6893,-2.6776,-2.7302,-2.8257,-2.9661,-3.0227,-2.9623,-2.9154,-2.8666,-2.8216,-2.8209,-2.8179,-2.7966,-2.7671,-2.7569,-2.7682,-2.7833,-2.7484,-2.6877,-2.6479,-2.6117,-2.5909,-2.5778,-2.578,-2.5859,-2.5799,-2.5811,-2.5746,-2.5757,-2.5726,-2.5701,-2.5714,-2.5925,-2.5944,-2.6147,-2.6383,-2.6481,-2.6654,-2.6385,-2.6028,-2.6281,-2.6655,-2.5966,-2.5293,-2.5273,-2.5252,-2.5239,-2.5206,-2.516,-2.5125,-2.8126,-2.8182,-2.8345,-2.8458,-2.8587,-2.8737,-2.8852,-2.8887,-2.9026,-2.9134,-2.92,-2.9249,-2.9272,-2.9314,-2.9414,-2.9512,-2.9569,-2.9735,-2.9836,-2.9953,-3.003,-3.0094,-3.0157,-3.0171,-3.0171,-3.0185,-3.018,-3.0194,-3.0207,-3.024,-3.0171,-3.0117,-3.0098,-3.006,-2.9937,-2.9841,-2.9934,-2.9794,-2.9912,-3.0081,-3.0183,-3.0257,-3.0375,-3.0478,-3.0635,-3.0747,-3.0796,-3.0801,-3.0798,-3.0797,-3.0837,-3.0857,-3.0856,-3.0833,-3.082,-3.081,-3.0794,-3.0793,-3.0466,-2.9985,-2.9799,-2.9796,-2.9467,-2.8774,-2.891,-2.8488,-2.88,-2.9674,-2.9945,-3.0277,-3.0708,-3.0632,-3.0007,-2.963,-2.9177,-2.9012,-2.9035,-2.905,-2.8734,-2.8349,-2.8376,-2.8707,-2.8571,-2.8038,-2.7347,-2.6991,-2.661,-2.6486,-2.6259,-2.6245,-2.6093,-2.6016,-2.5916,-2.5874,-2.5888,-2.6041,-2.6483,-2.6771,-2.6886,-2.7264,-2.7659,-2.7701,-2.741,-2.7462,-2.7226,-2.7549,-2.7609,-2.6826,-2.6118,-2.5572,-2.538,-2.5504,-2.5367,-2.5217,-2.5184,-2.8264,-2.8406,-2.8536,-2.8612,-2.8669,-2.8905,-2.9021,-2.9112,-2.9267,-2.9411,-2.9491,-2.9531,-2.955,-2.9569,-2.9626,-2.97,-2.9753,-2.9902,-3.003,-3.0118,-3.0188,-3.026,-3.0305,-3.0305,-3.0305,-3.0318,-3.0318,-3.033,-3.033,-3.0343,-3.033,-3.0279,-3.024,-3.0221,-3.0241,-3.0316,-3.0439,-3.0511,-3.0602,-3.0678,-3.0728,-3.076,-3.0774,-3.0786,-3.0795,-3.08,-3.08,-3.0792,-3.0801,-3.0794,-3.0816,-3.0816,-3.0833,-3.0779,-3.0774,-3.0778,-3.0764,-3.0724,-3.0723,-3.0311,-3.0412,-3.0501,-3.0212,-2.9868,-3.0004,-2.9857,-3.0049,-3.0573,-3.0794,-3.0794,-3.0785,-3.0791,-3.0579,-3.0375,-3.015,-2.9866,-2.9786,-2.9794,-2.9751,-2.9344,-2.9537,-2.9873,-2.9608,-2.9253,-2.8518,-2.7872,-2.7496,-2.716,-2.6942,-2.6815,-2.6745,-2.6714,-2.6659,-2.6816,-2.6875,-2.7127,-2.7379,-2.7609,-2.7801,-2.8184,-2.8522,-2.815,-2.7959,-2.8131,-2.8304,-2.8294,-2.8067,-2.7516,-2.7052,-2.6704,-2.6283,-2.5947,-2.5697,-2.5348,-2.5239,-2.838,-2.8569,-2.8761,-2.8815,-2.8839,-2.9071,-2.9222,-2.931,-2.9492,-2.9626,-2.9719,-2.9738,-2.9756,-2.9774,-2.9842,-2.9907,-2.9969,-3.0104,-3.0221,-3.0292,-3.0333,-3.0386,-3.0417,-3.0417,-3.0417,-3.0417,-3.0436,-3.0428,-3.0428,-3.0425,-3.0425,-3.0414,-3.041,-3.0359,-3.0364,-3.0472,-3.0567,-3.0634,-3.0691,-3.0745,-3.0798,-3.0785,-3.0784,-3.0799,-3.0801,-3.0797,-3.0786,-3.0791,-3.0794,-3.0802,-3.0793,-3.0778,-3.074,-3.0739,-3.0736,-3.073,-3.0711,-3.0645,-3.0649,-3.0703,-3.0764,-3.0716,-3.0711,-3.0618,-3.0763,-3.0782,-3.0689,-3.072,-3.0794,-3.0798,-3.0778,-3.0763,-3.0767,-3.0559,-3.0565,-3.035,-3.0386,-3.0393,-3.0423,-3.0323,-3.051,-3.0424,-3.0288,-2.9858,-2.911,-2.841,-2.7887,-2.7688,-2.7701,-2.7624,-2.7638,-2.7649,-2.7659,-2.7881,-2.8139,-2.8045,-2.8027,-2.8534,-2.8748,-2.8958,-2.9086,-2.8801,-2.8895,-2.9323,-2.9343,-2.903,-2.8915,-2.889,-2.848,-2.7973,-2.7321,-2.6494,-2.6053,-2.5707,-2.5349,-2.851,-2.8737,-2.8975,-2.9089,-2.9112,-2.9249,-2.9373,-2.9512,-2.9645,-2.9754,-2.9825,-2.9859,-2.9912,-2.9929,-3.0007,-3.0079,-3.018,-3.0318,-3.0414,-3.0449,-3.0482,-3.0501,-3.052,-3.052,-3.052,-3.0501,-3.0501,-3.052,-3.052,-3.0521,-3.053,-3.0511,-3.0511,-3.0491,-3.05,-3.0565,-3.0625,-3.0678,-3.076,-3.0774,-3.0794,-3.079,-3.08,-3.08,-3.0793,-3.0801,-3.0785,-3.0778,-3.0779,-3.0784,-3.0748,-3.0728,-3.0703,-3.0697,-3.0678,-3.069,-3.0649,-3.0621,-3.0616,-3.0673,-3.0697,-3.0724,-3.0728,-3.0714,-3.0734,-3.0764,-3.0779,-3.0769,-3.0774,-3.0779,-3.0745,-3.0689,-3.0734,-3.0753,-3.0736,-3.0717,-3.071,-3.068,-3.0637,-3.0621,-3.0621,-3.0602,-3.0593,-3.0361,-2.961,-2.8922,-2.8327,-2.8209,-2.846,-2.8612,-2.871,-2.8774,-2.8828,-2.8898,-2.9025,-2.8658,-2.8704,-2.9255,-2.9629,-2.9803,-3.0015,-3.0045,-3.0225,-3.0517,-3.0306,-2.9883,-3.02,-3.0553,-2.981,-2.8939,-2.7807,-2.6992,-2.6515,-2.6246,-2.6092,-2.8718,-2.891,-2.9141,-2.931,-2.9431,-2.9453,-2.957,-2.97,-2.9822,-2.9924,-3.001,-3.0026,-3.0022,-3.0049,-3.0104,-3.0221,-3.033,-3.0406,-3.0491,-3.0558,-3.0593,-3.0637,-3.0626,-3.0642,-3.063,-3.063,-3.063,-3.063,-3.063,-3.0626,-3.0645,-3.0626,-3.0614,-3.0622,-3.0642,-3.0691,-3.0764,-3.0778,-3.0791,-3.0788,-3.0795,-3.08,-3.0798,-3.079,-3.0794,-3.0798,-3.0793,-3.0759,-3.0736,-3.0724,-3.0685,-3.0685,-3.0685,-3.0678,-3.0634,-3.064,-3.0634,-3.0568,-3.055,-3.0568,-3.0613,-3.0719,-3.0697,-3.0704,-3.0711,-3.0742,-3.0742,-3.073,-3.073,-3.073,-3.0704,-3.0651,-3.0664,-3.071,-3.0703,-3.0707,-3.0684,-3.0649,-3.0604,-3.0597,-3.0588,-3.0559,-3.055,-3.055,-2.9977,-2.9821,-2.9361,-2.9477,-2.9712,-2.9894,-3.0036,-3.0049,-3.0092,-3.0049,-2.9923,-2.9562,-2.9511,-2.9968,-3.0309,-3.0508,-3.0761,-3.0836,-3.0788,-3.0677,-3.0726,-3.079,-3.0774,-3.0711,-3.0522,-2.9784,-2.8798,-2.7966,-2.7539,-2.7409,-2.7373,-2.8868,-2.9075,-2.9291,-2.9493,-2.9701,-2.9701,-2.9773,-2.991,-2.9991,-3.0053,-3.0102,-3.0117,-3.0128,-3.0147,-3.0241,-3.0309,-3.0439,-3.0511,-3.0565,-3.0649,-3.071,-3.073,-3.0749,-3.0742,-3.0728,-3.0728,-3.0734,-3.0714,-3.0728,-3.0697,-3.0685,-3.0691,-3.0734,-3.072,-3.075,-3.0778,-3.0798,-3.0799,-3.0795,-3.08,-3.0801,-3.0797,-3.0786,-3.0791,-3.079,-3.0784,-3.0778,-3.0743,-3.0697,-3.0683,-3.0649,-3.0649,-3.0661,-3.0645,-3.0604,-3.0635,-3.1196,-3.1272,-3.1474,-3.1502,-3.1651,-3.1652,-3.1047,-3.0665,-3.0634,-3.0664,-3.0664,-3.0664,-3.0722,-3.0741,-3.0746,-3.0699,-3.0731,-3.0787,-3.0748,-3.0759,-3.075,-3.0704,-3.0733,-3.0704,-3.0578,-3.0539,-3.0595,-3.049,-3.0326,-3.0385,-3.0443,-3.0664,-3.0746,-3.0707,-3.0717,-3.0671,-3.0667,-3.0535,-3.049,-3.0485,-3.0512,-3.0755,-3.0825,-3.0856,-3.0878,-3.084,-3.0837,-3.0831,-3.0806,-3.0813,-3.079,-3.0706,-3.0594,-3.0475,-3.0088,-2.9318,-2.8655,-2.8392,-2.8283,-2.903,-2.9209,-2.9433,-2.9645,-2.9878,-2.9893,-2.9994,-3.0102,-3.0102,-3.0117,-3.0117,-3.0171,-3.0207,-3.0222,-3.0333,-3.0422,-3.0501,-3.0571,-3.0651,-3.0691,-3.0753,-3.0789,-3.0784,-3.0778,-3.0786,-3.079,-3.079,-3.0774,-3.0782,-3.0754,-3.0706,-3.0721,-3.0782,-3.0778,-3.0791,-3.0784,-3.079,-3.0798,-3.0801,-3.0798,-3.0795,-3.0801,-3.0785,-3.0786,-3.0784,-3.0753,-3.0737,-3.071,-3.0661,-3.0618,-3.0582,-3.0602,-3.0621,-3.0621,-3.0615,-3.11,-3.2181,-3.2574,-3.2632,-3.2594,-3.2639,-3.2366,-3.1523,-3.0897,-3.0723,-3.0866,-3.0798,-3.0873,-3.0959,-3.0912,-3.0856,-3.0898,-3.0925,-3.0897,-3.0839,-3.0829,-3.0839,-3.0848,-3.0925,-3.0837,-3.0634,-3.0662,-3.1017,-3.0998,-3.1287,-3.1221,-3.132,-3.1312,-3.1284,-3.0726,-3.0719,-3.0678,-3.0691,-3.0764,-3.0784,-3.0802,-3.079,-3.0801,-3.0791,-3.0825,-3.0831,-3.0855,-3.0839,-3.0839,-3.0818,-3.0831,-3.0836,-3.082,-3.0767,-3.0652,-3.0526,-3.0267,-2.9499,-2.902,-2.8798,-2.9225,-2.9414,-2.9626,-2.9789,-2.9907,-3.0034,-3.0147,-3.0176,-3.0171,-3.0199,-3.024,-3.026,-3.0292,-3.0352,-3.0422,-3.051,-3.056,-3.0632,-3.0697,-3.075,-3.0778,-3.079,-3.0804,-3.0816,-3.0804,-3.0786,-3.0788,-3.0808,-3.0784,-3.0757,-3.0768,-3.0788,-3.0799,-3.081,-3.0797,-3.0801,-3.08,-3.0799,-3.079,-3.0786,-3.0836,-3.0876,-3.0876,-3.0896,-3.0981,-3.0951,-3.0923,-3.0859,-3.0806,-3.0722,-3.0598,-3.0578,-3.0616,-3.0627,-3.079,-3.2208,-3.2955,-3.3333,-3.3019,-3.291,-3.2979,-3.3075,-3.241,-3.2314,-3.1927,-3.1502,-3.1283,-3.1419,-3.1603,-3.169,-3.1909,-3.1989,-3.1877,-3.1754,-3.1669,-3.1565,-3.1565,-3.1565,-3.163,-3.1815,-3.1573,-3.1303,-3.1619,-3.2293,-3.2543,-3.2331,-3.2181,-3.2089,-3.1804,-3.1255,-3.0948,-3.0901,-3.0685,-3.0742,-3.0789,-3.0789,-3.0798,-3.0786,-3.0801,-3.0791,-3.0799,-3.0825,-3.0852,-3.0838,-3.082,-3.0838,-3.0871,-3.0845,-3.0794,-3.0791,-3.0687,-3.0587,-3.039,-2.9858,-2.9582,-2.861,-2.9102,-2.9264,-2.9569,-3.0015,-3.018,-3.0253,-3.0266,-3.026,-3.0273,-3.0299,-3.0359,-3.0398,-3.0432,-3.0491,-3.0568,-3.0633,-3.0689,-3.0765,-3.0771,-3.0788,-3.0819,-3.0849,-3.0835,-3.0838,-3.082,-3.082,-3.0839,-3.0819,-3.0835,-3.0829,-3.0829,-3.0837,-3.082,-3.082,-3.0795,-3.0784,-3.0796,-3.0788,-3.0798,-3.0899,-3.1115,-3.1251,-3.1326,-3.1423,-3.1576,-3.1584,-3.1514,-3.1536,-3.1564,-3.1514,-3.109,-3.1311,-3.1534,-3.2564,-3.3862,-3.4098,-3.4271,-3.4093,-3.3921,-3.3815,-3.3742,-3.367,-3.3727,-3.3212,-3.2634,-3.2494,-3.2485,-3.2617,-3.2752,-3.3083,-3.3306,-3.3075,-3.2864,-3.2679,-3.2494,-3.2474,-3.2455,-3.266,-3.2961,-3.275,-3.2326,-3.2602,-3.3353,-3.3526,-3.2923,-3.2627,-3.2632,-3.2312,-3.1796,-3.1486,-3.1382,-3.0994,-3.0724,-3.0787,-3.0891,-3.0843,-3.0832,-3.0786,-3.0798,-3.0801,-3.0791,-3.0821,-3.0831,-3.0818,-3.084,-3.0859,-3.0837,-3.0795,-3.0793,-3.0811,-3.0745,-3.069,-3.0533,-3.0399,-2.7511,-2.8418,-2.8574,-2.9201,-3.0079,-3.0228,-3.0348,-3.039,-3.0359,-3.0328,-3.0352,-3.0439,-3.0501,-3.0519,-3.0568,-3.0633,-3.07,-3.0754,-3.0778,-3.0801,-3.0808,-3.0834,-3.0877,-3.0879,-3.0839,-3.0857,-3.0876,-3.0856,-3.0878,-3.0879,-3.0878,-3.0878,-3.0879,-3.0857,-3.079,-3.0774,-3.0774,-3.0789,-3.0955,-3.11,-3.1251,-3.1598,-3.2104,-3.2205,-3.2598,-3.3001,-3.3006,-3.3035,-3.3111,-3.3059,-3.2756,-3.2031,-3.223,-3.3168,-3.4542,-3.4983,-3.4963,-3.4975,-3.4902,-3.4818,-3.4904,-3.4986,-3.5164,-3.484,-3.4181,-3.3723,-3.3552,-3.3585,-3.3728,-3.3742,-3.3959,-3.4167,-3.4094,-3.3838,-3.3614,-3.359,-3.3695,-3.3618,-3.3646,-3.3871,-3.3833,-3.3474,-3.359,-3.4301,-3.4507,-3.3622,-3.3391,-3.3474,-3.3145,-3.2643,-3.2193,-3.2027,-3.1767,-3.1436,-3.121,-3.1234,-3.0959,-3.0877,-3.0867,-3.0798,-3.0802,-3.079,-3.0785,-3.0799,-3.081,-3.0795,-3.0798,-3.08,-3.0801,-3.0801,-3.082,-3.0859,-3.0855,-3.0804,-3.0791,-2.7191,-2.766,-2.8479,-2.9065,-2.944,-3.0079,-3.0425,-3.049,-3.051,-3.05,-3.0471,-3.053,-3.0576,-3.0587,-3.0652,-3.0706,-3.0754,-3.0765,-3.0782,-3.0813,-3.0838,-3.084,-3.0878,-3.0855,-3.0829,-3.0806,-3.0823,-3.0845,-3.0852,-3.0856,-3.0857,-3.0816,-3.0832,-3.0804,-3.0788,-3.0767,-3.0755,-3.0911,-3.141,-3.1702,-3.1942,-3.2438,-3.2931,-3.2954,-3.3236,-3.3335,-3.3286,-3.3227,-3.3125,-3.3003,-3.2947,-3.2641,-3.2423,-3.4178,-3.4988,-3.519,-3.5174,-3.5223,-3.5258,-3.5209,-3.5164,-3.5148,-3.5111,-3.5073,-3.4899,-3.4735,-3.4633,-3.471,-3.4729,-3.469,-3.4713,-3.4893,-3.4992,-3.4699,-3.448,-3.4645,-3.481,-3.4711,-3.4606,-3.4635,-3.4716,-3.4749,-3.4773,-3.4903,-3.5128,-3.5089,-3.4988,-3.4885,-3.4546,-3.4044,-3.3191,-3.2938,-3.28,-3.2493,-3.2077,-3.1774,-3.1617,-3.1201,-3.1081,-3.0964,-3.0813,-3.0789,-3.0786,-3.0801,-3.0794,-3.0799,-3.0801,-3.0786,-3.0788,-3.0792,-3.0795,-3.0836,-3.0858,-3.082,-3.0816,-2.6349,-2.7001,-2.8383,-2.9044,-2.9267,-3.0081,-3.0509,-3.054,-3.0606,-3.0623,-3.0604,-3.0618,-3.0649,-3.0652,-3.0725,-3.0759,-3.0801,-3.0784,-3.0814,-3.0839,-3.0839,-3.0856,-3.085,-3.0823,-3.0799,-3.0794,-3.0791,-3.0813,-3.0821,-3.0825,-3.0825,-3.0801,-3.0796,-3.0781,-3.0759,-3.0745,-3.0918,-3.1273,-3.2003,-3.2546,-3.2901,-3.3477,-3.375,-3.3732,-3.3984,-3.406,-3.4182,-3.4168,-3.4159,-3.4109,-3.4134,-3.4087,-3.4036,-3.468,-3.5015,-3.5091,-3.5108,-3.516,-3.5193,-3.5143,-3.5057,-3.5058,-3.5076,-3.5019,-3.5001,-3.4824,-3.4859,-3.4916,-3.4845,-3.4807,-3.4843,-3.498,-3.5035,-3.488,-3.4838,-3.4931,-3.5018,-3.5028,-3.4983,-3.5032,-3.5076,-3.5124,-3.5158,-3.5205,-3.5372,-3.5372,-3.5468,-3.5468,-3.5264,-3.5123,-3.4333,-3.3801,-3.3635,-3.3294,-3.2765,-3.2562,-3.2467,-3.1994,-3.1462,-3.1156,-3.1006,-3.0842,-3.076,-3.0774,-3.0782,-3.0786,-3.0794,-3.0778,-3.0785,-3.0788,-3.0794,-3.0801,-3.0808,-3.0813,-3.082,-2.5362,-2.6384,-2.8015,-2.8844,-2.9107,-2.9999,-3.0491,-3.0606,-3.0676,-3.0703,-3.0704,-3.0704,-3.0716,-3.0725,-3.0759,-3.0785,-3.0784,-3.0797,-3.082,-3.0839,-3.0832,-3.0827,-3.0821,-3.0791,-3.0785,-3.0798,-3.0798,-3.0801,-3.0788,-3.081,-3.081,-3.0788,-3.0774,-3.0754,-3.0739,-3.0918,-3.1207,-3.1848,-3.2618,-3.3538,-3.409,-3.4565,-3.4555,-3.4816,-3.5162,-3.5546,-3.555,-3.5502,-3.547,-3.5339,-3.5091,-3.4975,-3.4878,-3.4973,-3.4924,-3.4982,-3.5001,-3.5054,-3.5107,-3.5073,-3.5001,-3.4983,-3.5001,-3.5001,-3.5001,-3.502,-3.5056,-3.5019,-3.4964,-3.4926,-3.4964,-3.4964,-3.502,-3.5057,-3.5092,-3.511,-3.5179,-3.5229,-3.5261,-3.5293,-3.5324,-3.5369,-3.5398,-3.5446,-3.5474,-3.5474,-3.5507,-3.5507,-3.5449,-3.538,-3.4982,-3.4583,-3.4392,-3.3954,-3.3489,-3.335,-3.3297,-3.2788,-3.2259,-3.165,-3.1242,-3.1248,-3.1098,-3.0773,-3.0784,-3.0789,-3.0789,-3.0769,-3.0779,-3.0769,-3.0767,-3.0758,-3.0791,-3.0799,-3.0829,-2.5037,-2.5516,-2.6628,-2.7518,-2.8289,-2.9205,-2.9945,-3.063,-3.0683,-3.0717,-3.0759,-3.0764,-3.0774,-3.0804,-3.0781,-3.0784,-3.0796,-3.0801,-3.0797,-3.0806,-3.0801,-3.0794,-3.0785,-3.0794,-3.0802,-3.0798,-3.0798,-3.0786,-3.0767,-3.0786,-3.0802,-3.0793,-3.073,-3.0761,-3.0866,-3.1173,-3.1734,-3.2406,-3.3247,-3.4163,-3.445,-3.4897,-3.5334,-3.5477,-3.5512,-3.5565,-3.5509,-3.5496,-3.5463,-3.5407,-3.535,-3.5239,-3.5141,-3.5037,-3.4945,-3.4927,-3.4945,-3.4964,-3.4982,-3.502,-3.5001,-3.5094,-3.5111,-3.5075,-3.5075,-3.5092,-3.5092,-3.5073,-3.5019,-3.4945,-3.4945,-3.4945,-3.4964,-3.5001,-3.5057,-3.5092,-3.5127,-3.5181,-3.5215,-3.5212,-3.5207,-3.5258,-3.5293,-3.5354,-3.5446,-3.546,-3.5507,-3.5507,-3.5507,-3.5501,-3.5495,-3.5271,-3.5007,-3.4747,-3.4311,-3.4197,-3.4051,-3.3546,-3.3067,-3.2528,-3.2096,-3.1838,-3.1612,-3.1184,-3.0892,-3.0821,-3.0801,-3.0717,-3.0743,-3.0742,-3.0725,-3.0726,-3.0763,-3.0801,-3.0813]},{"header":{"parameterUnit":"m.s-1","parameterCategory":1,"la1":31.0,"la2":29.5877,"lo1":-88.7671,"lo2":-86.6584,"dy":0.0162,"dx":0.0185,"nx":115,"ny":88,"refTime":"2024-04-19T00:00:00:Z","depth":0,"parameterNumber":3,"parameterNumberName":"V-component_of_WINDS"},"data":[0.0,0.0,0.0,0.0,0.0,0.0,0.0,0.0,0.0,0.0,0.0,0.0,0.0,0.0,0.0,0.0,0.0,0.0,0.0,0.0,0.0,0.0,0.0,0.0,0.0,0.0,0.0,0.0,0.0,0.0,0.0,0.0,0.0,0.0,0.0,0.0,0.0,0.0,0.0,0.0,0.0,0.0,0.0,0.0,0.0,0.0,0.0,0.0,0.0,0.0,0.0,0.0,0.0,0.0,0.0,0.0,0.0,0.0,0.0,0.0,0.0,0.0,0.0,0.0,0.0,0.0,0.0,0.0,0.0,0.0,0.0,0.0,0.0,0.0,0.0,0.0,0.0,0.0,0.0,0.0,0.0,0.0,0.0,0.0,0.0,0.0,0.0,0.0,0.0,0.0,0.0,0.0,0.0,0.0,0.0,0.0,0.0,0.0,0.0,0.0,0.0,0.0,0.0,0.0,0.0,0.0,0.0,0.0,0.0,0.0,0.0,0.0,0.0,0.0,0.0,0.0,0.0,0.0,0.0,0.0,0.0,0.0,0.0,0.0,0.0,0.0,0.0,0.0,0.0,0.0,0.0,0.0,0.0,0.0,0.0,0.0,0.0,0.0,0.0,0.0,0.0,0.0,0.0,0.0,0.0,0.0,0.0,0.0,0.0,0.0,0.0,0.0,0.0,0.0,0.0,0.0,0.0,0.0,0.0,0.0,0.0,0.0,0.0,0.0,0.0,0.0,0.0,0.0,0.0,0.0,0.0,0.0,0.0,0.0,0.0,0.0,0.0,0.0,0.0,0.0,0.0,0.0,0.0,0.0,0.0,0.0,0.0,0.0,0.0,0.0,0.0,0.0,0.0,0.0,0.0,0.0,0.0,0.0,0.0,0.0,0.0,0.0,0.0,0.0,0.0,0.0,0.0,0.0,0.0,0.0,0.0,0.0,0.0,0.0,0.0,0.0,0.0,0.0,0.0,0.0,0.0,0.0,0.0,0.0,0.0,0.0,0.0,0.0,0.0,0.0,0.0,0.0,0.0,0.0,0.0,0.0,0.0,0.0,0.0,0.0,0.0,0.0,0.0,0.0,0.0,0.0,0.0,0.0,0.0,0.0,0.0,0.0,0.0,0.0,0.0,0.0,0.0,0.0,0.0,0.0,0.0,0.0,0.0,0.0,0.0,0.0,0.0,0.0,0.0,0.0,0.0,0.0,0.0,0.0,0.0,0.0,0.0,0.0,0.0,0.0,0.0,0.0,0.0,0.0,0.0,0.0,0.0,0.0,0.0,0.0,0.0,0.0,0.0,0.0,0.0,0.0,0.0,0.0,0.0,0.0,0.0,0.0,0.0,0.0,0.0,0.0,0.0,0.0,0.0,0.0,0.0,0.0,0.0,0.0,0.0,0.0,0.0,0.0,0.0,0.0,0.0,0.0,0.0,0.0,0.0,0.0,0.0,0.0,0.0,0.0,0.0,0.0,0.0,0.0,0.0,0.0,0.0,0.0,0.0,0.0,0.0,0.0,0.0,0.0,0.0,0.0,0.0,0.0,0.0,0.0,0.0,0.0,0.0,0.0,0.0,0.0,0.0,0.0,0.0,0.0,0.0,0.0,0.0,0.0,0.0,0.0,0.0,0.0,0.0,0.0,0.0,0.0,0.0,0.0,0.0,0.0,0.0,0.0,0.0,0.0,0.0,0.0,0.0,0.0,0.0,0.0,0.0,0.0,0.0,0.0,0.0,0.0,0.0,0.0,0.0,0.0,0.0,0.0,0.0,0.0,0.0,0.0,0.0,0.0,0.0,0.0,0.0,0.0,0.0,0.0,0.0,0.0,0.0,0.0,0.0,0.0,0.0,0.0,0.0,0.0,0.0,0.0,0.0,0.0,0.0,0.0,0.0,0.0,0.0,0.0,0.0,0.0,0.0,0.0,0.0,0.0,0.0,0.0,0.0,0.0,0.0,0.0,0.0,0.0,0.0,0.0,0.0,0.0,0.0,0.0,0.0,0.0,0.0,0.0,0.0,0.0,0.0,0.0,0.0,0.0,0.0,0.0,0.0,0.0,0.0,0.0,0.0,0.0,0.0,0.0,0.0,0.0,0.0,0.0,0.0,0.0,0.0,0.0,0.0,0.0,0.0,0.0,0.0,0.0,0.0,0.0,0.0,0.0,0.0,0.0,0.0,0.0,0.0,0.0,0.0,0.0,0.0,0.0,0.0,0.0,0.0,0.0,0.0,0.0,0.0,0.0,0.0,0.0,0.0,0.0,0.0,0.0,0.0,0.0,0.0,0.0,0.0,0.0,0.0,0.0,0.0,0.0,0.0,0.0,0.0,0.0,0.0,0.0,0.0,0.0,0.0,0.0,0.0,0.0,0.0,0.0,0.0,0.0,0.0,0.0,0.0,0.0,0.0,0.0,0.0,0.0,0.0,0.0,0.0,0.0,0.0,0.0,0.0,0.0,0.0,0.0,0.0,0.0,0.0,0.0,0.0,0.0,0.0,0.0,0.0,0.0,0.0,0.0,0.0,0.0,0.0,0.0,0.0,0.0,0.0,0.0,0.0,0.0,0.0,0.0,0.0,0.0,0.0,0.0,0.0,0.0,0.0,0.0,0.0,0.0,0.0,0.0,0.0,0.0,0.0,0.0,0.0,0.0,0.0,0.0,0.0,0.0,0.0,0.0,0.0,0.0,0.0,0.0,0.0,0.0,0.0,0.0,0.0,0.0,0.0,0.0,0.0,0.0,0.0,0.0,0.0,0.0,0.0,0.0,0.0,0.0,0.0,0.0,0.0,0.0,0.0,0.0,0.0,0.0,0.0,0.0,0.0,0.0,0.0,0.0,0.0,0.0,0.0,0.0,0.0,0.0,0.0,0.0,0.0,0.0,0.0,0.0,0.0,0.0,0.0,0.0,0.0,0.0,0.0,0.0,0.0,0.0,0.0,0.0,0.0,0.0,0.0,0.0,0.0,0.0,0.0,0.0,0.0,0.0,0.0,0.0,0.0,0.0,0.0,0.0,0.0,0.0,0.0,0.0,0.0,0.0,0.0,0.0,0.0,0.0,0.0,0.0,0.0,0.0,0.0,0.0,0.0,0.0,0.0,0.0,0.0,0.0,0.0,0.0,0.0,0.0,0.0,0.0,0.0,0.0,0.0,0.0,0.0,0.0,0.0,0.0,0.0,0.0,0.0,0.0,0.0,0.0,0.0,0.0,0.0,0.0,0.0,0.0,0.0,0.0,0.0,0.0,0.0,0.0,0.0,0.0,0.0,0.0,0.0,0.0,0.0,0.0,0.0,0.0,0.0,0.0,0.0,0.0,0.0,0.0,0.0,0.0,0.0,0.0,0.0,0.0,0.0,0.0,0.0,0.0,0.0,0.0,0.0,0.0,0.0,0.0,0.0,0.0,0.0,0.0,0.0,0.0,0.0,0.0,0.0,0.0,0.0,0.0,0.0,0.0,0.0,0.0,0.0,0.0,0.0,0.0,0.0,0.0,0.0,0.0,0.0,0.0,0.0,0.0,0.0,0.0,0.0,0.0,0.0,0.0,0.0,0.0,0.0,0.0,0.0,0.0,0.0,0.0,0.0,0.0,0.0,0.0,0.0,0.0,0.0,0.0,0.0,0.0,0.0,0.0,0.0,0.0,0.0,0.0,0.0,0.0,0.0,0.0,0.0,0.0,0.0,0.0,0.0,0.0,0.0,0.0,0.0,0.0,0.0,0.0,0.0,0.0,0.0,0.0,0.0,0.0,0.0,0.0,0.0,0.0,0.0,0.0,0.0,0.0,0.0,0.0,0.0,0.0,0.0,0.0,0.0,0.0,0.0,0.0,0.0,0.0,0.0,0.0,0.0,0.0,0.0,0.0,0.0,0.0,0.0,0.0,0.0,0.0,0.0,0.0,0.0,0.0,0.0,0.0,0.0,0.0,0.0,0.0,0.0,0.0,0.0,0.0,0.0,0.0,0.0,0.0,0.0,0.0,0.0,0.0,0.0,0.0,0.0,0.0,0.0,0.0,0.0,0.0,0.0,0.0,0.0,0.0,0.0,0.0,0.0,0.0,0.0,0.0,0.0,0.0,0.0,0.0,0.0,0.0,0.0,0.0,0.0,0.0,0.0,0.0,0.0,0.0,0.0,0.0,0.0,0.0,0.0,0.0,0.0,0.0,0.0,0.0,0.0,0.0,0.0,0.0,0.0,0.0,0.0,0.0,0.0,0.0,0.0,0.0,0.0,0.0,0.0,0.0,0.0,0.0,0.0,0.0,0.0,0.0,0.0,0.0,-0.4121,0.0,0.0,0.0,0.0,0.0,0.0,0.0,0.0,0.0,0.0,0.0,0.0,0.0,0.0,0.0,0.0,0.0,0.0,0.0,0.0,0.0,0.0,0.0,0.0,0.0,0.0,0.0,0.0,0.0,0.0,0.0,0.0,0.0,0.0,0.0,0.0,0.0,0.0,0.0,0.0,0.0,0.0,0.0,0.0,0.0,0.0,0.0,0.0,0.0,0.0,0.0,0.0,0.0,0.0,0.0,0.0,0.0,0.0,0.0,0.0,0.0,0.0,0.0,0.0,0.0,0.0,0.0,0.0,0.0,0.0,0.0,0.0,0.0,0.0,0.0,0.0,0.0,0.0,0.0,0.0,0.0,0.0,0.0,0.0,0.0,0.0,0.0,0.0,0.0,0.0,0.0,0.0,0.0,0.0,0.0,0.0,0.0,0.0,0.0,0.0,0.0,0.0,0.0,0.0,0.0,0.0,0.0,0.0,0.0,0.0,-0.5392,-0.5541,-0.5316,-0.5121,-0.4967,0.0,0.0,0.0,0.0,0.0,0.0,0.0,0.0,0.0,0.0,0.0,0.0,0.0,0.0,0.0,0.0,0.0,0.0,0.0,0.0,0.0,0.0,0.0,0.0,0.0,0.0,0.0,0.0,0.0,0.0,0.0,0.0,0.0,0.0,0.0,0.0,0.0,0.0,0.0,0.0,0.0,0.0,0.0,0.0,0.0,0.0,0.0,0.0,0.0,0.0,0.0,0.0,0.0,0.0,0.0,0.0,0.0,0.0,0.0,0.0,0.0,0.0,0.0,0.0,0.0,0.0,0.0,0.0,0.0,0.0,0.0,0.0,0.0,0.0,0.0,0.0,0.0,0.0,0.0,0.0,0.0,0.0,0.0,0.0,0.0,0.0,0.0,0.0,0.0,0.0,0.0,0.0,0.0,0.0,0.0,0.0,0.0,0.0,0.0,0.0,0.0,0.0,0.0,0.0,0.0,0.0,0.0,0.0,0.0,0.0,0.0,0.0,-0.5881,-0.5755,-0.5805,0.0,0.0,0.0,0.0,0.0,0.0,0.0,0.0,0.0,0.0,0.0,0.0,0.0,0.0,0.0,0.0,0.0,0.0,0.0,0.0,0.0,0.0,0.0,0.0,0.0,0.0,0.0,0.0,0.0,0.0,0.0,0.0,0.0,0.0,0.0,0.0,0.0,0.0,0.0,0.0,0.0,0.0,0.0,0.0,0.0,0.0,0.0,0.0,0.0,0.0,0.0,0.0,0.0,0.0,0.0,0.0,0.0,0.0,0.0,0.0,0.0,0.0,0.0,0.0,0.0,0.0,0.0,0.0,0.0,0.0,0.0,0.0,0.0,0.0,0.0,0.0,0.0,0.0,0.0,0.0,0.0,0.0,0.0,0.0,0.0,0.0,0.0,0.0,0.0,0.0,0.0,0.0,0.0,0.0,0.0,0.0,0.0,0.0,0.0,0.0,0.0,0.0,0.0,0.0,0.0,0.0,0.0,0.0,0.0,0.0,-0.6507,-0.6484,-0.6382,0.0,-0.6402,0.0,0.0,0.0,0.0,0.0,0.0,0.0,0.0,0.0,0.0,0.0,0.0,0.0,0.0,0.0,0.0,0.0,0.0,0.0,0.0,0.0,0.0,0.0,0.0,0.0,0.0,0.0,0.0,0.0,0.0,0.0,0.0,0.0,0.0,0.0,0.0,0.0,0.0,0.0,0.0,0.0,0.0,0.0,0.0,0.0,0.0,0.0,0.0,0.0,0.0,0.0,0.0,0.0,0.0,0.0,0.0,0.0,0.0,0.0,0.0,0.0,0.0,0.0,0.0,0.0,0.0,0.0,0.0,0.0,0.0,0.0,0.0,0.0,0.0,0.0,0.0,0.0,0.0,0.0,0.0,0.0,0.0,0.0,0.0,0.0,0.0,0.0,0.0,0.0,0.0,0.0,0.0,0.0,0.0,0.0,0.0,0.0,0.0,0.0,0.0,0.0,0.0,0.0,0.0,0.0,0.0,0.0,0.0,0.0,0.0,-0.7044,-0.7484,-0.709,-0.6856,0.0,0.0,0.0,0.0,0.0,0.0,0.0,0.0,0.0,0.0,0.0,0.0,0.0,0.0,0.0,0.0,0.0,0.0,0.0,0.0,0.0,0.0,0.0,0.0,0.0,0.0,0.0,0.0,0.0,0.0,0.0,0.0,0.0,0.0,0.0,0.0,0.0,0.0,0.0,0.0,0.0,0.0,0.0,0.0,0.0,0.0,0.0,0.0,0.0,0.0,0.0,0.0,0.0,0.0,0.0,0.0,0.0,0.0,0.0,0.0,0.0,0.0,0.0,0.0,0.0,0.0,0.0,0.0,0.0,0.0,0.0,0.0,0.0,0.0,0.0,0.0,0.0,0.0,0.0,0.0,0.0,0.0,0.0,0.0,0.0,0.0,0.0,0.0,0.0,0.0,0.0,0.0,0.0,0.0,0.0,0.0,0.0,0.0,0.0,0.0,0.0,0.0,0.0,0.0,0.0,0.0,0.0,0.0,0.0,0.0,-0.711,-0.7457,-0.8116,-0.7651,-0.7358,-0.7368,0.0,0.0,0.0,0.0,0.0,0.0,0.0,0.0,0.0,0.0,0.0,0.0,0.0,0.0,0.0,0.0,0.0,0.0,0.0,0.0,0.0,0.0,0.0,0.0,0.0,0.0,0.0,0.0,0.0,0.0,0.0,0.0,0.0,0.0,0.0,0.0,0.0,0.0,0.0,0.0,0.0,0.0,0.0,0.0,0.0,0.0,0.0,0.0,0.0,0.0,0.0,0.0,0.0,0.0,0.0,0.0,0.0,0.0,0.0,0.0,0.0,0.0,0.0,0.0,0.0,0.0,0.0,0.0,0.0,0.0,0.0,0.0,0.0,0.0,0.0,0.0,0.0,0.0,0.0,0.0,0.0,0.0,0.0,0.0,0.0,0.0,0.0,0.0,0.0,0.0,0.0,0.0,0.0,0.0,0.0,0.0,0.0,0.0,0.0,0.0,0.0,0.0,0.0,0.0,0.0,0.0,0.0,0.0,-0.6941,-0.7169,-0.7595,-0.8175,-0.79,-0.7949,0.0,0.0,0.0,0.0,0.0,0.0,0.0,0.0,0.0,0.0,0.0,0.0,0.0,0.0,0.0,0.0,0.0,0.0,0.0,0.0,0.0,0.0,0.0,0.0,0.0,0.0,0.0,0.0,0.0,0.0,0.0,0.0,0.0,0.0,0.0,0.0,0.0,0.0,0.0,0.0,0.0,0.0,0.0,0.0,0.0,0.0,0.0,0.0,0.0,0.0,0.0,0.0,0.0,0.0,0.0,0.0,0.0,0.0,0.0,0.0,0.0,0.0,0.0,0.0,0.0,0.0,0.0,0.0,0.0,0.0,0.0,0.0,0.0,0.0,0.0,0.0,0.0,0.0,0.0,0.0,0.0,0.0,0.0,0.0,0.0,0.0,0.0,0.0,0.0,0.0,0.0,0.0,0.0,0.0,0.0,0.0,0.0,0.0,0.0,0.0,0.0,0.0,0.0,0.0,0.0,0.0,0.0,0.0,0.0,-0.7225,-0.7526,-0.785,-0.8165,-0.791,-0.7907,0.0,0.0,0.0,0.0,0.0,0.0,0.0,0.0,0.0,0.0,0.0,0.0,0.0,0.0,0.0,0.0,0.0,0.0,0.0,0.0,0.0,0.0,0.0,0.0,0.0,0.0,0.0,0.0,0.0,0.0,0.0,0.0,0.0,0.0,0.0,0.0,0.0,0.0,0.0,0.0,0.0,0.0,0.0,0.0,0.0,0.0,0.0,0.0,0.0,0.0,0.0,0.0,0.0,0.0,0.0,0.0,0.0,0.0,0.0,0.0,0.0,0.0,0.0,0.0,0.0,0.0,0.0,0.0,0.0,0.0,0.0,0.0,0.0,0.0,0.0,0.0,0.0,0.0,0.0,0.0,0.0,0.0,0.0,0.0,0.0,0.0,0.0,0.0,0.0,0.0,0.0,0.0,0.0,0.0,0.0,0.0,0.0,0.0,0.0,0.0,0.0,0.0,0.0,0.0,0.0,0.0,0.0,0.0,0.0,-0.7181,0.0,-0.7859,-0.8013,-0.7907,-0.7978,0.0,0.0,0.0,0.0,0.0,0.0,0.0,0.0,0.0,0.0,0.0,0.0,0.0,0.0,0.0,0.0,0.0,0.0,0.0,0.0,0.0,0.0,0.0,0.0,0.0,0.0,0.0,0.0,0.0,0.0,0.0,0.0,0.0,0.0,0.0,0.0,0.0,0.0,0.0,0.0,0.0,0.0,0.0,0.0,0.0,0.0,0.0,0.0,0.0,0.0,0.0,0.0,0.0,0.0,0.0,0.0,0.0,0.0,0.0,0.0,0.0,0.0,0.0,0.0,0.0,0.0,0.0,0.0,0.0,0.0,0.0,0.0,0.0,0.0,0.0,0.0,0.0,0.0,0.0,0.0,0.0,0.0,0.0,0.0,0.0,0.0,0.0,0.0,0.0,0.0,0.0,0.0,0.0,0.0,0.0,0.0,0.0,0.0,0.0,0.0,0.0,0.0,0.0,0.0,0.0,0.0,0.0,0.0,-0.7099,-0.6744,-0.723,-0.7535,-0.7705,-0.7905,-0.8209,0.0,0.0,0.0,0.0,0.0,0.0,0.0,0.0,0.0,0.0,0.0,0.0,0.0,0.0,0.0,0.0,0.0,0.0,0.0,0.0,0.0,0.0,0.0,0.0,0.0,0.0,0.0,0.0,0.0,0.0,0.0,0.0,0.0,0.0,0.0,0.0,0.0,0.0,0.0,0.0,0.0,0.0,0.0,0.0,0.0,0.0,0.0,0.0,0.0,0.0,0.0,0.0,0.0,0.0,0.0,0.0,0.0,0.0,0.0,0.0,0.0,0.0,0.0,0.0,0.0,0.0,0.0,0.0,0.0,0.0,0.0,0.0,0.0,0.0,0.0,0.0,0.0,0.0,0.0,0.0,0.0,0.0,0.0,0.0,0.0,0.0,0.0,0.0,0.0,0.0,0.0,0.0,0.0,0.0,0.0,0.0,0.0,0.0,0.0,0.0,0.0,0.0,0.0,0.0,0.0,0.0,0.0,0.0,0.0,-0.6719,-0.6867,-0.7009,-0.7153,-0.7344,-0.7608,0.0,0.0,0.0,0.0,0.0,0.0,0.0,0.0,0.0,0.0,0.0,0.0,0.0,0.0,0.0,0.0,0.0,0.0,0.0,0.0,0.0,0.0,0.0,0.0,0.0,0.0,0.0,0.0,0.0,0.0,0.0,0.0,0.0,0.0,0.0,0.0,0.0,0.0,0.0,0.0,0.0,0.0,0.0,0.0,0.0,0.0,0.0,0.0,0.0,0.0,0.0,0.0,0.0,0.0,0.0,0.0,0.0,0.0,0.0,0.0,0.0,0.0,0.0,0.0,0.0,0.0,0.0,0.0,0.0,0.0,0.0,0.0,0.0,0.0,0.0,0.0,0.0,0.0,0.0,0.0,0.0,0.0,0.0,0.0,0.0,0.0,0.0,0.0,0.0,0.0,0.0,0.0,0.0,0.0,0.0,0.0,0.0,0.0,0.0,0.0,0.0,0.0,0.0,0.0,0.0,0.0,0.0,0.0,0.0,-0.6706,-0.6655,-0.6676,-0.6774,-0.7023,-0.7251,-0.7514,0.0,0.0,0.0,0.0,0.0,0.0,0.0,0.0,0.0,0.0,0.0,0.0,0.0,0.0,0.0,0.0,0.0,0.0,0.0,0.0,0.0,0.0,0.0,0.0,0.0,0.0,0.0,0.0,0.0,0.0,0.0,0.0,0.0,0.0,0.0,0.0,0.0,0.0,0.0,0.0,0.0,0.0,0.0,0.0,0.0,0.0,0.0,0.0,0.0,0.0,0.0,0.0,0.0,0.0,0.0,0.0,0.0,0.0,0.0,0.0,0.0,0.0,0.0,0.0,0.0,0.0,0.0,0.0,0.0,0.0,0.0,0.0,0.0,0.0,0.0,0.0,0.0,0.0,0.0,0.0,0.0,0.0,0.0,0.0,0.0,0.0,0.0,0.0,0.0,0.0,0.0,0.0,0.0,0.0,0.0,0.0,0.0,0.0,0.0,0.0,0.0,0.0,0.0,0.0,0.0,0.0,0.0,0.0,-0.6719,-0.6544,-0.6505,-0.6594,-0.6841,-0.7107,0.0,0.0,0.0,0.0,0.0,0.0,0.0,0.0,0.0,0.0,0.0,0.0,0.0,0.0,0.0,0.0,0.0,0.0,0.0,0.0,0.0,0.0,0.0,0.0,0.0,0.0,0.0,0.0,0.0,0.0,0.0,0.0,0.0,0.0,0.0,0.0,0.0,0.0,0.0,0.0,0.0,0.0,0.0,0.0,0.0,0.0,0.0,0.0,0.0,0.0,0.0,0.0,0.0,0.0,0.0,0.0,0.0,0.0,0.0,0.0,0.0,0.0,0.0,0.0,0.0,0.0,0.0,0.0,0.0,0.0,0.0,0.0,0.0,0.0,0.0,0.0,0.0,0.0,0.0,0.0,0.0,0.0,0.0,0.0,0.0,0.0,0.0,0.0,0.0,0.0,0.0,0.0,0.0,0.0,0.0,0.0,0.0,0.0,0.0,0.0,0.0,0.0,0.0,0.0,0.0,0.0,0.0,0.0,0.0,-0.6774,-0.6495,-0.6361,-0.6396,-0.6599,-0.6807,0.0,0.0,0.0,0.0,0.0,0.0,0.0,0.0,0.0,0.0,0.0,0.0,0.0,0.0,0.0,0.0,0.0,0.0,0.0,0.0,0.0,0.0,0.0,0.0,0.0,0.0,0.0,0.0,0.0,0.0,0.0,0.0,0.0,0.0,0.0,0.0,0.0,0.0,0.0,0.0,0.0,0.0,0.0,0.0,0.0,0.0,0.0,0.0,0.0,0.0,0.0,0.0,0.0,0.0,0.0,0.0,0.0,0.0,0.0,0.0,0.0,0.0,0.0,0.0,0.0,0.0,0.0,0.0,0.0,0.0,0.0,0.0,0.0,0.0,0.0,0.0,0.0,0.0,0.0,0.0,0.0,0.0,0.0,0.0,0.0,0.0,0.0,0.0,0.0,0.0,0.0,0.0,0.0,0.0,0.0,0.0,0.0,0.0,0.0,0.0,0.0,0.0,0.0,0.0,0.0,0.0,0.0,0.0,-0.6927,-0.6807,-0.6483,-0.6296,-0.6236,-0.6437,-0.6633,0.0,0.0,0.0,0.0,0.0,0.0,0.0,0.0,0.0,0.0,0.0,0.0,0.0,0.0,0.0,0.0,0.0,0.0,0.0,0.0,0.0,0.0,0.0,0.0,0.0,0.0,0.0,0.0,0.0,0.0,0.0,0.0,0.0,0.0,0.0,0.0,0.0,0.0,0.0,0.0,0.0,0.0,0.0,0.0,0.0,0.0,0.0,0.0,0.0,0.0,0.0,0.0,0.0,0.0,0.0,0.0,0.0,0.0,0.0,0.0,0.0,0.0,0.0,0.0,0.0,0.0,0.0,0.0,0.0,0.0,0.0,0.0,0.0,0.0,0.0,0.0,0.0,0.0,0.0,0.0,0.0,0.0,0.0,0.0,0.0,0.0,0.0,0.0,0.0,0.0,0.0,0.0,0.0,0.0,0.0,0.0,0.0,0.0,0.0,0.0,0.0,0.0,0.0,0.0,0.0,0.0,0.0,0.0,-0.7023,-0.6807,-0.654,-0.6295,-0.6141,-0.6337,-0.6495,0.0,0.0,0.0,0.0,0.0,0.0,0.0,0.0,0.0,0.0,0.0,0.0,0.0,0.0,0.0,0.0,0.0,0.0,0.0,0.0,0.0,0.0,0.0,0.0,0.0,0.0,0.0,0.0,0.0,0.0,0.0,0.0,0.0,0.0,0.0,0.0,0.0,0.0,0.0,0.0,0.0,0.0,0.0,0.0,0.0,0.0,0.0,0.0,0.0,0.0,0.0,0.0,0.0,0.0,0.0,0.0,0.0,0.0,0.0,0.0,0.0,0.0,0.0,0.0,0.0,0.0,0.0,0.0,0.0,0.0,0.0,0.0,0.0,0.0,0.0,0.0,0.0,0.0,0.0,0.0,0.0,0.0,0.0,0.0,0.0,0.0,0.0,0.0,0.0,0.0,0.0,0.0,0.0,0.0,0.0,0.0,0.0,0.0,0.0,0.0,0.0,0.0,0.0,0.0,0.0,0.0,0.0,0.0,-0.7026,-0.6874,-0.6522,-0.6278,-0.6194,-0.6248,-0.6307,0.0,0.0,0.0,0.0,0.0,0.0,0.0,0.0,0.0,0.0,0.0,0.0,0.0,0.0,0.0,0.0,0.0,0.0,0.0,0.0,0.0,0.0,0.0,0.0,0.0,0.0,0.0,0.0,0.0,0.0,0.0,0.0,0.0,0.0,0.0,0.0,0.0,0.0,0.0,0.0,0.0,0.0,0.0,0.0,0.0,0.0,0.0,0.0,-1.02,0.0,0.0,0.0,0.0,0.0,0.0,0.0,0.0,0.0,0.0,0.0,0.0,0.0,0.0,0.0,0.0,0.0,0.0,0.0,0.0,0.0,0.0,0.0,0.0,0.0,0.0,0.0,0.0,0.0,0.0,0.0,0.0,0.0,0.0,0.0,0.0,0.0,0.0,0.0,0.0,0.0,0.0,0.0,0.0,0.0,0.0,0.0,0.0,0.0,0.0,0.0,0.0,0.0,0.0,0.0,0.0,0.0,0.0,0.0,-0.7042,-0.6807,-0.6505,-0.6278,-0.6099,-0.6099,-0.6183,0.0,0.0,0.0,0.0,0.0,0.0,0.0,0.0,0.0,0.0,0.0,0.0,0.0,0.0,0.0,0.0,0.0,0.0,0.0,0.0,0.0,0.0,0.0,0.0,0.0,0.0,0.0,0.0,0.0,0.0,0.0,0.0,0.0,0.0,0.0,0.0,0.0,0.0,0.0,0.0,0.0,0.0,0.0,0.0,0.0,0.0,0.0,0.0,0.0,0.0,0.0,0.0,0.0,0.0,0.0,0.0,0.0,0.0,0.0,0.0,0.0,0.0,0.0,0.0,0.0,0.0,0.0,0.0,0.0,0.0,0.0,0.0,0.0,0.0,0.0,0.0,0.0,0.0,0.0,0.0,0.0,0.0,0.0,0.0,0.0,0.0,0.0,0.0,0.0,0.0,0.0,0.0,0.0,0.0,0.0,0.0,0.0,0.0,0.0,0.0,0.0,0.0,0.0,0.0,0.0,0.0,0.0,-0.7282,-0.7009,-0.6672,-0.647,-0.626,-0.6009,-0.5979,-0.6075,-0.6242,0.0,0.0,0.0,0.0,0.0,0.0,0.0,0.0,0.0,0.0,0.0,0.0,0.0,0.0,0.0,0.0,0.0,0.0,0.0,0.0,0.0,0.0,0.0,0.0,0.0,0.0,0.0,0.0,0.0,0.0,0.0,0.0,0.0,0.0,0.0,0.0,0.0,0.0,-0.6737,-0.7989,0.0,0.0,0.0,0.0,0.0,0.0,0.0,0.0,-1.0082,0.0,0.0,0.0,0.0,0.0,0.0,0.0,0.0,0.0,0.0,0.0,0.0,0.0,0.0,0.0,0.0,0.0,0.0,0.0,0.0,0.0,0.0,0.0,0.0,0.0,0.0,0.0,0.0,0.0,0.0,0.0,0.0,0.0,0.0,0.0,0.0,0.0,0.0,0.0,0.0,0.0,0.0,0.0,0.0,0.0,0.0,0.0,0.0,0.0,0.0,0.0,0.0,0.0,0.0,0.0,0.0,-0.7514,-0.7187,-0.6874,-0.653,-0.6337,-0.6159,-0.6007,-0.5948,-0.5954,-0.6034,0.0,0.0,0.0,0.0,0.0,0.0,0.0,0.0,0.0,0.0,0.0,0.0,0.0,0.0,0.0,0.0,0.0,0.0,0.0,0.0,0.0,0.0,0.0,0.0,0.0,0.0,0.0,0.0,0.0,0.0,0.0,0.0,0.0,0.0,0.0,0.0,0.0,0.0,0.0,-0.8201,-0.9095,0.0,0.0,0.0,0.0,0.0,0.0,0.0,0.0,-1.001,0.0,0.0,0.0,0.0,0.0,0.0,0.0,0.0,0.0,0.0,0.0,0.0,0.0,0.0,0.0,0.0,0.0,0.0,0.0,0.0,0.0,0.0,0.0,0.0,0.0,0.0,0.0,0.0,0.0,0.0,0.0,0.0,0.0,0.0,0.0,0.0,0.0,0.0,0.0,0.0,0.0,0.0,0.0,0.0,0.0,0.0,0.0,0.0,0.0,0.0,0.0,0.0,0.0,0.0,0.0,-0.7499,-0.7219,-0.6874,-0.6512,-0.6331,-0.6134,-0.5915,-0.5867,-0.5893,0.0,0.0,0.0,0.0,0.0,0.0,0.0,0.0,0.0,0.0,0.0,0.0,0.0,0.0,0.0,0.0,0.0,0.0,0.0,0.0,0.0,0.0,0.0,0.0,0.0,0.0,0.0,0.0,0.0,0.0,0.0,0.0,0.0,0.0,0.0,0.0,0.0,0.0,0.0,0.0,-0.8853,-0.952,-0.9897,0.0,0.0,0.0,0.0,0.0,0.0,-0.9886,-0.9863,0.0,0.0,0.0,0.0,0.0,0.0,0.0,0.0,0.0,0.0,0.0,0.0,0.0,0.0,0.0,0.0,0.0,0.0,0.0,0.0,0.0,0.0,0.0,0.0,0.0,0.0,0.0,0.0,0.0,0.0,0.0,0.0,0.0,0.0,0.0,0.0,0.0,0.0,0.0,0.0,0.0,0.0,0.0,0.0,0.0,0.0,0.0,0.0,0.0,0.0,0.0,0.0,0.0,0.0,0.0,-0.7358,-0.7086,-0.6756,-0.6339,-0.6193,-0.6012,-0.5848,-0.58,-0.5819,0.0,0.0,0.0,0.0,0.0,0.0,0.0,0.0,0.0,0.0,0.0,0.0,0.0,0.0,0.0,0.0,0.0,0.0,0.0,0.0,0.0,0.0,0.0,0.0,0.0,0.0,0.0,0.0,0.0,0.0,0.0,0.0,0.0,0.0,0.0,0.0,0.0,0.0,0.0,0.0,0.0,-0.9892,-0.9882,-0.9818,0.0,0.0,0.0,0.0,-0.9737,-0.9727,0.0,0.0,0.0,0.0,0.0,0.0,0.0,0.0,0.0,0.0,0.0,0.0,0.0,0.0,0.0,0.0,0.0,0.0,0.0,0.0,0.0,0.0,0.0,0.0,0.0,0.0,0.0,0.0,0.0,0.0,0.0,0.0,0.0,0.0,0.0,0.0,0.0,0.0,0.0,0.0,0.0,0.0,0.0,0.0,0.0,0.0,0.0,0.0,0.0,0.0,0.0,0.0,0.0,0.0,0.0,0.0,-0.6831,-0.6589,-0.6251,-0.5805,-0.5584,-0.5669,-0.5959,-0.5848,-0.583,0.0,0.0,0.0,0.0,0.0,0.0,0.0,0.0,0.0,0.0,0.0,0.0,0.0,0.0,0.0,0.0,0.0,0.0,0.0,0.0,0.0,0.0,0.0,0.0,0.0,0.0,0.0,0.0,0.0,0.0,0.0,0.0,0.0,0.0,0.0,0.0,0.0,0.0,0.0,0.0,0.0,-0.9891,-0.9818,-0.975,-0.9695,0.0,0.0,-0.9617,-0.9547,-0.9493,0.0,0.0,0.0,0.0,0.0,0.0,0.0,0.0,0.0,0.0,0.0,0.0,0.0,0.0,0.0,0.0,0.0,0.0,0.0,0.0,0.0,0.0,0.0,0.0,0.0,0.0,0.0,0.0,0.0,0.0,0.0,0.0,0.0,0.0,0.0,0.0,0.0,0.0,0.0,0.0,0.0,0.0,0.0,0.0,0.0,0.0,0.0,0.0,0.0,0.0,0.0,0.0,0.0,0.0,0.0,-0.7779,-0.6857,-0.6661,-0.6212,-0.5502,-0.5285,-0.5354,-0.5719,-0.5585,-0.5711,0.0,0.0,0.0,0.0,0.0,0.0,0.0,0.0,0.0,0.0,0.0,0.0,0.0,0.0,0.0,0.0,0.0,0.0,0.0,0.0,0.0,0.0,0.0,0.0,0.0,0.0,0.0,0.0,0.0,0.0,0.0,0.0,0.0,0.0,0.0,0.0,0.0,0.0,0.0,0.0,0.0,0.0,-1.0432,-1.0365,0.0,0.0,0.0,-0.9528,-0.9404,0.0,0.0,0.0,0.0,0.0,0.0,0.0,0.0,0.0,0.0,0.0,0.0,0.0,0.0,0.0,0.0,0.0,0.0,0.0,0.0,0.0,0.0,0.0,0.0,0.0,0.0,0.0,0.0,0.0,0.0,0.0,0.0,0.0,0.0,0.0,0.0,0.0,0.0,0.0,0.0,0.0,0.0,0.0,0.0,0.0,0.0,0.0,0.0,0.0,0.0,0.0,0.0,0.0,0.0,0.0,0.0,0.0,-0.6751,-0.6598,-0.6108,-0.5184,-0.496,-0.5023,-0.5421,-0.5486,0.0,0.0,0.0,0.0,0.0,0.0,0.0,0.0,0.0,0.0,0.0,0.0,0.0,0.0,0.0,0.0,0.0,0.0,0.0,0.0,0.0,0.0,0.0,0.0,0.0,0.0,0.0,-0.4966,0.0,0.0,0.0,0.0,0.0,0.0,0.0,0.0,0.0,0.0,0.0,0.0,0.0,0.0,-1.103,-1.0914,-1.0812,-1.064,0.0,0.0,-0.9392,-0.929,-0.9185,-0.9146,0.0,0.0,0.0,0.0,0.0,0.0,0.0,0.0,0.0,0.0,0.0,0.0,0.0,0.0,0.0,0.0,0.0,0.0,0.0,0.0,0.0,0.0,0.0,0.0,0.0,0.0,0.0,0.0,0.0,0.0,0.0,0.0,0.0,0.0,0.0,0.0,0.0,0.0,0.0,0.0,0.0,0.0,0.0,0.0,0.0,0.0,0.0,0.0,0.0,0.0,0.0,0.0,0.0,0.0,0.0,-0.6307,-0.6183,-0.5677,-0.4786,-0.4538,-0.4686,-0.5199,-0.5808,-0.616,0.0,0.0,0.0,0.0,0.0,0.0,0.0,0.0,0.0,0.0,0.0,0.0,0.0,0.0,0.0,0.0,0.0,0.0,0.0,0.0,0.0,0.0,0.0,0.0,0.0,0.0,0.0,0.0,0.0,0.0,0.0,0.0,0.0,0.0,0.0,0.0,0.0,0.0,0.0,0.0,0.0,-1.0982,-1.0899,-1.0739,-1.0345,0.0,0.0,-0.9229,-0.9215,-0.9054,-0.8974,-0.9081,0.0,0.0,0.0,0.0,0.0,0.0,0.0,0.0,0.0,0.0,0.0,0.0,0.0,0.0,0.0,0.0,0.0,0.0,0.0,0.0,0.0,0.0,0.0,0.0,0.0,0.0,0.0,0.0,0.0,0.0,0.0,0.0,0.0,0.0,0.0,0.0,0.0,0.0,0.0,0.0,0.0,0.0,0.0,0.0,0.0,0.0,0.0,0.0,0.0,0.0,0.0,0.0,0.0,-0.7652,-0.6718,-0.6273,-0.5626,-0.484,-0.4386,-0.4418,-0.5013,-0.5267,-0.5844,0.0,0.0,0.0,0.0,0.0,0.0,0.0,0.0,0.0,0.0,0.0,0.0,0.0,0.0,0.0,0.0,0.0,0.0,0.0,0.0,0.0,0.0,0.0,0.0,0.0,0.0,0.0,0.0,-0.4915,-0.5313,-0.6321,0.0,0.0,0.0,0.0,0.0,0.0,0.0,0.0,0.0,0.0,-1.1072,-1.1451,-1.0999,0.0,0.0,-0.9589,-0.9185,-0.9127,-0.8993,-0.9083,-0.9623,-1.0054,0.0,0.0,0.0,0.0,0.0,0.0,0.0,0.0,0.0,0.0,0.0,0.0,0.0,0.0,0.0,0.0,0.0,0.0,0.0,0.0,0.0,0.0,0.0,0.0,0.0,0.0,0.0,0.0,0.0,0.0,0.0,0.0,0.0,0.0,0.0,0.0,0.0,0.0,0.0,0.0,0.0,0.0,0.0,0.0,0.0,0.0,0.0,0.0,0.0,0.0,0.0,0.0,-0.747,-0.6832,-0.6359,-0.5686,-0.4833,-0.4434,-0.4394,-0.4691,-0.4962,-0.5637,0.0,0.0,0.0,0.0,0.0,0.0,0.0,0.0,0.0,0.0,0.0,0.0,0.0,0.0,0.0,0.0,0.0,0.0,0.0,0.0,0.0,0.0,0.0,0.0,0.0,0.0,0.0,0.0,-0.5575,-0.615,-0.7573,0.0,0.0,0.0,0.0,0.0,0.0,0.0,0.0,0.0,0.0,-1.1658,-1.2126,-1.1635,-1.1115,-1.0837,-1.0244,-0.9812,-0.9743,-0.9629,-0.9738,-1.0318,0.0,0.0,0.0,0.0,0.0,0.0,0.0,0.0,0.0,0.0,0.0,0.0,0.0,0.0,0.0,0.0,0.0,0.0,0.0,0.0,0.0,0.0,0.0,0.0,0.0,0.0,0.0,0.0,0.0,0.0,-0.4894,0.0,0.0,0.0,0.0,0.0,0.0,0.0,0.0,0.0,0.0,0.0,0.0,0.0,0.0,0.0,0.0,0.0,0.0,0.0,0.0,0.0,0.0,-0.7098,-0.6421,-0.6394,-0.5822,-0.4687,-0.4737,-0.4602,-0.4284,-0.5097,-0.5631,-0.5759,0.0,0.0,0.0,0.0,0.0,0.0,0.0,0.0,0.0,0.0,0.0,0.0,0.0,0.0,0.0,0.0,0.0,0.0,0.0,0.0,0.0,0.0,0.0,0.0,0.0,0.0,-0.7,-0.7105,-0.747,0.0,0.0,0.0,0.0,0.0,0.0,0.0,0.0,0.0,0.0,-1.2263,-1.2781,-1.2859,-1.2725,-1.229,-1.157,-1.1328,-1.1215,-1.1128,-1.1068,-1.1071,0.0,0.0,0.0,0.0,0.0,0.0,0.0,0.0,0.0,0.0,0.0,0.0,0.0,0.0,0.0,0.0,0.0,0.0,0.0,0.0,0.0,0.0,0.0,0.0,0.0,0.0,0.0,-0.5163,-0.5013,0.0,0.0,0.0,0.0,0.0,0.0,0.0,0.0,0.0,0.0,0.0,-0.922,-0.9787,0.0,0.0,0.0,0.0,0.0,0.0,0.0,0.0,0.0,0.0,0.0,0.0,-0.6967,-0.6734,-0.6297,-0.5899,-0.5528,-0.4917,-0.4664,-0.4792,-0.4845,-0.5145,-0.5733,0.0,0.0,0.0,0.0,0.0,0.0,0.0,0.0,0.0,0.0,0.0,0.0,0.0,0.0,0.0,0.0,0.0,0.0,0.0,0.0,0.0,0.0,0.0,0.0,0.0,-0.8093,0.0,0.0,0.0,0.0,0.0,0.0,0.0,0.0,0.0,0.0,0.0,-1.183,-1.2731,-1.2286,-1.2069,-1.2618,-1.2152,-1.169,0.0,0.0,0.0,0.0,0.0,0.0,0.0,0.0,0.0,0.0,0.0,0.0,0.0,0.0,-1.3581,-1.3525,-1.322,-1.2844,-1.2347,0.0,0.0,0.0,0.0,0.0,0.0,0.0,0.0,0.0,0.0,0.0,0.0,0.0,0.0,0.0,0.0,-0.597,0.0,0.0,0.0,0.0,0.0,0.0,0.0,0.0,-0.8961,-0.9266,-0.9449,-1.0013,-1.0104,0.0,-0.962,-0.9176,0.0,0.0,0.0,0.0,0.0,0.0,0.0,0.0,-0.6727,-0.6702,-0.6281,-0.596,-0.581,-0.5067,-0.4766,-0.4939,-0.467,-0.4805,-0.5376,-0.5254,-0.511,0.0,0.0,0.0,0.0,0.0,0.0,0.0,0.0,0.0,0.0,0.0,0.0,0.0,0.0,0.0,0.0,0.0,0.0,0.0,0.0,0.0,0.0,0.0,-0.8741,0.0,0.0,0.0,0.0,0.0,0.0,0.0,0.0,0.0,-1.1277,-1.1682,-1.2332,-1.3259,-1.2609,-1.2253,-1.2796,0.0,0.0,0.0,0.0,0.0,0.0,0.0,-1.1646,-1.2103,-1.2099,-1.2225,-1.2704,-1.2804,-1.2858,-1.2949,0.0,0.0,-1.2976,-1.2973,-1.277,-1.2293,-1.202,-1.1935,-1.2181,-1.199,-1.1842,0.0,0.0,0.0,0.0,0.0,0.0,0.0,0.0,-0.7417,-0.7199,0.0,-0.7132,0.0,0.0,0.0,0.0,0.0,-0.8953,0.0,0.0,-0.9254,-0.936,-0.9176,-0.9654,-0.9867,-0.9905,-0.9738,-0.939,-0.8899,-0.8393,0.0,0.0,0.0,0.0,0.0,0.0,-0.6413,-0.6401,-0.6319,-0.6028,-0.5548,-0.5197,-0.492,-0.4711,-0.4627,-0.4589,-0.4588,-0.449,-0.4376,-0.4316,-0.431,0.0,0.0,0.0,0.0,0.0,0.0,0.0,0.0,0.0,0.0,0.0,0.0,0.0,0.0,0.0,0.0,0.0,0.0,0.0,0.0,-0.7891,0.0,0.0,0.0,0.0,0.0,0.0,0.0,0.0,0.0,0.0,-1.3782,-1.3,-1.2528,-1.3109,0.0,0.0,0.0,0.0,-1.3244,-1.3176,-1.3122,-1.2979,-1.2778,-1.2722,-1.2614,-1.2482,0.0,0.0,-1.22,-1.2133,-1.2118,-1.2234,-1.2273,-1.245,-1.3022,-1.3126,-1.3143,-1.3176,-1.265,-1.2496,-1.3104,-1.2585,-1.2288,-0.9183,0.0,0.0,0.0,0.0,-0.8992,-0.8776,-0.8446,-0.7943,-0.765,-0.7489,-0.7196,0.0,0.0,0.0,0.0,0.0,0.0,-0.8753,-0.9076,-0.9084,-0.9193,-0.9463,-0.9571,-0.9617,-0.9617,-0.9514,-0.9389,-0.9181,-0.8896,-0.8426,-0.7779,0.0,0.0,0.0,0.0,-0.6475,-0.62,-0.6116,-0.6029,-0.5948,-0.5517,-0.5119,-0.4767,-0.4517,-0.441,-0.4461,-0.4376,-0.4325,-0.43,-0.4569,0.0,0.0,0.0,0.0,0.0,0.0,0.0,0.0,0.0,0.0,0.0,0.0,0.0,0.0,0.0,0.0,0.0,0.0,0.0,-0.741,-0.8161,-0.8771,0.0,0.0,0.0,0.0,0.0,0.0,0.0,0.0,0.0,-1.3329,-1.3092,-1.2856,0.0,0.0,-1.298,-1.3034,-1.2997,-1.2908,-1.2838,-1.2746,0.0,0.0,-1.2372,-1.2251,-1.2149,-1.1961,-1.1753,-1.163,-1.1586,-1.1564,-1.1659,-1.1717,-1.1831,-1.2082,-1.2447,-1.2708,-1.2695,-1.2514,-1.2417,-1.2667,-1.2498,-1.2396,-1.0314,-1.0269,-1.0278,-1.0156,-0.9906,-0.9647,-0.9242,-0.8695,-0.8231,-0.7962,-0.7854,-0.7613,-0.7603,-0.7754,-0.8177,0.0,0.0,0.0,-0.9113,-0.9391,-0.9194,-0.9276,-0.9461,-0.942,-0.9432,-0.9393,-0.9366,-0.9301,-0.9247,-0.9054,-0.8665,-0.8113,0.0,0.0,-0.7248,-0.6969,-0.6657,-0.6267,-0.6195,-0.6094,-0.5977,-0.56,-0.5164,-0.4709,-0.4559,-0.4449,-0.4324,-0.4284,-0.4248,-0.4211,-0.4602,-0.479,0.0,0.0,0.0,0.0,0.0,0.0,0.0,0.0,0.0,0.0,0.0,-0.4599,-0.4475,0.0,0.0,0.0,-0.476,-0.5841,-0.7855,-0.8388,0.0,0.0,0.0,0.0,0.0,0.0,0.0,-1.1444,-1.2259,-1.2808,-1.2691,-1.2684,-1.2646,-1.2463,-1.2546,-1.2626,-1.2684,0.0,-1.253,-1.2439,-1.234,-1.2256,-1.2149,-1.1988,-1.1833,-1.1696,-1.1527,-1.137,-1.1173,-1.1103,-1.1057,-1.108,-1.115,-1.1242,-1.137,-1.1717,-1.2056,-1.219,-1.2195,-1.2179,-1.222,-1.22,-1.22,-1.1084,-1.1443,-1.1456,-1.1076,-1.0423,-1.0073,-0.9487,-0.8692,-0.8445,-0.8241,-0.8144,-0.8267,-0.8379,-0.8467,-0.9074,0.0,-0.975,-0.975,-0.9712,-0.9658,-0.9538,-0.9405,-0.9301,-0.9286,-0.9274,-0.9286,-0.9217,-0.9178,-0.919,-0.8987,-0.8839,-0.8679,-0.8176,-0.791,-0.7849,-0.7387,-0.6944,-0.6521,-0.6478,-0.6239,-0.584,-0.5528,-0.5109,-0.4614,-0.472,-0.4619,-0.4293,-0.4234,-0.4185,-0.4127,-0.4435,-0.4725,-0.4959,0.0,0.0,0.0,0.0,0.0,0.0,0.0,0.0,0.0,0.0,0.0,0.0,0.0,0.0,0.0,-0.5295,0.0,-0.7724,-0.8567,0.0,0.0,0.0,-1.0235,-1.0296,-1.1396,-1.1856,-1.1153,0.0,0.0,-1.2046,-1.2073,-1.2131,-1.2127,-1.22,-1.2266,-1.2323,-1.2226,-1.2086,-1.1967,-1.194,-1.1884,-1.1703,-1.1534,-1.1392,-1.1247,-1.1123,-1.0991,-1.0801,-1.0705,-1.0632,-1.0559,-1.0656,-1.0791,-1.0825,-1.1038,-1.127,-1.1615,-1.1703,-1.1762,-1.1747,-1.1762,-1.1768,-1.1524,-1.1822,-1.2109,-1.1703,-1.0821,-1.0463,-0.9988,-0.9499,-0.9286,-0.8941,-0.8562,-0.8593,-0.8626,-0.8634,-0.8944,-0.9232,-0.9487,-0.9446,-0.9434,-0.9461,-0.9351,-0.9271,-0.9217,-0.9151,-0.9135,-0.9135,-0.9135,-0.912,-0.9108,-0.8987,-0.8822,-0.8617,-0.8353,-0.8036,-0.7676,-0.7493,-0.7199,-0.6806,-0.6829,-0.6616,-0.6097,-0.5379,-0.512,-0.5332,-0.4835,-0.4649,-0.4786,-0.4447,-0.4279,-0.4247,-0.4004,-0.4121,-0.4732,-0.482,0.0,0.0,0.0,0.0,0.0,0.0,0.0,0.0,0.0,-0.4564,-0.4827,0.0,-0.453,0.0,-0.6196,-0.7134,-0.8153,-0.845,0.0,0.0,-1.0629,-1.1256,-1.1867,-1.2169,-1.2393,-1.2516,-1.2681,-1.2523,-1.1777,-1.2149,-1.2228,-1.1547,-1.1674,-1.1848,-1.1811,-1.1666,-1.1579,-1.1534,-1.1498,-1.1489,-1.1296,-1.1164,-1.1024,-1.0991,-1.0801,-1.0583,-1.0449,-1.0311,-1.021,-1.0148,-1.0198,-1.0285,-1.0424,-1.051,-1.0645,-1.0801,-1.1048,-1.1293,-1.1384,-1.1339,-1.1302,-1.1838,-1.2035,-1.2165,-1.1873,-1.1238,-1.0799,-1.0255,-0.9698,-0.9476,-0.9243,-0.902,-0.9148,-0.9276,-0.9407,-0.9333,-0.9402,-0.9591,-0.9353,-0.9286,-0.9301,-0.9205,-0.9162,-0.9162,-0.912,-0.9092,-0.9092,-0.9092,-0.9092,-0.9065,-0.8933,-0.8778,-0.8544,-0.8347,-0.807,-0.7739,-0.7701,-0.7486,-0.7075,-0.6948,-0.6593,-0.6073,-0.563,-0.5417,-0.545,-0.5278,-0.5275,-0.553,-0.5399,-0.5366,-0.542,-0.4303,-0.3915,-0.4491,-0.4721,-0.4735,0.0,0.0,0.0,0.0,0.0,0.0,0.0,0.0,0.0,0.0,0.0,-0.5282,-0.616,-0.6682,-0.7286,-0.8045,-0.8537,-0.9273,-1.0417,-1.116,-1.1727,-1.2181,-1.2467,-1.2503,-1.2192,-1.2303,-1.2139,-1.1379,-1.1405,-1.1324,-1.0697,-1.0498,-1.0563,-1.0886,-1.0857,-1.0684,-1.0435,-1.0371,-1.0335,-1.0183,-1.0271,-1.0358,-1.0338,-1.0299,-1.0286,-1.0135,-1.0008,-0.9942,-1.0088,-0.999,-0.9993,-1.026,-1.0225,-1.0135,-1.0186,-1.0348,-1.0619,-1.0897,-1.0897,-1.0873,-1.2011,-1.2194,-1.1963,-1.1745,-1.1461,-1.0984,-1.0364,-0.9708,-0.948,-0.9416,-0.9501,-0.9707,-0.9961,-1.0241,-0.9931,-0.9836,-0.9921,-0.9545,-0.9375,-0.9375,-0.9304,-0.926,-0.926,-0.926,-0.926,-0.926,-0.926,-0.922,-0.9147,-0.9012,-0.8828,-0.8585,-0.8343,-0.8101,-0.7888,-0.7898,-0.7718,-0.739,-0.6966,-0.6518,-0.6082,-0.6076,-0.5857,-0.5461,-0.5793,-0.6065,-0.6192,-0.6394,-0.6593,-0.6718,-0.5101,-0.4296,-0.4618,-0.4681,-0.466,0.0,-0.5306,0.0,0.0,0.0,0.0,0.0,0.0,0.0,0.0,-0.5533,-0.6218,-0.6739,-0.6824,-0.7149,-0.786,-0.872,-0.9625,-1.0527,-1.1335,-1.1808,-1.1863,-1.2331,-1.2327,-1.1304,-1.1563,-1.15,-1.0702,-1.0273,-0.9968,-0.9739,-0.9307,-0.9179,-0.9696,-0.9821,-0.966,-0.9096,-0.9041,-0.9158,-0.9083,-0.9368,-0.9648,-0.9632,-0.9849,-0.9983,-0.9867,-0.9736,-0.9775,-1.0072,-0.9848,-0.9731,-1.0237,-0.9985,-0.9736,-0.975,-0.9776,-0.9931,-1.0311,-1.0436,-1.046,-1.2058,-1.2185,-1.1979,-1.1608,-1.1084,-1.0785,-1.0562,-1.0406,-1.0256,-1.0093,-0.9955,-0.9877,-0.9928,-1.0156,-1.0174,-1.0235,-1.0298,-1.0324,-1.0352,-1.0321,-1.0205,-1.0142,-1.0142,-1.0091,-1.0071,-1.0071,-1.0071,-1.0071,-1.006,-0.9495,-0.9177,-0.9066,-0.8432,-0.8043,-0.7888,0.0,0.0,0.0,-0.733,-0.7054,-0.6955,-0.6523,-0.6227,-0.6041,-0.6011,0.0,-0.6175,-0.6054,-0.6013,-0.6167,-0.6405,0.0,0.0,0.0,0.0,0.0,0.0,0.0,0.0,0.0,0.0,0.0,-0.5997,-0.5794,-0.5767,-0.623,-0.657,-0.6625,-0.6663,-0.7199,-0.849,-0.8822,-0.9313,-1.0145,-1.0899,-1.1362,-1.1482,-1.1603,-1.1682,-1.1761,-1.0921,-1.0121,-0.968,-0.9327,-0.9083,-0.8938,-0.8727,-0.8437,-0.8148,-0.8611,-0.8871,-0.8778,-0.8685,-0.8751,-0.8737,-0.9083,-0.9305,-0.939,-0.9579,-0.9687,-0.9607,-0.9473,-0.9489,-0.9852,-0.9498,-0.9375,-0.9892,-0.965,-0.9375,-0.9405,-0.9405,-0.954,-0.9995,-1.0059,-1.0085,-1.2161,0.0,-1.2048,-1.1778,0.0,-1.1246,-1.1124,-1.1084,-1.0597,-1.0452,-1.061,-1.0534,-1.0651,-1.0884,-1.0687,-1.0632,-1.0709,-1.0506,-1.0469,-1.0436,-1.0372,-1.0329,-1.0329,-1.0308,-1.0319,-1.0319,-1.0319,-1.0243,-1.0145,-0.9808,-0.9562,-0.934,-0.8942,-0.8673,-0.8487,-0.8206,-0.796,-0.7802,-0.7566,-0.7332,-0.7153,-0.6901,-0.6666,-0.6514,0.0,0.0,0.0,0.0,0.0,0.0,0.0,0.0,0.0,0.0,0.0,-0.4802,-0.5572,-0.583,-0.532,-0.5854,-0.6362,-0.663,-0.6332,-0.6173,-0.6241,-0.6457,-0.6677,-0.684,-0.7555,-0.8227,-0.8691,-0.8949,-0.9428,-1.0205,-1.0722,-1.1025,-1.1105,-1.116,-1.1031,-1.0633,-1.002,-0.9417,-0.8913,-0.8496,-0.8194,-0.8016,-0.7713,-0.7395,-0.7149,-0.7631,-0.8004,-0.772,-0.7706,-0.7804,-0.7988,-0.8232,-0.8602,-0.8908,-0.9291,-0.9425,-0.9328,-0.9336,-0.9499,-0.9833,-0.9705,-0.9671,-0.9878,-0.9586,-0.9237,-0.9294,-0.9294,-0.9483,-0.9961,-1.0093,-1.0118,-1.2226,-1.2182,-1.2085,-1.1957,-1.181,-1.1713,-1.166,-1.1591,0.0,0.0,0.0,-1.1295,-1.1454,-1.1696,-1.1212,-1.1052,-1.1042,-1.071,-1.0576,-1.0576,-1.0532,-1.0532,-1.0532,-1.0498,-1.0498,-1.0476,-1.051,-1.0399,-1.0188,-1.0079,-0.9881,-0.9623,-0.946,-0.9241,-0.9066,-0.8685,-0.8311,-0.7929,-0.7773,-0.754,-0.7227,-0.7207,-0.7098,-0.6896,-0.7179,-0.7357,-0.7439,-0.778,-0.7887,-0.7724,-0.8019,-0.8137,-0.7992,-0.7836,-0.7045,-0.5576,-0.6595,-0.6986,-0.622,-0.6862,-0.715,-0.6765,-0.6443,-0.6325,-0.6437,-0.6455,-0.6681,-0.7185,-0.8573,-0.9227,-0.8735,-0.8975,-0.945,-1.0185,-1.0417,-1.0491,-1.0443,-1.0539,-1.0174,-0.9292,-0.8995,-0.8781,-0.8325,-0.7745,-0.73,-0.7093,-0.6773,-0.6408,-0.6414,-0.6901,-0.7193,-0.6787,-0.6802,-0.6855,-0.7178,-0.7563,-0.785,-0.8526,-0.8947,-0.9151,-0.9158,-0.9269,-0.9585,-1.0037,-1.0026,-0.995,-1.0048,-0.9701,-0.9366,-0.9315,-0.9326,-0.9496,-0.997,-1.027,-1.0433,-1.223,-1.2194,-1.2184,-1.1924,-1.1572,-1.1616,-1.1737,-1.1847,-1.1717,-1.1847,-1.2131,-1.1765,-1.1707,-1.1855,-1.1556,-1.1413,-1.145,-1.153,-1.157,0.0,-1.1519,-1.1483,-1.1483,-1.1399,-1.1289,-1.1263,-1.1274,-1.1179,-1.0978,-1.0463,-1.0133,-1.001,-0.9456,-0.9106,-0.9028,-0.8945,-0.8887,-0.8809,-0.8096,-0.7666,-0.7618,-0.7618,-0.746,-0.718,-0.7297,-0.7312,-0.717,-0.738,-0.7315,-0.6974,-0.6744,-0.6652,-0.6724,-0.6302,-0.6509,-0.7597,-0.6607,-0.5999,-0.6252,-0.6256,-0.6286,-0.6426,-0.6248,-0.6159,-0.623,-0.6248,-0.6673,-0.7679,-0.8599,-0.9015,-0.8667,-0.8634,-0.8816,-0.9243,-0.9364,-0.9307,-0.9045,-0.9058,-0.8899,-0.8418,-0.7885,-0.7698,-0.7676,-0.7043,-0.6505,-0.6385,-0.6283,-0.6129,-0.6147,-0.6385,-0.6564,-0.646,-0.6483,-0.6675,-0.7086,-0.7619,-0.8096,-0.8218,-0.8665,-0.9006,-0.9085,-0.9136,-0.9404,-1.0037,-0.9877,-0.9817,-1.0071,-0.9816,-0.953,-0.9451,-0.9482,-0.9557,-0.9838,-1.0309,-1.0732,-1.2388,-1.2388,-1.2435,-1.2367,-1.2146,-1.2285,-1.2404,-1.2614,-1.2604,-1.2522,-1.2329,-1.2194,-1.2141,-1.2265,-1.2144,-1.2127,-1.2218,-1.2298,-1.2366,-1.2417,-1.2338,-1.2309,-1.2298,-1.2167,-1.2098,-1.2047,-1.1701,-1.1506,-1.1386,-1.0768,-1.043,-1.0308,-0.9923,-0.9606,-0.932,-0.9285,-0.9143,-0.8892,-0.859,-0.8311,-0.8086,-0.8076,-0.7901,-0.7469,-0.7572,-0.7461,-0.7183,-0.7237,-0.7114,-0.6693,-0.6423,-0.6162,-0.6025,-0.6565,-0.7048,-0.7334,-0.6671,-0.6219,-0.6136,-0.614,-0.6154,-0.6171,-0.6093,-0.6014,-0.5936,-0.6002,-0.6454,-0.7366,-0.8148,-0.8572,-0.8484,-0.7946,-0.7807,-0.8345,-0.8285,-0.8113,-0.7992,-0.804,-0.7933,-0.7512,-0.7181,-0.6975,-0.6844,-0.6431,-0.608,-0.6002,-0.5941,-0.5922,-0.5915,-0.6261,-0.6579,-0.6606,-0.6475,-0.6731,-0.7361,-0.8288,-0.8706,-0.8602,-0.8888,-0.9087,-0.9147,-0.9225,-0.949,-0.9792,-0.9843,-0.9909,-0.9953,-0.9715,-0.9596,-0.9562,-0.9557,-0.9677,-1.0134,-1.0625,-1.1088,-1.2372,-1.2431,-1.2578,-1.2676,-1.2725,-1.2881,-1.3017,-1.318,-1.318,-1.2929,-1.2586,-1.2527,-1.2572,-1.2658,-1.2605,-1.2595,-1.269,-1.2732,-1.2816,-1.2806,-1.2774,-1.2743,-1.2701,-1.2605,-1.251,-1.2436,-1.2006,-1.1727,-1.1593,-1.1165,-1.0774,-1.0538,-1.0459,-1.0205,-0.9701,-0.9674,-0.9437,-0.9095,-0.9191,-0.8975,-0.8513,-0.8483,-0.8328,-0.8047,-0.8038,-0.7901,-0.7596,-0.7478,-0.7239,-0.6805,-0.6503,-0.6166,-0.5847,-0.6966,-0.7372,-0.6805,-0.6806,-0.6595,-0.6095,-0.6091,-0.6117,-0.5954,-0.5941,-0.5848,-0.5667,-0.5704,-0.6118,-0.6914,-0.7649,-0.8107,-0.7983,-0.7241,-0.6858,-0.7428,-0.7306,-0.7151,-0.7088,-0.7214,-0.7111,-0.6637,-0.6553,-0.641,-0.6149,-0.5966,-0.5848,-0.5726,-0.5718,-0.574,-0.5892,-0.6243,-0.6532,-0.676,-0.6645,-0.687,-0.7785,-0.857,-0.8979,-0.8868,-0.9048,-0.9137,-0.9146,-0.9378,-0.9585,-0.9627,-0.9925,-0.9954,-0.9676,-0.962,-0.9629,-0.961,-0.9637,-0.9845,-1.0356,-1.074,-1.1234,-1.2036,-1.2175,-1.2459,-1.2676,-1.2891,-1.2891,-1.2978,-1.3075,-1.3123,-1.3122,-1.3111,-1.295,-1.2855,-1.2803,-1.2592,-1.2467,-1.2499,-1.2563,-1.2669,-1.268,-1.2605,-1.2574,-1.2498,-1.2435,-1.2275,-1.2124,-1.2019,-1.1946,-1.187,-1.1661,-1.1315,-1.0898,-1.085,-1.0554,-1.0108,-1.006,-0.9963,-0.9905,-0.9905,-0.9553,-0.8824,-0.8776,-0.8781,-0.8896,-0.8877,-0.881,-0.8565,-0.831,-0.7866,-0.7367,-0.7033,-0.6681,-0.6386,-0.65,-0.6725,-0.7083,-0.7008,-0.6711,-0.6149,-0.5856,-0.5767,-0.5723,-0.5743,-0.5667,-0.5484,-0.5453,-0.5786,-0.6572,-0.7298,-0.7596,-0.7229,-0.6645,-0.6387,-0.6673,-0.6708,-0.6626,-0.6376,-0.6382,-0.6263,-0.5854,-0.5873,-0.5822,-0.5885,-0.5763,-0.5595,-0.5534,-0.5536,-0.5681,-0.6024,-0.6157,-0.6456,-0.6993,-0.7186,-0.7407,-0.785,-0.8164,-0.8551,-0.8704,-0.8751,-0.8875,-0.9022,-0.9124,-0.9263,-0.9531,-0.9688,-0.9697,-0.9697,-0.9674,-0.9664,-0.9603,-0.9692,-0.9865,-1.0235,-1.0505,-1.0878,-1.2271,-1.2401,-1.2941,-1.3212,-1.3242,-1.2988,-1.2978,-1.3075,-1.3075,-1.3162,-1.3198,-1.3158,-1.3191,-1.3217,-1.3134,-1.3153,-1.3244,-1.3289,-1.3299,-1.3299,-1.3244,-1.3107,-1.2981,-1.2925,-1.2833,-1.2701,-1.2388,-1.2213,-1.2128,-1.1832,-1.1475,-1.117,-1.0971,-1.0666,-1.0402,-1.0094,-0.9902,-0.9902,-0.9832,-0.9655,-0.9404,-0.9186,-0.9012,-0.8828,-0.8843,-0.8774,-0.8721,-0.8483,-0.8215,-0.7982,-0.7817,-0.747,-0.6905,-0.698,-0.6933,-0.6695,-0.6491,-0.6302,-0.6064,-0.5977,-0.5958,-0.6057,-0.6012,-0.5955,-0.5815,-0.545,-0.5513,-0.6235,-0.6952,-0.7252,-0.6828,-0.5955,-0.553,-0.5876,-0.584,-0.5667,-0.5561,-0.5603,-0.56,-0.5522,-0.5509,-0.5574,-0.5641,-0.5472,-0.5431,-0.5603,-0.5673,-0.5812,-0.6234,-0.6441,-0.6705,-0.7096,-0.7338,-0.7592,-0.7875,-0.8315,-0.853,-0.8574,-0.8707,-0.8917,-0.8893,-0.898,-0.9138,-0.9297,-0.9306,-0.9306,-0.9248,-0.9372,-0.9421,-0.9444,-0.9545,-0.9725,-0.9971,-1.0137,-1.0428,-1.2536,-1.2706,-1.3408,-1.3681,-1.3662,-1.3359,-1.3214,-1.3214,-1.3204,-1.3164,-1.3132,-1.3238,-1.3334,-1.3334,-1.3525,-1.3668,-1.3716,-1.3716,-1.3716,-1.3668,-1.3563,-1.342,-1.3334,-1.318,-1.3084,-1.2986,-1.2624,-1.243,-1.239,-1.208,-1.173,-1.1516,-1.1219,-1.0908,-1.0545,-1.0152,-0.9895,-0.9793,-0.9723,-0.9683,-0.9658,-0.9448,-0.9189,-0.9001,-0.9009,-0.8973,-0.8928,-0.8639,-0.8468,-0.8433,-0.8273,-0.7952,-0.7503,-0.7574,-0.7302,-0.6586,-0.6239,-0.613,-0.6083,-0.6001,-0.5975,-0.6046,-0.6031,-0.5966,-0.5826,-0.5506,-0.5478,-0.5896,-0.6461,-0.669,-0.6439,-0.5373,-0.4936,-0.5364,-0.5142,-0.497,-0.5029,-0.5098,-0.5233,-0.5301,-0.5368,-0.5428,-0.5569,-0.5462,-0.5516,-0.5869,-0.5934,-0.6021,-0.642,-0.6697,-0.6904,-0.7131,-0.7387,-0.7637,-0.7896,-0.8174,-0.8392,-0.8469,-0.8598,-0.8706,-0.87,-0.8773,-0.8846,-0.8895,-0.8895,-0.8886,-0.8967,-0.9033,-0.9099,-0.9154,-0.9297,-0.9448,-0.9616,-0.9783,-0.998,-1.2592,-1.3023,-1.353,-1.3873,-1.4038,-1.4,-1.3838,-1.3477,-1.3477,-1.3322,-1.3008,-1.3135,-1.3143,-1.3173,-1.3532,-1.3641,-1.3563,-1.3457,-1.342,-1.342,-1.3276,-1.319,-1.3085,-1.2978,-1.2832,-1.2764,-1.257,-1.2502,-1.2463,-1.2444,-1.2215,-1.179,-1.1705,-1.1273,-1.055,-1.0349,-1.0113,-0.971,-0.9554,-0.9515,-0.9515,-0.939,-0.9424,-0.9624,-0.9709,-0.9584,-0.94,-0.8949,-0.8659,-0.8593,-0.8162,-0.7921,-0.8026,-0.8026,-0.7711,-0.7044,-0.6593,-0.6388,-0.6313,-0.5905,-0.56,-0.5592,-0.5634,-0.5507,-0.5504,-0.5566,-0.5634,-0.5569,-0.5792,-0.5944,-0.6001,-0.5322,-0.4812,-0.5067,-0.4945,-0.482,-0.4823,-0.4991,-0.5088,-0.5156,-0.5283,-0.5442,-0.5643,-0.5736,-0.5899,-0.6112,-0.6138,-0.6231,-0.6556,-0.6719,-0.6887,-0.7106,-0.7366,-0.765,-0.7915,-0.7958,-0.7992,-0.8062,-0.8164,-0.8291,-0.8332,-0.8414,-0.8455,-0.8561,-0.8602,-0.8635,-0.87,-0.8773,-0.8839,-0.892,-0.9024,-0.9177,-0.9328,-0.9545,-0.9753,-1.3512,-1.4259,-1.411,-1.4275,-1.4512,-1.4248,-1.4,-1.3916,-1.3863,-1.3828,-1.3701,-1.3785,-1.3846,-1.3898,-1.4093,-1.3871,-1.3354,-1.3314,-1.3228,-1.321,-1.3055,-1.2968,-1.2832,-1.2735,-1.2627,-1.2578,-1.2529,-1.2529,-1.2529,-1.2529,-1.2355,-1.2128,-1.1884,-1.1379,-1.0779,-1.0389,-0.9985,-0.9609,-0.9457,-0.9337,-0.9306,-0.9257,-0.9257,-0.9234,-0.9346,-0.9377,-0.9297,-0.8967,-0.8788,-0.8692,-0.8392,-0.8334,-0.8412,-0.807,-0.7677,-0.7262,-0.6819,-0.6601,-0.654,-0.6237,-0.5944,-0.5757,-0.5771,-0.5719,-0.5684,-0.5713,-0.5752,-0.5673,-0.5533,-0.5583,-0.5816,-0.572,-0.5472,-0.503,-0.4816,-0.4731,-0.4812,-0.4922,-0.502,-0.5126,-0.5389,-0.5646,-0.5726,-0.596,-0.6259,-0.6409,-0.6529,-0.6692,-0.6928,-0.7085,-0.7175,-0.7318,-0.7296,-0.7275,-0.7433,-0.7588,-0.7654,-0.7706,-0.7773,-0.7836,-0.7927,-0.8082,-0.8172,-0.852,-0.8528,-0.8641,-0.8794,-0.8768,-0.8812,-0.8799,-0.8864,-0.8935,-0.9088,-0.9297,-0.9515,-1.4182,-1.4845,-1.4667,-1.4706,-1.4951,-1.4678,-1.4408,-1.4355,-1.4336,-1.4214,-1.416,-1.4194,-1.4247,-1.4247,-1.4247,-1.4004,-1.3491,-1.3462,-1.3472,-1.3391,-1.3241,-1.3022,-1.2838,-1.2679,-1.2553,-1.245,-1.2382,-1.2372,-1.2382,-1.2372,-1.2323,-1.2197,-1.1937,-1.1565,-1.1013,-1.0523,-1.0049,-0.9644,-0.9318,-0.9168,-0.9105,-0.9016,-0.8962,-0.894,-0.8998,-0.908,-0.9113,-0.8965,-0.8898,-0.8845,-0.8691,-0.8545,-0.8438,-0.8115,-0.7709,-0.7314,-0.7025,-0.6888,-0.6848,-0.642,-0.5977,-0.5747,-0.5727,-0.5734,-0.571,-0.571,-0.5686,-0.5592,-0.5467,-0.5404,-0.5679,-0.5952,-0.5876,-0.5274,-0.4925,-0.4805,-0.4912,-0.4876,-0.494,-0.5086,-0.5416,-0.5706,-0.5928,-0.6198,-0.6475,-0.675,-0.6859,-0.6945,-0.7081,-0.7196,-0.726,-0.7296,-0.7127,-0.7125,-0.7275,-0.7432,-0.7363,-0.7363,-0.7483,-0.7525,-0.773,-0.7858,-0.8054,-0.8401,-0.8611,-0.8746,-0.8822,-0.8789,-0.8755,-0.8747,-0.8668,-0.87,-0.8895,-0.9088,-0.9257,-1.4547,-1.497,-1.497,-1.5089,-1.5293,-1.5255,-1.5137,-1.4824,-1.4795,-1.4544,-1.4227,-1.4165,-1.4233,-1.4165,-1.4125,-1.3955,-1.398,-1.4034,-1.4019,-1.3917,-1.3733,-1.3436,-1.3105,-1.2931,-1.2721,-1.2404,-1.2221,-1.2153,-1.2181,-1.2153,-1.2126,-1.2126,-1.2098,-1.1801,-1.1273,-1.0858,-1.0356,-0.9778,-0.9331,-0.9028,-0.8888,-0.8741,-0.8764,-0.8944,-0.8862,-0.8834,-0.9,-0.8854,-0.8892,-0.9066,-0.8882,-0.8521,-0.8202,-0.8191,-0.7951,-0.7298,-0.7145,-0.7217,-0.7189,-0.6354,-0.5672,-0.5455,-0.5386,-0.5397,-0.5372,-0.5435,-0.5467,-0.5372,-0.534,-0.534,-0.5491,-0.571,-0.5808,-0.5751,-0.5283,-0.5123,-0.512,-0.4984,-0.487,-0.5082,-0.5415,-0.5754,-0.6175,-0.6402,-0.6608,-0.6888,-0.6925,-0.688,-0.695,-0.7009,-0.6943,-0.6873,-0.6907,-0.703,-0.7155,-0.7276,-0.7154,-0.708,-0.7228,-0.7321,-0.7681,-0.7928,-0.816,-0.8475,-0.8835,-0.8971,-0.8924,-0.8936,-0.8829,-0.8766,-0.8675,-0.8601,-0.8766,-0.8939,-0.8992,-1.4565,-1.4775,-1.4775,-1.4893,-1.5137,-1.5147,-1.5061,-1.4946,-1.4946,-1.4869,-1.4764,-1.4744,-1.4744,-1.4687,-1.4687,-1.462,-1.463,-1.4554,-1.427,-1.3869,-1.3641,-1.3521,-1.3346,-1.3255,-1.3083,-1.2936,-1.2669,-1.2479,-1.2424,-1.2254,-1.2076,-1.2076,-1.2076,-1.1816,-1.1327,-1.1062,-1.0628,-1.0,-0.9625,-0.9399,-0.9229,-0.908,-0.8948,-0.8868,-0.8799,-0.8844,-0.8897,-0.8866,-0.8806,-0.8825,-0.8631,-0.8436,-0.8286,-0.8491,-0.8524,-0.8196,-0.7276,-0.6836,-0.68,-0.6272,-0.5705,-0.5473,-0.5274,-0.5132,-0.5119,-0.5246,-0.534,-0.5309,-0.5309,-0.534,-0.5404,-0.5617,-0.5732,-0.5677,-0.558,-0.5481,-0.543,-0.5492,-0.5506,-0.5483,-0.5823,-0.6098,-0.6197,-0.6384,-0.665,-0.6786,-0.6837,-0.6926,-0.6901,-0.6906,-0.703,-0.7013,-0.7013,-0.6937,-0.6996,-0.7061,-0.702,-0.7068,-0.7171,-0.7309,-0.7682,-0.7982,-0.8221,-0.856,-0.8919,-0.9111,-0.907,-0.9004,-0.8911,-0.8852,-0.8772,-0.8755,-0.8765,-0.8812,-0.8923,-1.4556,-1.4715,-1.4715,-1.4843,-1.498,-1.5039,-1.497,-1.4911,-1.4902,-1.4843,-1.4834,-1.4834,-1.4843,-1.4843,-1.4843,-1.4843,-1.4843,-1.4666,-1.4396,-1.4026,-1.3914,-1.3793,-1.3626,-1.3396,-1.3296,-1.3213,-1.2865,-1.2724,-1.2687,-1.2278,-1.2076,-1.2076,-1.2076,-1.1868,-1.1459,-1.1172,-1.0716,-1.0174,-0.9747,-0.9468,-0.9183,-0.9043,-0.8956,-0.8816,-0.8798,-0.8861,-0.8926,-0.8834,-0.8784,-0.8742,-0.8693,-0.8637,-0.8531,-0.8494,-0.8487,-0.8268,-0.7582,-0.6803,-0.6379,-0.6003,-0.5652,-0.5317,-0.5119,-0.4962,-0.4927,-0.5055,-0.5182,-0.5182,-0.5125,-0.5125,-0.5214,-0.5372,-0.5493,-0.5532,-0.5615,-0.5636,-0.554,-0.56,-0.5689,-0.5695,-0.5943,-0.6089,-0.6208,-0.6265,-0.6522,-0.6514,-0.6646,-0.6717,-0.6674,-0.6672,-0.6772,-0.6809,-0.6706,-0.669,-0.6817,-0.6829,-0.6856,-0.7054,-0.723,-0.7448,-0.7685,-0.7966,-0.8212,-0.8698,-0.9073,-0.9125,-0.9112,-0.904,-0.9004,-0.8954,-0.8882,-0.886,-0.8826,-0.8933,-0.8984,-1.4547,-1.4715,-1.4715,-1.4784,-1.4921,-1.4911,-1.4793,-1.4715,-1.4647,-1.4538,-1.4478,-1.441,-1.4538,-1.4656,-1.4547,-1.4597,-1.4597,-1.4556,-1.4419,-1.4355,-1.4328,-1.4163,-1.3919,-1.3635,-1.346,-1.3406,-1.2921,-1.2736,-1.2684,-1.2246,-1.2076,-1.2026,-1.2017,-1.1918,-1.1612,-1.116,-1.0723,-1.0213,-0.9723,-0.9322,-0.8929,-0.8732,-0.8745,-0.8856,-0.8777,-0.8744,-0.8854,-0.8717,-0.8744,-0.8942,-0.8926,-0.8912,-0.8718,-0.8215,-0.7955,-0.7889,-0.7566,-0.6807,-0.5985,-0.5694,-0.5488,-0.5171,-0.5039,-0.4956,-0.4734,-0.483,-0.4928,-0.4928,-0.4832,-0.48,-0.4928,-0.496,-0.5106,-0.5358,-0.5523,-0.5508,-0.5302,-0.533,-0.5552,-0.5787,-0.5819,-0.58,-0.6113,-0.608,-0.617,-0.6174,-0.6252,-0.6284,-0.6327,-0.632,-0.6282,-0.6321,-0.6426,-0.6457,-0.6545,-0.6582,-0.6644,-0.681,-0.7036,-0.7324,-0.7672,-0.7948,-0.8138,-0.8624,-0.8967,-0.9086,-0.9148,-0.9017,-0.9062,-0.9054,-0.9026,-0.8922,-0.8874,-0.8936,-0.8897,-1.4556,-1.4656,-1.4606,-1.4565,-1.4625,-1.4515,-1.4446,-1.4378,-1.413,-1.407,-1.4061,-1.401,-1.413,-1.4369,-1.4378,-1.4387,-1.4387,-1.4387,-1.4258,-1.4139,-1.413,-1.4273,-1.43,-1.4123,-1.3983,-1.3883,-1.3166,-1.2788,-1.2726,-1.2126,-1.1855,-1.1828,-1.1828,-1.1728,-1.1543,-1.1306,-1.0981,-1.0572,-1.0047,-0.966,-0.9343,-0.904,-0.8854,-0.882,-0.8716,-0.86,-0.8527,-0.8209,-0.8103,-0.8374,-0.8527,-0.858,-0.8427,-0.8109,-0.7687,-0.7337,-0.7036,-0.6584,-0.5895,-0.5642,-0.5529,-0.5441,-0.5017,-0.4697,-0.4631,-0.462,-0.4604,-0.4511,-0.4441,-0.4458,-0.4549,-0.4599,-0.4799,-0.5192,-0.5376,-0.5505,-0.5509,-0.5606,-0.5791,-0.6067,-0.5982,-0.5855,-0.5795,-0.5896,-0.5957,-0.5809,-0.5855,-0.5923,-0.597,-0.5992,-0.5937,-0.6148,-0.6216,-0.6279,-0.6299,-0.6328,-0.6401,-0.6494,-0.677,-0.7114,-0.7477,-0.7909,-0.8103,-0.8362,-0.856,-0.8725,-0.8896,-0.8926,-0.8996,-0.9073,-0.8962,-0.8791,-0.8789,-0.8798,-0.8707,-1.4606,-1.4616,-1.4446,-1.4387,-1.4387,-1.4207,-1.4019,-1.395,-1.37,-1.3588,-1.3588,-1.3597,-1.3709,-1.395,-1.4019,-1.4139,-1.4148,-1.4079,-1.4019,-1.395,-1.383,-1.3941,-1.4189,-1.4198,-1.4139,-1.4016,-1.3332,-1.2858,-1.2595,-1.2,-1.172,-1.1645,-1.1628,-1.1528,-1.1427,-1.1226,-1.0922,-1.0403,-0.9947,-0.9629,-0.9263,-0.9001,-0.8784,-0.8639,-0.8474,-0.8315,-0.7996,-0.7622,-0.7521,-0.7842,-0.8002,-0.8049,-0.7996,-0.7729,-0.7306,-0.6761,-0.6376,-0.6025,-0.5898,-0.5634,-0.537,-0.5226,-0.4824,-0.4532,-0.4351,-0.4276,-0.4243,-0.4157,-0.4074,-0.4164,-0.4272,-0.4382,-0.4543,-0.4771,-0.4964,-0.5144,-0.5456,-0.5557,-0.5658,-0.5772,-0.5759,-0.5799,-0.5685,-0.5821,-0.5566,-0.5363,-0.5455,-0.5521,-0.558,-0.5588,-0.5624,-0.5774,-0.5828,-0.5814,-0.5855,-0.5932,-0.605,-0.6159,-0.6376,-0.675,-0.7133,-0.7622,-0.7783,-0.7943,-0.815,-0.8368,-0.848,-0.8646,-0.8771,-0.8736,-0.8738,-0.8741,-0.8703,-0.8706,-0.8609,-1.4616,-1.4506,-1.4396,-1.4267,-1.4207,-1.3899,-1.37,-1.3511,-1.3329,-1.3155,-1.3103,-1.318,-1.3407,-1.3519,-1.3761,-1.3821,-1.395,-1.3769,-1.3649,-1.3519,-1.3459,-1.3519,-1.3709,-1.383,-1.3769,-1.3648,-1.3269,-1.28,-1.2338,-1.1893,-1.1618,-1.143,-1.1429,-1.1377,-1.1226,-1.1023,-1.0565,-1.0043,-0.9629,-0.9211,-0.885,-0.8639,-0.8415,-0.8315,-0.8109,-0.7788,-0.7413,-0.7036,-0.6928,-0.7241,-0.7354,-0.7461,-0.7413,-0.7139,-0.6652,-0.6114,-0.5618,-0.5475,-0.5761,-0.5318,-0.4925,-0.4667,-0.4589,-0.4371,-0.4052,-0.3937,-0.3912,-0.3817,-0.373,-0.3856,-0.4052,-0.4182,-0.4202,-0.4268,-0.4238,-0.4529,-0.5027,-0.5235,-0.5234,-0.517,-0.5222,-0.5602,-0.5811,-0.5711,-0.5116,-0.4948,-0.5038,-0.5075,-0.5125,-0.516,-0.5163,-0.5261,-0.5289,-0.5238,-0.5399,-0.5508,-0.5673,-0.5782,-0.5996,-0.6268,-0.6647,-0.7031,-0.73,-0.7515,-0.767,-0.7836,-0.8068,-0.8221,-0.8315,-0.8455,-0.8476,-0.8574,-0.8705,-0.8657,-0.8588,-1.4497,-1.4488,-1.4318,-1.4148,-1.389,-1.364,-1.345,-1.3329,-1.3042,-1.292,-1.2989,-1.305,-1.3216,-1.345,-1.3511,-1.3571,-1.3511,-1.3285,-1.3042,-1.2789,-1.2728,-1.2728,-1.2911,-1.3216,-1.3338,-1.308,-1.267,-1.2272,-1.1946,-1.1486,-1.1161,-1.1162,-1.0986,-1.0922,-1.0922,-1.0718,-1.0352,-0.9873,-0.9413,-0.8942,-0.848,-0.8221,-0.7996,-0.783,-0.7515,-0.7139,-0.6707,-0.6332,-0.6055,-0.6046,-0.6588,-0.6923,-0.6756,-0.6164,-0.5677,-0.5458,-0.4959,-0.4736,-0.4812,-0.4782,-0.4528,-0.4189,-0.4107,-0.4025,-0.3863,-0.3619,-0.3542,-0.3473,-0.3545,-0.3666,-0.3659,-0.3674,-0.3712,-0.3755,-0.3774,-0.384,-0.4111,-0.4374,-0.456,-0.4752,-0.4852,-0.5009,-0.5266,-0.5125,-0.4792,-0.4587,-0.4591,-0.463,-0.4631,-0.4648,-0.4721,-0.4736,-0.4849,-0.4853,-0.4963,-0.5124,-0.5234,-0.5344,-0.5563,-0.5723,-0.605,-0.6436,-0.6707,-0.6923,-0.7139,-0.7306,-0.758,-0.7687,-0.7783,-0.799,-0.8203,-0.8262,-0.8321,-0.8374,-0.8527,-1.4437,-1.4369,-1.407,-1.3821,-1.364,-1.3338,-1.3155,-1.3042,-1.2805,-1.2752,-1.2805,-1.2928,-1.3103,-1.3164,-1.3346,-1.3346,-1.3094,-1.2736,-1.249,-1.2305,-1.2182,-1.2112,-1.2174,-1.2359,-1.2482,-1.2458,-1.2316,-1.1962,-1.1498,-1.1058,-1.0817,-1.0794,-1.0541,-1.0478,-1.0565,-1.03,-0.9932,-0.951,-0.9047,-0.858,-0.8103,-0.7794,-0.7413,-0.7133,-0.6756,-0.6381,-0.5941,-0.5559,-0.5175,-0.5058,-0.5496,-0.5996,-0.5937,-0.5344,-0.4963,-0.4853,-0.4239,-0.3962,-0.4048,-0.4075,-0.3944,-0.3622,-0.3545,-0.3503,-0.3405,-0.3254,-0.3173,-0.3146,-0.3312,-0.3478,-0.3053,-0.317,-0.3204,-0.319,-0.3173,-0.315,-0.3156,-0.3582,-0.4068,-0.4245,-0.4284,-0.4524,-0.4625,-0.4454,-0.3997,-0.3664,-0.396,-0.4059,-0.4014,-0.4067,-0.4181,-0.4242,-0.4356,-0.447,-0.4522,-0.4688,-0.4794,-0.4904,-0.5069,-0.5179,-0.5395,-0.5723,-0.6109,-0.6327,-0.6593,-0.6815,-0.7036,-0.7139,-0.7306,-0.7521,-0.7735,-0.7842,-0.7895,-0.7996,-0.8162,-1.4369,-1.4207,-1.37,-1.345,-1.3398,-1.2981,-1.2744,-1.2744,-1.2621,-1.256,-1.2621,-1.2867,-1.292,-1.2867,-1.3058,-1.2936,-1.256,-1.2243,-1.1934,-1.1872,-1.1622,-1.1553,-1.1615,-1.156,-1.156,-1.1802,-1.1841,-1.15,-1.1023,-1.0646,-1.0464,-1.0372,-1.009,-1.003,-1.0081,-0.988,-0.951,-0.9099,-0.8626,-0.8103,-0.7622,-0.7311,-0.6928,-0.6381,-0.5996,-0.5614,-0.5171,-0.4791,-0.4418,-0.4095,-0.4252,-0.457,-0.4732,-0.4567,-0.4294,-0.4298,-0.3577,-0.3299,-0.3413,-0.3463,-0.3297,-0.2968,-0.3,-0.2968,-0.2892,-0.2846,-0.2788,-0.2805,-0.2881,-0.2873,-0.228,-0.2467,-0.2568,-0.248,-0.2389,-0.2305,-0.2305,-0.2912,-0.3251,-0.3571,-0.3565,-0.3711,-0.3827,-0.373,-0.3199,-0.2832,-0.3176,-0.3405,-0.3411,-0.3469,-0.3633,-0.3799,-0.3913,-0.4079,-0.419,-0.4301,-0.4408,-0.4519,-0.4577,-0.4739,-0.4849,-0.5124,-0.5508,-0.5837,-0.6109,-0.6327,-0.6544,-0.6657,-0.6879,-0.7101,-0.7263,-0.7413,-0.7521,-0.7622,-0.7783,-1.4198,-1.401,-1.364,-1.3338,-1.305,-1.2744,-1.2552,-1.2367,-1.2367,-1.2367,-1.2367,-1.2674,-1.2805,-1.2805,-1.2691,-1.2375,-1.1934,-1.156,-1.1373,-1.1247,-1.1059,-1.0926,-1.0926,-1.0807,-1.0618,-1.0555,-1.087,-1.094,-1.065,-1.037,-1.0089,-0.9987,-0.9743,-0.9667,-0.9513,-0.9368,-0.9068,-0.8679,-0.8196,-0.767,-0.7139,-0.6761,-0.6381,-0.5732,-0.5301,-0.4868,-0.4473,-0.4086,-0.3789,-0.3472,-0.3634,-0.3596,-0.3554,-0.3276,-0.3337,-0.3524,-0.3135,-0.2745,-0.2856,-0.2858,-0.2691,-0.2467,-0.2502,-0.2501,-0.2434,-0.2441,-0.2356,-0.2261,-0.2134,-0.1976,-0.1533,-0.1819,-0.1897,-0.1799,-0.1718,-0.1638,-0.1532,-0.1691,-0.2049,-0.2432,-0.2588,-0.2755,-0.2844,-0.2871,-0.242,-0.2174,-0.24,-0.2629,-0.2631,-0.2854,-0.3186,-0.3355,-0.3522,-0.3688,-0.3855,-0.3968,-0.4079,-0.4076,-0.4187,-0.4353,-0.4463,-0.4688,-0.4963,-0.5344,-0.5673,-0.595,-0.6114,-0.6228,-0.6391,-0.6608,-0.6825,-0.6987,-0.7144,-0.73,-0.7408,-1.401,-1.37,-1.3398,-1.3103,-1.2744,-1.256,-1.2375,-1.2182,-1.2189,-1.2189,-1.2243,-1.2428,-1.249,-1.2428,-1.2375,-1.1996,-1.1435,-1.1059,-1.0933,-1.0807,-1.0491,-1.0364,-1.0295,-1.0174,-0.9856,-0.9658,-0.9849,-1.0098,-1.0009,-0.9686,-0.9557,-0.9511,-0.9362,-0.9194,-0.9024,-0.8916,-0.8603,-0.8152,-0.7681,-0.7198,-0.6495,-0.6109,-0.5508,-0.5081,-0.4597,-0.4188,-0.3757,-0.3452,-0.3196,-0.2994,-0.2911,-0.289,-0.273,-0.2587,-0.2639,-0.2913,-0.2587,-0.2244,-0.2244,-0.2242,-0.2074,-0.1796,-0.1908,-0.1946,-0.1858,-0.1788,-0.1765,-0.154,-0.1486,-0.1258,-0.0893,-0.1158,-0.1259,-0.115,-0.1055,-0.0896,-0.0785,-0.0673,-0.0941,-0.131,-0.1583,-0.1807,-0.1879,-0.1782,-0.1566,-0.1569,-0.1681,-0.1793,-0.1905,-0.224,-0.2629,-0.2854,-0.3021,-0.3244,-0.3411,-0.3522,-0.3635,-0.3691,-0.3744,-0.391,-0.4076,-0.4242,-0.4463,-0.4791,-0.5124,-0.5458,-0.5681,-0.5845,-0.6009,-0.6168,-0.6386,-0.6608,-0.682,-0.7031,-0.709,-1.3761,-1.345,-1.3103,-1.2805,-1.256,-1.2305,-1.2182,-1.2058,-1.2058,-1.1996,-1.1996,-1.212,-1.212,-1.1996,-1.1809,-1.1498,-1.094,-1.0624,-1.0434,-1.0231,-0.9856,-0.9734,-0.9664,-0.9466,-0.9145,-0.8947,-0.8888,-0.9011,-0.9244,-0.9092,-0.9024,-0.8938,-0.8819,-0.8673,-0.8519,-0.8407,-0.8029,-0.7677,-0.7219,-0.6719,-0.5939,-0.5218,-0.4657,-0.4313,-0.3909,-0.351,-0.3056,-0.2785,-0.2579,-0.2412,-0.241,-0.2413,-0.2336,-0.21,-0.2123,-0.2259,-0.1969,-0.1773,-0.1631,-0.1588,-0.1474,-0.118,-0.1291,-0.129,-0.1232,-0.1169,-0.1004,-0.0786,-0.0742,-0.063,-0.0462,-0.063,-0.0685,-0.0567,-0.0453,-0.0283,-0.0112,-0.0056,0.0056,-0.0279,-0.0617,-0.0843,-0.09,-0.0953,-0.084,-0.0841,-0.0952,-0.112,-0.1289,-0.1738,-0.2073,-0.2296,-0.2519,-0.2745,-0.291,-0.3077,-0.3135,-0.3246,-0.3302,-0.3355,-0.3577,-0.3741,-0.4018,-0.4294,-0.4574,-0.4908,-0.5132,-0.5411,-0.5626,-0.5786,-0.5955,-0.6173,-0.6436,-0.6598,-0.6652,-1.3511,-1.3442,-1.2858,-1.2629,-1.2498,-1.2058,-1.1864,-1.1864,-1.1809,-1.174,-1.1622,-1.1747,-1.1747,-1.156,-1.1115,-1.087,-1.0555,-1.0117,-0.9792,-0.9588,-0.9268,-0.9022,-0.8894,-0.8705,-0.8501,-0.8301,-0.8177,-0.8312,-0.8495,-0.8522,-0.8471,-0.8307,-0.8315,-0.8232,-0.7999,-0.7977,-0.779,-0.7405,-0.6969,-0.6193,-0.524,-0.464,-0.4162,-0.3696,-0.329,-0.2826,-0.241,-0.2054,-0.1756,-0.1722,-0.2128,-0.2285,-0.2176,-0.1604,-0.1341,-0.1376,-0.1401,-0.146,-0.1044,-0.0984,-0.087,-0.0628,-0.0679,-0.0731,-0.0733,-0.0618,-0.0449,-0.0112,-0.0118,-0.0122,-0.0122,-0.0304,-0.0301,-0.0177,-0.0058,0.0115,0.0285,0.0628,0.0684,0.0744,0.0403,0.0171,0.0,-0.0056,-0.0112,-0.0168,-0.028,-0.0449,-0.0673,-0.1121,-0.1513,-0.1793,-0.2017,-0.224,-0.2464,-0.2573,-0.2633,-0.2747,-0.2802,-0.2856,-0.3077,-0.3241,-0.3463,-0.3741,-0.4076,-0.4411,-0.4688,-0.4963,-0.5183,-0.5403,-0.5567,-0.5786,-0.6055,-0.6164,-0.6273,-1.3216,-1.3155,-1.2805,-1.2498,-1.2251,-1.1864,-1.1622,-1.149,-1.1303,-1.1178,-1.1122,-1.1129,-1.1066,-1.0807,-1.0491,-1.0231,-0.9913,-0.9536,-0.921,-0.8877,-0.856,-0.8312,-0.8182,-0.7987,-0.7847,-0.7657,-0.7591,-0.7531,-0.7661,-0.7852,-0.7852,-0.7787,-0.7815,-0.7724,-0.7522,-0.7441,-0.7179,-0.6685,-0.604,-0.5261,-0.4601,-0.3997,-0.3525,-0.3063,-0.2645,-0.2164,-0.1739,-0.1361,-0.1106,-0.1053,-0.1431,-0.1635,-0.1403,-0.0942,-0.0471,-0.047,-0.0199,-0.0129,-0.0314,-0.0307,-0.018,-0.006,-0.0059,-0.0236,-0.0233,-0.0171,-0.0112,0.0,0.0179,0.0249,0.0319,0.0189,0.0185,0.0243,0.03,0.0537,0.0766,0.1112,0.1289,0.1413,0.1418,0.1172,0.087,0.063,0.0512,0.0338,0.0169,-0.0056,-0.0224,-0.0505,-0.0897,-0.1232,-0.1513,-0.1737,-0.1903,-0.2071,-0.213,-0.2188,-0.2189,-0.23,-0.2519,-0.274,-0.2992,-0.3322,-0.3644,-0.3978,-0.4255,-0.4577,-0.4908,-0.5073,-0.5179,-0.5399,-0.5618,-0.5782,-0.5896,-1.292,-1.2867,-1.2621,-1.2251,-1.1941,-1.1622,-1.1373,-1.1178,-1.0807,-1.0674,-1.0555,-1.0428,-1.0238,-1.0047,-0.9856,-0.9594,-0.9332,-0.8877,-0.849,-0.8172,-0.7852,-0.7591,-0.74,-0.7265,-0.7134,-0.7003,-0.6937,-0.6872,-0.6876,-0.6937,-0.7129,-0.733,-0.7363,-0.7237,-0.7081,-0.6904,-0.6665,-0.5942,-0.5171,-0.4481,-0.3916,-0.3477,-0.2929,-0.2444,-0.1951,-0.1514,-0.1071,-0.0603,-0.0402,-0.0335,-0.0469,-0.0669,-0.0538,0.0135,0.0404,0.0539,0.0803,0.1069,0.072,0.0513,0.0566,0.0564,0.0558,0.0366,0.0364,0.0235,0.0234,0.0357,0.0493,0.0647,0.066,0.0582,0.0573,0.0563,0.0616,0.0862,0.1169,0.1527,0.1874,0.1928,0.1996,0.2068,0.1741,0.1409,0.1156,0.0912,0.0678,0.0394,0.0225,0.0,-0.0338,-0.0676,-0.0899,-0.1125,-0.1348,-0.1459,-0.1573,-0.1642,-0.1644,-0.1828,-0.2076,-0.2317,-0.2566,-0.289,-0.3253,-0.3577,-0.3865,-0.4229,-0.4574,-0.4684,-0.4794,-0.4963,-0.5128,-0.5348,-0.5513,-1.2744,-1.2621,-1.2251,-1.1934,-1.1622,-1.1247,-1.1003,-1.08,-1.0421,-1.0174,-0.9983,-0.9716,-0.9582,-0.9454,-0.9204,-0.8952,-0.8829,-0.8107,-0.7647,-0.726,-0.6933,-0.6741,-0.6548,-0.6482,-0.6482,-0.6416,-0.6346,-0.628,-0.6214,-0.6152,-0.6482,-0.6815,-0.6811,-0.6802,-0.6637,-0.6343,-0.5886,-0.5254,-0.4537,-0.3893,-0.3372,-0.2847,-0.2391,-0.1731,-0.1338,-0.0939,-0.0538,0.0067,0.0403,0.047,0.0404,0.0337,0.0471,0.1279,0.1548,0.1345,0.1681,0.2018,0.193,0.144,0.1236,0.1301,0.1222,0.0942,0.0946,0.0684,0.0691,0.0907,0.098,0.0991,0.0938,0.0869,0.0851,0.1035,0.1146,0.133,0.1649,0.2031,0.2325,0.248,0.2607,0.2638,0.2625,0.2207,0.1733,0.1474,0.1278,0.0983,0.0745,0.0515,0.0228,-0.0057,-0.0283,-0.0508,-0.0734,-0.0852,-0.1041,-0.1169,-0.1233,-0.1488,-0.1752,-0.1998,-0.2217,-0.2523,-0.2922,-0.32,-0.3512,-0.377,-0.402,-0.4222,-0.4418,-0.4612,-0.4816,-0.5073,-0.5238,-1.2436,-1.2058,-1.1747,-1.156,-1.1365,-1.0807,-1.0491,-1.0238,-0.9722,-0.9344,-0.9087,-0.8958,-0.8894,-0.8829,-0.8565,-0.8306,-0.8042,-0.7386,-0.6933,-0.6539,-0.621,-0.5951,-0.5822,-0.5822,-0.5822,-0.5756,-0.5756,-0.569,-0.569,-0.5624,-0.569,-0.5954,-0.6152,-0.6148,-0.5947,-0.555,-0.4957,-0.4492,-0.3825,-0.3157,-0.2621,-0.2218,-0.168,-0.0941,-0.0605,-0.0202,0.0269,0.0739,0.1076,0.1277,0.1211,0.1211,0.1279,0.222,0.2287,0.195,0.2421,0.2891,0.3094,0.2452,0.186,0.1665,0.1583,0.1435,0.1441,0.1238,0.1312,0.1402,0.1277,0.1277,0.1479,0.1344,0.1268,0.1459,0.1646,0.1827,0.2148,0.2541,0.2799,0.2955,0.317,0.3338,0.3243,0.3075,0.2558,0.2071,0.1862,0.1602,0.1294,0.1054,0.0817,0.0525,0.0291,0.0117,-0.0117,-0.0296,-0.0478,-0.0663,-0.0789,-0.1046,-0.137,-0.1722,-0.1955,-0.2276,-0.2539,-0.2849,-0.3136,-0.3318,-0.3561,-0.3931,-0.4104,-0.4226,-0.4531,-0.4812,-0.4963,-1.212,-1.1615,-1.1185,-1.0989,-1.0926,-1.0295,-0.9919,-0.9594,-0.9017,-0.8635,-0.8382,-0.8317,-0.8252,-0.8187,-0.7857,-0.7526,-0.7195,-0.6605,-0.6148,-0.5683,-0.5348,-0.5153,-0.509,-0.509,-0.509,-0.509,-0.5093,-0.5024,-0.5024,-0.516,-0.516,-0.5226,-0.5362,-0.5422,-0.5286,-0.4622,-0.4092,-0.3558,-0.3023,-0.242,-0.1951,-0.1479,-0.1008,-0.0336,0.0067,0.047,0.0941,0.1344,0.1681,0.1884,0.2018,0.195,0.2217,0.2487,0.2757,0.2824,0.3025,0.3627,0.3763,0.3295,0.2421,0.2283,0.208,0.2007,0.1882,0.1883,0.181,0.1946,0.1681,0.1614,0.195,0.1882,0.1814,0.2003,0.2204,0.2455,0.2725,0.306,0.3332,0.3522,0.3611,0.3668,0.3652,0.3468,0.3124,0.2673,0.2378,0.2179,0.1998,0.169,0.1448,0.1207,0.0966,0.073,0.0553,0.0306,0.0061,-0.0187,-0.0314,-0.0632,-0.0952,-0.1257,-0.1704,-0.205,-0.2309,-0.254,-0.2721,-0.2973,-0.3308,-0.3745,-0.39,-0.4019,-0.4301,-0.4591,-0.4698,-1.1809,-1.1247,-1.0618,-1.0301,-1.0238,-0.9716,-0.9332,-0.8952,-0.8431,-0.8112,-0.7922,-0.7792,-0.7666,-0.7601,-0.7204,-0.6806,-0.6346,-0.5756,-0.5226,-0.4891,-0.4556,-0.4422,-0.4289,-0.4289,-0.4289,-0.4287,-0.4287,-0.4289,-0.4289,-0.4425,-0.4495,-0.4492,-0.4492,-0.4625,-0.4694,-0.3956,-0.3286,-0.2751,-0.2218,-0.168,-0.1277,-0.0806,-0.0269,0.0202,0.0672,0.1076,0.1479,0.195,0.222,0.2423,0.2622,0.2621,0.2686,0.2753,0.2954,0.3226,0.3424,0.3828,0.4167,0.3563,0.3159,0.2891,0.2621,0.2552,0.2554,0.2421,0.222,0.2354,0.2287,0.222,0.242,0.2618,0.2554,0.2555,0.2757,0.2958,0.3228,0.3496,0.3694,0.3828,0.3828,0.3825,0.3892,0.3862,0.357,0.3231,0.2915,0.2716,0.2552,0.2377,0.2134,0.176,0.1511,0.1262,0.1014,0.0876,0.0626,0.0383,0.0065,-0.026,-0.0524,-0.0918,-0.132,-0.1733,-0.1986,-0.2155,-0.2377,-0.2606,-0.3002,-0.3425,-0.3661,-0.3854,-0.414,-0.4333,-0.4425,-1.124,-1.0737,-1.0034,-0.9594,-0.928,-0.9145,-0.8759,-0.8306,-0.7782,-0.7461,-0.7274,-0.7209,-0.7138,-0.6937,-0.6605,-0.6148,-0.569,-0.5156,-0.4625,-0.4159,-0.3892,-0.3694,-0.3625,-0.3491,-0.3422,-0.3422,-0.3422,-0.3422,-0.3422,-0.3625,-0.3627,-0.3625,-0.3556,-0.3489,-0.3491,-0.3023,-0.2421,-0.195,-0.1344,-0.0873,-0.0605,-0.0134,0.0403,0.0806,0.1277,0.1614,0.2018,0.2488,0.2757,0.2891,0.309,0.309,0.309,0.3157,0.3558,0.383,0.4033,0.4228,0.4498,0.4228,0.3894,0.35,0.3159,0.3092,0.3025,0.269,0.269,0.2824,0.2824,0.2824,0.2889,0.3222,0.3291,0.3228,0.3295,0.3431,0.3632,0.3763,0.3961,0.4164,0.4231,0.4295,0.4361,0.4361,0.408,0.3926,0.367,0.3359,0.3188,0.2944,0.2694,0.2299,0.1972,0.1706,0.1503,0.1291,0.1095,0.085,0.0463,0.0067,-0.0201,-0.0471,-0.0873,-0.1272,-0.1476,-0.1748,-0.2017,-0.235,-0.2737,-0.3065,-0.3281,-0.3496,-0.3748,-0.3974,-0.4213,-1.0793,-1.0225,-0.9588,-0.8947,-0.8447,-0.8447,-0.8117,-0.7596,-0.7269,-0.7007,-0.6881,-0.6815,-0.6679,-0.6408,-0.5947,-0.5481,-0.4957,-0.4492,-0.3956,-0.3424,-0.3228,-0.3027,-0.2825,-0.269,-0.2621,-0.2621,-0.2554,-0.2552,-0.2621,-0.2753,-0.2887,-0.282,-0.2554,-0.2485,-0.2353,-0.195,-0.1614,-0.1143,-0.0605,-0.0134,0.0067,0.047,0.0941,0.1344,0.1748,0.2153,0.249,0.2893,0.3159,0.3293,0.3424,0.3424,0.3493,0.3627,0.3961,0.4169,0.4662,0.4813,0.4915,0.4989,0.466,0.4378,0.3881,0.3629,0.3558,0.3291,0.3291,0.3291,0.3297,0.3299,0.3435,0.3837,0.4046,0.3917,0.3912,0.3981,0.4048,0.4247,0.4319,0.452,0.457,0.47,0.4846,0.4761,0.4668,0.4541,0.4414,0.4105,0.3775,0.3431,0.3161,0.2818,0.2414,0.2068,0.1865,0.1598,0.1466,0.1276,0.0942,0.0471,0.0269,0.0,-0.0404,-0.074,-0.0941,-0.1278,-0.1748,-0.2147,-0.2341,-0.2599,-0.2765,-0.3017,-0.3328,-0.3549,-0.3786,-1.0351,-0.9773,-0.921,-0.8501,-0.7797,-0.7661,-0.7339,-0.6881,-0.6881,-0.6815,-0.6815,-0.6482,-0.6214,-0.5943,-0.5348,-0.4818,-0.4287,-0.3754,-0.3222,-0.282,-0.2555,-0.2356,-0.2153,-0.195,-0.1816,-0.1748,-0.1748,-0.168,-0.1883,-0.2016,-0.2147,-0.2216,-0.1883,-0.1613,-0.1344,-0.1008,-0.0806,-0.0403,0.0067,0.0403,0.0605,0.1076,0.1479,0.1816,0.2153,0.2555,0.296,0.3228,0.3493,0.3692,0.3823,0.3825,0.3828,0.3828,0.403,0.4509,0.5313,0.5451,0.5461,0.5454,0.5535,0.5271,0.4852,0.4549,0.425,0.4064,0.3986,0.3859,0.3801,0.3864,0.3994,0.4411,0.476,0.4686,0.454,0.4607,0.4678,0.4748,0.476,0.4815,0.4852,0.4925,0.5051,0.5048,0.5095,0.5015,0.4891,0.468,0.4327,0.3773,0.35,0.3157,0.282,0.2421,0.2153,0.1884,0.1748,0.1547,0.1344,0.0942,0.074,0.0539,0.0202,-0.0135,-0.0403,-0.074,-0.1212,-0.1548,-0.1814,-0.2076,-0.2202,-0.2515,-0.2775,-0.305,-0.3281,-0.9849,-0.9204,-0.8565,-0.7982,-0.7526,-0.7003,-0.6683,-0.6552,-0.6482,-0.635,-0.6152,-0.5951,-0.5683,-0.5352,-0.4818,-0.422,-0.3685,-0.322,-0.2753,-0.2353,-0.195,-0.1748,-0.148,-0.1211,-0.1008,-0.0941,-0.0873,-0.0874,-0.1008,-0.1208,-0.1411,-0.1412,-0.1143,-0.0807,-0.047,-0.0067,0.0134,0.0336,0.0806,0.0941,0.1212,0.1618,0.1956,0.2228,0.2642,0.298,0.325,0.3652,0.3919,0.4113,0.43,0.4298,0.4167,0.4372,0.4739,0.539,0.5885,0.6103,0.5971,0.6025,0.6187,0.6205,0.5934,0.5698,0.5414,0.4989,0.4745,0.4626,0.4442,0.4524,0.4911,0.5281,0.5477,0.5385,0.53,0.5211,0.5211,0.5211,0.5293,0.5253,0.5283,0.5238,0.5362,0.5476,0.5519,0.5483,0.5313,0.5154,0.4824,0.4254,0.3731,0.3452,0.309,0.269,0.2356,0.2085,0.1951,0.1816,0.1547,0.1344,0.1143,0.0942,0.0673,0.0336,0.0,-0.0336,-0.0674,-0.0942,-0.1277,-0.1344,-0.1474,-0.1871,-0.2192,-0.2481,-0.2718,-0.9089,-0.8551,-0.7978,-0.751,-0.6999,-0.6346,-0.6086,-0.602,-0.5951,-0.5885,-0.5752,-0.5422,-0.5087,-0.4752,-0.4217,-0.3618,-0.3017,-0.2618,-0.2151,-0.1747,-0.1412,-0.1144,-0.0808,-0.0538,-0.0336,-0.0202,-0.0134,-0.0135,-0.0269,-0.0538,-0.0807,-0.0807,-0.0404,-0.0134,0.0202,0.0605,0.1008,0.121,0.1412,0.1614,0.189,0.2176,0.246,0.2741,0.3164,0.3388,0.3668,0.4079,0.4362,0.4577,0.478,0.4716,0.4819,0.5277,0.5742,0.6352,0.6474,0.6506,0.6396,0.667,0.6803,0.6865,0.6927,0.6939,0.6531,0.6122,0.5803,0.5509,0.5312,0.5334,0.5833,0.6248,0.6205,0.6165,0.5983,0.5803,0.5799,0.5796,0.5759,0.5738,0.5701,0.5627,0.5749,0.5881,0.5911,0.5731,0.5606,0.5461,0.5118,0.461,0.4145,0.3714,0.3326,0.2891,0.2626,0.2296,0.2157,0.2021,0.1816,0.1614,0.1547,0.1344,0.1076,0.074,0.0336,0.0067,-0.0135,-0.0404,-0.0605,-0.0672,-0.074,-0.1006,-0.1407,-0.1801,-0.2059,-0.828,-0.7814,-0.7456,-0.6876,-0.6256,-0.5807,-0.5488,-0.5359,-0.5422,-0.5484,-0.5352,-0.4957,-0.4558,-0.4154,-0.3618,-0.3017,-0.2484,-0.2016,-0.1613,-0.1076,-0.0874,-0.0605,-0.0337,0.0,0.0269,0.0337,0.0404,0.0471,0.0269,0.0,-0.0202,-0.0202,0.0,0.0337,0.0806,0.1276,0.168,0.2085,0.2232,0.2379,0.246,0.2764,0.3021,0.3385,0.357,0.3833,0.4272,0.4643,0.4801,0.5015,0.5188,0.5145,0.5611,0.6447,0.6949,0.7038,0.7034,0.6878,0.6942,0.7163,0.7419,0.7596,0.7876,0.7804,0.7343,0.6861,0.6522,0.6452,0.6327,0.6254,0.6678,0.7029,0.7092,0.6884,0.661,0.6529,0.6397,0.6383,0.6236,0.6201,0.5966,0.5978,0.5998,0.6125,0.6084,0.5928,0.5888,0.5752,0.5472,0.5024,0.4596,0.4074,0.3619,0.3235,0.2936,0.2664,0.2437,0.2227,0.2091,0.1951,0.1884,0.1748,0.1479,0.1143,0.0807,0.0605,0.0403,0.0202,0.0067,0.0067,0.0,-0.0135,-0.0539,-0.1008,-0.1344,-0.8054,-0.7476,-0.6706,-0.6046,-0.5456,-0.5439,-0.516,-0.4761,-0.4628,-0.4694,-0.4758,-0.4359,-0.4025,-0.362,-0.3019,-0.2417,-0.2016,-0.1478,-0.1075,-0.0672,-0.0336,-0.0067,0.0202,0.0539,0.0807,0.0941,0.1009,0.0942,0.0673,0.0471,0.0404,0.0538,0.0673,0.1008,0.1412,0.1814,0.2285,0.2772,0.3094,0.3122,0.3076,0.3409,0.3752,0.39,0.4007,0.4315,0.4678,0.4818,0.5098,0.5375,0.5587,0.5755,0.6082,0.7265,0.7677,0.748,0.7557,0.7326,0.7253,0.7484,0.7876,0.8034,0.8106,0.8097,0.7897,0.7462,0.7283,0.7299,0.7303,0.7295,0.7378,0.7656,0.7838,0.7534,0.725,0.7127,0.7003,0.6904,0.6727,0.6576,0.6356,0.6284,0.6366,0.6311,0.6273,0.6266,0.6169,0.6073,0.5858,0.5544,0.5183,0.4629,0.4027,0.363,0.3301,0.299,0.2766,0.2593,0.2378,0.2369,0.229,0.2085,0.1816,0.1547,0.1277,0.1143,0.1076,0.0941,0.0873,0.0739,0.0605,0.0471,0.0269,-0.0134,-0.0538,-0.7307,-0.667,-0.5968,-0.5449,-0.5095,-0.4966,-0.4764,-0.4428,-0.4097,-0.3964,-0.3961,-0.3692,-0.3424,-0.3019,-0.2418,-0.1949,-0.1547,-0.1008,-0.0605,-0.0269,0.0135,0.0471,0.074,0.1009,0.1143,0.1277,0.1344,0.1278,0.1076,0.0942,0.0942,0.1076,0.121,0.1546,0.1949,0.242,0.2909,0.3287,0.3788,0.3852,0.3676,0.3962,0.4144,0.4291,0.4474,0.4787,0.5032,0.5259,0.5563,0.5861,0.6172,0.6318,0.6693,0.753,0.8003,0.8021,0.7944,0.7714,0.7561,0.7791,0.8255,0.8336,0.8259,0.8246,0.8322,0.796,0.7808,0.7821,0.8045,0.8036,0.7964,0.8156,0.8089,0.7893,0.7723,0.7664,0.7443,0.7206,0.7038,0.6889,0.6659,0.651,0.6437,0.6287,0.6237,0.6237,0.6254,0.6254,0.606,0.5956,0.5591,0.5202,0.4578,0.4014,0.3661,0.3351,0.3126,0.294,0.2753,0.2657,0.2576,0.2427,0.2218,0.2017,0.1883,0.1816,0.1681,0.1613,0.1479,0.1412,0.1277,0.1076,0.0874,0.0672,0.0202,-0.6382,-0.5789,-0.5319,-0.5021,-0.4871,-0.4483,-0.4217,-0.4097,-0.3699,-0.3295,-0.3092,-0.3092,-0.2755,-0.2418,-0.1949,-0.1479,-0.1008,-0.047,-0.0134,0.0269,0.0673,0.0875,0.1076,0.1344,0.1479,0.1614,0.1614,0.1547,0.1412,0.1345,0.1345,0.1412,0.168,0.2016,0.2487,0.2909,0.3349,0.3769,0.4222,0.4564,0.4564,0.4551,0.4626,0.4738,0.4942,0.5154,0.5392,0.5702,0.6015,0.6311,0.6583,0.6878,0.7255,0.7833,0.8223,0.8399,0.8322,0.8093,0.7863,0.8097,0.8403,0.8479,0.8403,0.8403,0.8403,0.8327,0.8174,0.8246,0.8475,0.8546,0.8475,0.8475,0.8327,0.8255,0.8102,0.8025,0.7718,0.7488,0.7334,0.718,0.7026,0.6795,0.6641,0.649,0.6335,0.6335,0.6261,0.6261,0.6251,0.6079,0.5854,0.5632,0.5217,0.4696,0.4186,0.3873,0.3647,0.3446,0.3248,0.3048,0.2802,0.2734,0.2652,0.2557,0.2423,0.2356,0.2356,0.2354,0.222,0.2084,0.1814,0.1612,0.1344,0.1143,0.0807,-0.6069,-0.5075,-0.4875,-0.4543,-0.4165,-0.4105,-0.3876,-0.3422,-0.3293,-0.2958,-0.2488,-0.2421,-0.2287,-0.2154,-0.1546,-0.1008,-0.0538,-0.0067,0.047,0.0941,0.1076,0.1277,0.1479,0.1681,0.1884,0.1951,0.1951,0.1816,0.1814,0.1816,0.1884,0.2018,0.2351,0.2691,0.304,0.3483,0.3896,0.4338,0.4673,0.503,0.5225,0.5138,0.5123,0.5223,0.5386,0.5553,0.5783,0.586,0.6173,0.6483,0.6791,0.7249,0.771,0.8169,0.8551,0.8627,0.8551,0.8475,0.8399,0.8327,0.8403,0.8183,0.8106,0.8178,0.8178,0.8102,0.8102,0.8097,0.8246,0.847,0.847,0.8551,0.8556,0.8403,0.8255,0.8102,0.7949,0.7799,0.7646,0.7565,0.7403,0.7253,0.718,0.6872,0.649,0.6412,0.6261,0.6261,0.6261,0.618,0.6099,0.5902,0.5701,0.5348,0.4822,0.4502,0.4256,0.4045,0.3768,0.3491,0.3303,0.3136,0.3044,0.3003,0.2975,0.29,0.2898,0.2958,0.2893,0.269,0.2418,0.2149,0.1882,0.1547,0.1278]}]]